[[{"header":{"parameterUnit":"m.s-1","parameterCategory":1,"la1":30.6,"la2":28.766,"lo1":-90.7593,"lo2":-88.6598,"dy":0.0162,"dx":0.0183,"nx":116,"ny":114,"refTime":"2024-04-16T12:00:00:Z","depth":0,"parameterNumber":2,"parameterNumberName":"U-component_of_WINDS"},"data":[0.0,0.0,0.0,0.0,0.0,0.0,0.0,0.0,0.0,0.0,0.0,0.0,0.0,0.0,0.0,0.0,0.0,0.0,0.0,0.0,0.0,0.0,0.0,0.0,0.0,0.0,0.0,0.0,0.0,0.0,0.0,0.0,0.0,0.0,0.0,0.0,0.0,0.0,0.0,0.0,0.0,0.0,0.0,0.0,0.0,0.0,0.0,0.0,0.0,0.0,0.0,0.0,0.0,0.0,0.0,0.0,0.0,0.0,0.0,0.0,0.0,0.0,0.0,0.0,0.0,0.0,0.0,0.0,0.0,0.0,0.0,0.0,0.0,0.0,0.0,0.0,0.0,0.0,0.0,0.0,0.0,0.0,0.0,0.0,0.0,0.0,0.0,0.0,0.0,0.0,0.0,0.0,0.0,0.0,0.0,0.0,0.0,0.0,0.0,0.0,0.0,0.0,0.0,0.0,0.0,0.0,0.0,0.0,0.0,0.0,0.0,0.0,0.0,0.0,0.0,0.0,0.0,0.0,0.0,0.0,0.0,0.0,0.0,0.0,0.0,0.0,0.0,0.0,0.0,0.0,0.0,0.0,0.0,0.0,0.0,0.0,0.0,0.0,0.0,0.0,0.0,0.0,0.0,0.0,0.0,0.0,0.0,0.0,0.0,0.0,0.0,0.0,0.0,0.0,0.0,0.0,0.0,0.0,0.0,0.0,0.0,0.0,0.0,0.0,0.0,0.0,0.0,0.0,0.0,0.0,0.0,0.0,0.0,0.0,0.0,0.0,0.0,0.0,0.0,0.0,0.0,0.0,0.0,0.0,0.0,0.0,0.0,0.0,0.0,0.0,0.0,0.0,0.0,0.0,0.0,0.0,0.0,0.0,0.0,0.0,0.0,0.0,0.0,0.0,0.0,0.0,0.0,0.0,0.0,0.0,0.0,0.0,0.0,0.0,0.0,0.0,0.0,0.0,0.0,0.0,0.0,0.0,0.0,0.0,0.0,0.0,0.0,0.0,0.0,0.0,0.0,0.0,0.0,0.0,0.0,0.0,0.0,0.0,0.0,0.0,0.0,0.0,0.0,0.0,0.0,0.0,0.0,0.0,0.0,0.0,0.0,0.0,0.0,0.0,0.0,0.0,0.0,0.0,0.0,0.0,0.0,0.0,0.0,0.0,0.0,0.0,0.0,0.0,0.0,0.0,0.0,0.0,0.0,0.0,0.0,0.0,0.0,0.0,0.0,0.0,0.0,0.0,0.0,0.0,0.0,0.0,0.0,0.0,0.0,0.0,0.0,0.0,0.0,0.0,0.0,0.0,0.0,0.0,0.0,0.0,0.0,0.0,0.0,0.0,0.0,0.0,0.0,0.0,0.0,0.0,0.0,0.0,0.0,0.0,0.0,0.0,0.0,0.0,0.0,0.0,0.0,0.0,0.0,0.0,0.0,0.0,0.0,0.0,0.0,0.0,0.0,0.0,0.0,0.0,0.0,0.0,0.0,0.0,0.0,0.0,0.0,0.0,0.0,0.0,0.0,0.0,0.0,0.0,0.0,0.0,0.0,0.0,0.0,0.0,0.0,0.0,0.0,0.0,0.0,0.0,0.0,0.0,0.0,0.0,0.0,0.0,0.0,0.0,0.0,0.0,0.0,0.0,0.0,0.0,0.0,0.0,0.0,0.0,0.0,0.0,0.0,0.0,0.0,0.0,0.0,0.0,0.0,0.0,0.0,0.0,0.0,0.0,0.0,0.0,0.0,0.0,0.0,0.0,0.0,0.0,0.0,0.0,0.0,0.0,0.0,0.0,0.0,0.0,0.0,0.0,0.0,0.0,0.0,0.0,0.0,0.0,0.0,0.0,0.0,0.0,0.0,0.0,0.0,0.0,0.0,0.0,0.0,0.0,0.0,0.0,0.0,0.0,0.0,0.0,0.0,0.0,0.0,0.0,0.0,0.0,0.0,0.0,0.0,0.0,0.0,0.0,0.0,0.0,0.0,0.0,0.0,0.0,0.0,0.0,0.0,0.0,0.0,0.0,0.0,0.0,0.0,0.0,0.0,0.0,0.0,0.0,0.0,0.0,0.0,0.0,0.0,0.0,0.0,0.0,0.0,0.0,0.0,0.0,0.0,0.0,0.0,0.0,0.0,0.0,0.0,0.0,0.0,0.0,0.0,0.0,0.0,0.0,0.0,0.0,0.0,0.0,0.0,0.0,0.0,0.0,0.0,0.0,0.0,0.0,0.0,0.0,0.0,0.0,0.0,0.0,0.0,0.0,0.0,0.0,0.0,0.0,0.0,0.0,0.0,0.0,0.0,0.0,0.0,0.0,0.0,0.0,0.0,0.0,0.0,0.0,0.0,0.0,0.0,0.0,0.0,0.0,0.0,0.0,0.0,0.0,0.0,0.0,0.0,0.0,0.0,0.0,0.0,0.0,0.0,0.0,0.0,0.0,0.0,0.0,0.0,0.0,0.0,0.0,0.0,0.0,0.0,0.0,0.0,0.0,0.0,0.0,0.0,0.0,0.0,0.0,0.0,0.0,0.0,0.0,0.0,0.0,0.0,0.0,0.0,0.0,0.0,0.0,0.0,0.0,0.0,0.0,0.0,0.0,0.0,0.0,0.0,0.0,0.0,0.0,0.0,0.0,0.0,0.0,0.0,0.0,0.0,0.0,0.0,0.0,0.0,0.0,0.0,0.0,0.0,0.0,0.0,0.0,0.0,0.0,0.0,0.0,0.0,0.0,0.0,0.0,0.0,0.0,0.0,0.0,0.0,0.0,0.0,0.0,0.0,0.0,0.0,0.0,0.0,0.0,0.0,0.0,0.0,0.0,0.0,0.0,0.0,0.0,0.0,0.0,0.0,0.0,0.0,0.0,0.0,0.0,0.0,0.0,0.0,0.0,0.0,0.0,0.0,0.0,0.0,0.0,0.0,0.0,0.0,0.0,0.0,0.0,0.0,0.0,0.0,0.0,0.0,0.0,0.0,0.0,0.0,0.0,0.0,0.0,0.0,0.0,0.0,0.0,0.0,0.0,0.0,0.0,0.0,0.0,0.0,0.0,0.0,0.0,0.0,0.0,0.0,0.0,0.0,0.0,0.0,0.0,0.0,0.0,0.0,0.0,0.0,0.0,0.0,0.0,0.0,0.0,0.0,0.0,0.0,0.0,0.0,0.0,0.0,0.0,0.0,0.0,0.0,0.0,0.0,0.0,0.0,0.0,0.0,0.0,0.0,0.0,0.0,0.0,0.0,0.0,0.0,0.0,0.0,0.0,0.0,0.0,0.0,0.0,0.0,0.0,0.0,0.0,0.0,0.0,0.0,0.0,0.0,0.0,0.0,0.0,0.0,0.0,0.0,0.0,0.0,0.0,0.0,0.0,0.0,0.0,0.0,0.0,0.0,0.0,0.0,0.0,0.0,0.0,0.0,0.0,0.0,0.0,0.0,0.0,0.0,0.0,0.0,0.0,0.0,0.0,0.0,0.0,0.0,0.0,0.0,0.0,0.0,0.0,0.0,0.0,0.0,0.0,0.0,0.0,0.0,0.0,0.0,0.0,0.0,0.0,0.0,0.0,0.0,0.0,0.0,0.0,0.0,0.0,0.0,0.0,0.0,0.0,0.0,0.0,0.0,0.0,0.0,0.0,0.0,0.0,0.0,0.0,0.0,0.0,0.0,0.0,0.0,0.0,0.0,0.0,0.0,0.0,0.0,0.0,0.0,0.0,0.0,0.0,0.0,0.0,0.0,0.0,0.0,0.0,0.0,0.0,0.0,0.0,0.0,0.0,0.0,0.0,0.0,0.0,0.0,0.0,0.0,0.0,0.0,0.0,0.0,0.0,0.0,0.0,0.0,0.0,0.0,0.0,0.0,0.0,0.0,0.0,0.0,0.0,0.0,0.0,0.0,0.0,0.0,0.0,0.0,0.0,0.0,0.0,0.0,0.0,0.0,0.0,0.0,0.0,0.0,0.0,0.0,0.0,0.0,0.0,0.0,0.0,0.0,0.0,0.0,0.0,0.0,0.0,0.0,0.0,0.0,0.0,0.0,0.0,0.0,0.0,0.0,0.0,0.0,0.0,0.0,0.0,0.0,0.0,0.0,0.0,0.0,0.0,0.0,0.0,0.0,0.0,0.0,0.0,0.0,0.0,0.0,0.0,0.0,0.0,0.0,0.0,0.0,0.0,0.0,0.0,0.0,0.0,0.0,0.0,0.0,0.0,0.0,0.0,0.0,0.0,0.0,0.0,0.0,0.0,0.0,0.0,0.0,0.0,0.0,0.0,0.0,0.0,0.0,0.0,0.0,0.0,0.0,0.0,0.0,0.0,0.0,0.0,0.0,0.0,0.0,0.0,0.0,0.0,0.0,0.0,0.0,0.0,0.0,0.0,0.0,0.0,0.0,0.0,0.0,0.0,0.0,0.0,0.0,0.0,0.0,0.0,0.0,0.0,0.0,0.0,0.0,0.0,0.0,0.0,0.0,0.0,0.0,0.0,0.0,0.0,0.0,0.0,0.0,0.0,0.0,0.0,0.0,0.0,0.0,0.0,0.0,0.0,0.0,0.0,0.0,0.0,0.0,0.0,0.0,0.0,0.0,0.0,0.0,0.0,0.0,0.0,0.0,0.0,0.0,0.0,0.0,0.0,0.0,0.0,0.0,0.0,0.0,0.0,0.0,0.0,0.0,0.0,0.0,0.0,0.0,0.0,0.0,0.0,0.0,0.0,0.0,0.0,0.0,0.0,0.0,0.0,0.0,0.0,0.0,0.0,0.0,0.0,0.0,0.0,0.0,0.0,0.0,0.0,0.0,0.0,0.0,0.0,0.0,0.0,0.0,0.0,0.0,0.0,0.0,0.0,0.0,0.0,0.0,0.0,0.0,0.0,0.0,0.0,0.0,0.0,0.0,0.0,0.0,0.0,0.0,0.0,0.0,0.0,0.0,0.0,0.0,0.0,0.0,0.0,0.0,0.0,0.0,0.0,0.0,0.0,0.0,0.0,0.0,0.0,0.0,0.0,0.0,0.0,0.0,0.0,0.0,0.0,0.0,0.0,0.0,0.0,0.0,0.0,0.0,0.0,0.0,0.0,0.0,0.0,0.0,0.0,0.0,0.0,0.0,0.0,0.0,0.0,0.0,0.0,0.0,0.0,0.0,0.0,0.0,0.0,0.0,0.0,0.0,0.0,0.0,0.0,0.0,0.0,0.0,0.0,0.0,0.0,0.0,0.0,0.0,0.0,0.0,0.0,0.0,0.0,0.0,0.0,0.0,0.0,0.0,0.0,0.0,0.0,0.0,0.0,0.0,0.0,0.0,0.0,0.0,0.0,0.0,0.0,0.0,0.0,0.0,0.0,0.0,0.0,0.0,0.0,0.0,0.0,0.0,0.0,0.0,0.0,0.0,0.0,0.0,0.0,0.0,0.0,0.0,0.0,0.0,0.0,0.0,0.0,0.0,0.0,0.0,0.0,0.0,0.0,0.0,0.0,0.0,0.0,0.0,0.0,0.0,0.0,0.0,0.0,0.0,0.0,0.0,0.0,0.0,0.0,0.0,0.0,0.0,0.0,0.0,0.0,0.0,0.0,0.0,0.0,0.0,0.0,0.0,0.0,0.0,0.0,0.0,0.0,0.0,0.0,0.0,0.0,0.0,0.0,0.0,0.0,0.0,0.0,0.0,0.0,0.0,0.0,0.0,0.0,0.0,0.0,0.0,0.0,0.0,0.0,0.0,0.0,0.0,0.0,0.0,0.0,0.0,0.0,0.0,0.0,0.0,0.0,0.0,0.0,0.0,0.0,0.0,0.0,0.0,0.0,0.0,0.0,0.0,0.0,0.0,0.0,0.0,0.0,0.0,0.0,0.0,0.0,0.0,0.0,0.0,0.0,0.0,0.0,0.0,0.0,0.0,0.0,0.0,0.0,0.0,0.0,0.0,0.0,0.0,0.0,0.0,0.0,0.0,0.0,0.0,0.0,0.0,0.0,0.0,0.0,0.0,0.0,0.0,0.0,0.0,0.0,0.0,0.0,0.0,0.0,0.0,0.0,0.0,0.0,0.0,0.0,0.0,0.0,0.0,0.0,0.0,0.0,0.0,0.0,0.0,0.0,0.0,0.0,-1.3877,0.0,0.0,0.0,0.0,0.0,0.0,0.0,0.0,0.0,0.0,0.0,0.0,0.0,0.0,0.0,0.0,0.0,0.0,0.0,0.0,0.0,0.0,0.0,0.0,-1.2786,-1.2279,-1.2279,-1.1477,-1.0989,-1.0989,0.0,0.0,0.0,0.0,0.0,-1.0305,-1.0305,-1.0305,-1.0305,-1.1165,-1.2231,-1.3439,-1.4281,-1.489,-1.5255,0.0,0.0,0.0,0.0,0.0,0.0,0.0,0.0,0.0,0.0,0.0,0.0,0.0,0.0,0.0,0.0,0.0,0.0,0.0,0.0,0.0,0.0,0.0,0.0,0.0,0.0,0.0,0.0,0.0,0.0,0.0,0.0,0.0,0.0,0.0,0.0,0.0,0.0,0.0,0.0,0.0,0.0,0.0,0.0,0.0,0.0,0.0,0.0,0.0,0.0,0.0,0.0,0.0,0.0,0.0,0.0,0.0,0.0,0.0,0.0,0.0,0.0,0.0,0.0,0.0,0.0,0.0,0.0,0.0,0.0,0.0,-1.3768,0.0,0.0,0.0,0.0,0.0,0.0,0.0,0.0,0.0,0.0,0.0,0.0,0.0,0.0,0.0,0.0,0.0,0.0,0.0,0.0,0.0,-1.3586,-1.2767,-1.1908,-1.1362,-1.1362,-1.0719,-1.0309,-1.0309,-1.0309,-1.0309,-1.0307,-1.0307,-1.0307,-1.0305,-1.0305,-1.0364,-1.0539,-1.1848,-1.3289,-1.4802,-1.583,-1.6286,-1.6204,-1.573,0.0,0.0,0.0,0.0,0.0,0.0,0.0,0.0,0.0,0.0,0.0,0.0,0.0,0.0,0.0,0.0,0.0,0.0,0.0,0.0,0.0,0.0,0.0,0.0,0.0,0.0,0.0,0.0,0.0,0.0,0.0,0.0,0.0,0.0,0.0,0.0,0.0,0.0,0.0,0.0,0.0,0.0,0.0,0.0,0.0,0.0,0.0,0.0,0.0,0.0,0.0,0.0,0.0,0.0,0.0,0.0,0.0,0.0,0.0,0.0,0.0,0.0,0.0,-1.4795,-1.5124,-1.54,-1.5682,-1.5913,-1.6019,-1.4607,-1.3927,-1.3792,-1.3792,0.0,0.0,0.0,0.0,0.0,0.0,0.0,0.0,0.0,0.0,0.0,0.0,0.0,0.0,0.0,0.0,0.0,0.0,0.0,-1.2728,-1.1868,-1.0994,-1.0469,-1.0469,-1.037,-1.0308,-1.0308,-1.0308,-1.0291,-1.0293,-1.0293,-1.0292,-1.0305,-1.0305,-1.0676,-1.1438,-1.4522,-1.6538,-1.7519,-1.9153,-1.9906,-1.9806,-1.7477,-1.7274,-1.8549,0.0,0.0,0.0,0.0,0.0,0.0,0.0,0.0,0.0,0.0,0.0,0.0,0.0,0.0,0.0,0.0,0.0,0.0,0.0,0.0,0.0,0.0,0.0,0.0,0.0,0.0,0.0,0.0,0.0,0.0,0.0,0.0,0.0,0.0,0.0,0.0,0.0,0.0,0.0,0.0,0.0,-1.4053,-1.47,0.0,0.0,0.0,0.0,0.0,0.0,0.0,0.0,0.0,0.0,0.0,0.0,0.0,-1.4298,-1.4699,-1.4806,-1.5436,-1.6565,-1.6011,-1.6459,-1.7711,-1.6467,-1.6234,-1.6812,-1.5968,0.0,-1.4547,-1.4547,0.0,0.0,0.0,0.0,0.0,0.0,0.0,0.0,0.0,0.0,0.0,0.0,0.0,0.0,0.0,0.0,0.0,0.0,0.0,0.0,0.0,-1.1191,-1.1171,-1.1656,-1.2157,-1.2017,-1.1045,-1.1435,-1.1281,-1.0349,-1.029,-1.0292,-1.0293,-1.0293,-1.1425,-1.3748,-1.6211,-1.8105,-1.9433,-2.0737,-2.1335,-2.1275,-2.0069,-1.9137,-1.8361,-1.6726,0.0,0.0,0.0,0.0,0.0,0.0,0.0,0.0,0.0,0.0,0.0,0.0,0.0,0.0,0.0,0.0,0.0,0.0,0.0,0.0,0.0,0.0,0.0,0.0,0.0,0.0,0.0,0.0,0.0,0.0,0.0,0.0,0.0,0.0,0.0,0.0,0.0,0.0,0.0,-1.4299,-1.4434,-1.4194,-1.4954,-1.5497,0.0,0.0,0.0,0.0,0.0,0.0,0.0,0.0,0.0,-1.4194,-1.4641,-1.5253,-1.6038,-1.6093,-1.6647,-1.7673,-1.7759,-1.8155,-1.8803,-1.8551,-1.8603,-1.8879,-1.8121,-1.738,-1.6568,-1.527,-1.4942,-1.5214,0.0,0.0,0.0,0.0,-1.5634,-1.5279,0.0,0.0,0.0,0.0,0.0,0.0,0.0,0.0,0.0,0.0,0.0,0.0,-1.2226,-1.236,-1.2764,-1.3416,-1.4048,-1.3772,-1.2261,-1.2336,-1.189,-1.0651,-1.0398,-1.0283,-1.0305,-1.0949,-1.2837,-1.6048,-1.8004,-1.9822,-2.1496,-2.2439,-2.288,-2.2863,-2.2586,-2.1251,-1.9127,-1.7597,-1.6686,-1.6237,0.0,0.0,0.0,0.0,0.0,0.0,0.0,0.0,0.0,0.0,0.0,0.0,0.0,0.0,0.0,0.0,0.0,0.0,0.0,0.0,0.0,0.0,0.0,0.0,0.0,0.0,0.0,0.0,0.0,0.0,0.0,0.0,0.0,0.0,0.0,0.0,0.0,-1.4508,-1.4509,-1.3954,-1.4647,-1.515,0.0,0.0,0.0,0.0,0.0,0.0,-1.5015,-1.4968,-1.4991,-1.514,-1.562,-1.6427,-1.7587,-1.7587,-1.8086,-1.9062,-1.9424,-1.9786,-2.0182,-2.0325,-2.0515,-2.0653,-1.9912,-1.9269,-1.8597,-1.6306,-1.5648,-1.6041,-1.5644,-1.554,-1.5695,-1.6265,-1.6107,-1.5646,0.0,0.0,0.0,0.0,0.0,0.0,0.0,0.0,0.0,0.0,0.0,-1.3105,-1.3885,-1.4704,-1.5222,-1.526,-1.5258,-1.4873,-1.4024,-1.2408,-1.1464,-1.1449,-1.0657,-1.0237,-1.0305,-1.2665,-1.5189,-1.7772,-2.0346,-2.2473,-2.4128,-2.5078,-2.5503,-2.5469,-2.4645,-2.374,-2.2621,-1.9265,-1.8299,-1.8786,-1.6297,0.0,0.0,0.0,0.0,0.0,0.0,0.0,0.0,0.0,0.0,0.0,0.0,0.0,0.0,0.0,0.0,0.0,0.0,0.0,0.0,0.0,0.0,0.0,0.0,0.0,0.0,0.0,0.0,0.0,0.0,0.0,0.0,0.0,0.0,0.0,0.0,0.0,0.0,-1.457,-1.5362,0.0,0.0,0.0,0.0,-1.5716,-1.5286,-1.5019,-1.5003,-1.5523,-1.6148,-1.6844,-1.6912,-1.7645,-1.9183,-1.9171,-1.9941,-2.1423,-2.0699,-2.1101,-2.2474,-2.1049,-2.082,-2.1492,-2.0699,-2.0325,-2.0119,-1.7828,-1.6868,-1.6845,-1.6804,-1.7237,-1.7834,-1.7808,-1.7769,-1.7741,0.0,0.0,0.0,0.0,0.0,-1.5308,-1.5388,-1.514,-1.4735,-1.4178,-1.4316,-1.478,-1.5617,-1.6454,-1.7176,-1.7732,-1.7719,-1.6861,-1.4922,-1.3713,-1.284,-1.23,-1.0938,-1.0738,-1.1874,-1.4416,-1.6951,-1.9519,-2.1568,-2.3449,-2.5137,-2.5482,-2.5644,-2.5625,-2.5366,-2.4752,-2.3754,-2.0861,-1.916,-1.8301,-1.6796,-1.5866,0.0,0.0,0.0,0.0,0.0,0.0,0.0,0.0,0.0,0.0,0.0,0.0,0.0,0.0,0.0,0.0,0.0,0.0,0.0,0.0,0.0,0.0,0.0,0.0,0.0,0.0,0.0,0.0,0.0,0.0,0.0,0.0,0.0,0.0,0.0,0.0,0.0,-1.5442,-1.6179,0.0,-1.638,-1.6319,-1.6189,-1.5967,-1.6009,-1.604,-1.6091,-1.6995,-1.7755,-1.8278,-1.8751,-1.9566,-2.0768,-2.0768,-2.1285,-2.2302,-2.2026,-2.2164,-2.2681,-2.213,-2.2044,-2.2268,-2.1492,-2.1165,-2.1061,-1.974,-1.8885,-1.834,-1.735,-1.7116,-1.7405,-1.786,-1.7999,-1.8012,0.0,0.0,0.0,0.0,0.0,-1.5318,-1.5398,-1.5148,-1.4859,-1.457,-1.5291,-1.6255,-1.7368,-1.8695,-1.9644,-1.9948,-1.9635,-1.8323,-1.5794,-1.4328,-1.3189,-1.2333,-1.1505,-1.1883,-1.3602,-1.6169,-1.8729,-2.1283,-2.2721,-2.4183,-2.5602,-2.5613,-2.5624,-2.5644,-2.5678,-2.5376,-2.471,-2.272,-2.071,-1.8778,-1.7616,-1.6966,-1.661,0.0,0.0,0.0,0.0,0.0,0.0,0.0,0.0,0.0,0.0,0.0,0.0,0.0,0.0,0.0,0.0,0.0,0.0,0.0,0.0,0.0,0.0,0.0,0.0,0.0,0.0,0.0,0.0,0.0,0.0,0.0,0.0,0.0,0.0,0.0,-1.6401,-1.6687,-1.7386,-1.7721,-1.7442,-1.7371,-1.7199,-1.6895,-1.7267,-1.7526,-1.7556,-1.8537,-1.9314,-1.9862,-2.035,-2.1049,-2.1957,-2.1957,-2.2216,-2.2699,-2.2699,-2.2699,-2.2699,-2.2699,-2.2699,-2.2664,-2.2181,-2.1957,-2.1923,-2.1406,-2.0889,-2.0303,-1.8741,-1.8,-1.7817,-1.8302,-1.843,-1.8471,0.0,0.0,0.0,0.0,0.0,-1.533,-1.5399,-1.4679,-1.4448,-1.5293,-1.6202,-1.7409,-1.9064,-2.1457,-2.2607,-2.1768,-2.0753,-1.9111,-1.6618,-1.4077,-1.2312,-1.156,-1.2442,-1.3739,-1.5385,-1.795,-2.0507,-2.3037,-2.3898,-2.474,-2.56,-2.5673,-2.5703,-2.5703,-2.5699,-2.5691,-2.5648,-2.4808,-2.2993,-2.0574,-1.8817,-1.8582,-1.9029,0.0,0.0,0.0,0.0,0.0,0.0,0.0,0.0,0.0,0.0,0.0,0.0,0.0,0.0,0.0,0.0,0.0,0.0,0.0,0.0,0.0,0.0,0.0,0.0,0.0,0.0,0.0,0.0,0.0,0.0,0.0,0.0,0.0,-1.6107,-1.6726,-1.746,-1.8276,-1.8952,-1.9295,-1.91,-1.8923,-1.873,-1.8465,-1.899,-1.935,-1.9361,-2.0055,-2.0825,-2.1613,-2.163,-2.1975,-2.2699,-2.2699,-2.2699,-2.2699,-2.2699,-2.2699,-2.2699,-2.2699,-2.2699,-2.2699,-2.2699,-2.2699,-2.2699,-2.2699,-2.2699,-2.2543,-2.1032,-1.9998,-1.9361,-1.9327,-1.9304,-1.9293,0.0,0.0,0.0,-1.5293,-1.5341,-1.5377,-1.54,-1.5207,-1.5134,-1.5368,-1.7213,-1.8928,-2.0025,-2.2317,-2.3192,-2.1749,-2.0173,-1.8175,-1.5645,-1.3155,-1.1933,-1.236,-1.5024,-1.7012,-1.8091,-2.001,-2.1989,-2.3944,-2.4188,-2.4718,-2.554,-2.5603,-2.5631,-2.5633,-2.5681,-2.5708,-2.5687,-2.5434,-2.4574,-2.3208,-2.1509,-2.0202,-1.9224,0.0,0.0,0.0,0.0,0.0,0.0,0.0,0.0,0.0,0.0,0.0,0.0,0.0,0.0,0.0,0.0,0.0,0.0,0.0,0.0,0.0,0.0,0.0,0.0,0.0,0.0,0.0,0.0,0.0,0.0,0.0,0.0,-1.6787,-1.6825,-1.7899,-1.8985,-1.9795,-2.0448,-2.0735,-2.0544,-2.0139,-1.9797,-1.9587,-1.9976,-2.0357,-2.0594,-2.13,-2.192,-2.2388,-2.2406,-2.2492,-2.2699,-2.2699,-2.2699,-2.2699,-2.2699,-2.2699,-2.2699,-2.2699,-2.2699,-2.2699,-2.2699,-2.2699,-2.2699,-2.2699,-2.2699,-2.2595,-2.1647,-2.1147,-2.1027,-2.1548,-2.1713,-2.1558,0.0,0.0,0.0,-1.5289,-1.5369,-1.5407,-1.5401,-1.5402,-1.5408,-1.5404,-1.7622,-1.9396,-1.9897,-2.1814,-2.2527,-2.1211,-1.913,-1.6968,-1.4747,-1.293,-1.2472,-1.3698,-1.6749,-1.8974,-2.0218,-2.1912,-2.3464,-2.4839,-2.4836,-2.5081,-2.5538,-2.558,-2.5609,-2.5638,-2.568,-2.5707,-2.5726,-2.6097,-2.5941,-2.5395,-2.4438,-2.2993,-2.1313,-2.0212,-1.963,-1.9281,-1.8512,-1.7996,-1.7557,-1.6602,0.0,0.0,0.0,0.0,0.0,0.0,0.0,0.0,0.0,0.0,0.0,0.0,0.0,0.0,0.0,0.0,0.0,0.0,0.0,0.0,0.0,0.0,0.0,0.0,-1.7979,-1.8774,-1.9464,-2.031,-2.0981,-2.1343,-2.2268,-2.2648,-2.1994,-2.1651,-2.1325,-2.0936,-2.0975,-2.1177,-2.1549,-2.181,-2.2179,-2.2681,-2.2699,-2.2699,-2.2699,-2.2699,-2.2699,-2.2699,-2.2699,-2.2699,-2.2699,-2.2699,-2.2699,-2.2699,-2.2699,-2.2699,-2.2699,-2.2699,-2.2699,0.0,0.0,0.0,0.0,0.0,-2.2479,-2.2147,0.0,0.0,0.0,-1.5293,-1.536,-1.5396,-1.5401,-1.5402,-1.5408,-1.5404,-1.7524,-1.9046,-1.9044,-2.041,-2.0985,-2.0174,-1.7724,-1.5504,-1.3877,-1.3188,-1.3684,-1.5555,-1.8042,-2.0208,-2.1955,-2.36,-2.4835,-2.5599,-2.5595,-2.5607,-2.5595,-2.5593,-2.5636,-2.5683,-2.5698,-2.5748,-2.5902,-2.6664,-2.7055,-2.7133,-2.7035,-2.6019,-2.4281,-2.194,-2.1823,-2.2757,-2.1206,-2.014,-1.9312,-1.8293,0.0,0.0,0.0,0.0,0.0,0.0,0.0,0.0,0.0,0.0,0.0,0.0,0.0,0.0,0.0,0.0,0.0,0.0,0.0,0.0,0.0,0.0,0.0,0.0,-1.9405,-2.141,-2.3153,-2.3483,-2.3407,-2.3053,-2.4162,-2.4507,-2.3332,-2.298,-2.2652,-2.2234,-2.1681,-2.1571,-2.2012,0.0,0.0,0.0,0.0,-2.2655,-2.2699,-2.2699,-2.2699,-2.2699,-2.2699,-2.2699,-2.2699,-2.2699,-2.2699,-2.2699,-2.2699,-2.275,-2.2819,-2.2819,-2.2923,-2.3129,-2.3612,-2.3457,-2.2957,-2.2957,-2.2595,-2.2181,0.0,0.0,0.0,-1.5291,-1.536,-1.5396,-1.5401,-1.5402,-1.5408,-1.5404,-1.7017,-1.8151,-1.8148,-1.9007,-1.9234,-1.8379,-1.5909,-1.3985,-1.2992,-1.3446,-1.511,-1.8218,-2.0179,-2.2014,-2.3761,-2.4818,-2.5423,-2.5595,-2.5598,-2.5607,-2.5599,-2.5593,-2.5611,-2.5615,-2.5683,-2.609,-2.6762,-2.6938,-2.7406,-2.7991,-2.7289,-2.6372,-2.5317,-2.4125,-2.3032,-2.2074,-2.1691,-2.1416,-2.0973,-1.9384,-1.917,-1.9172,-1.6888,-1.6154,0.0,0.0,0.0,0.0,0.0,0.0,0.0,0.0,0.0,0.0,0.0,0.0,0.0,0.0,0.0,0.0,0.0,0.0,0.0,-2.0618,-2.1884,-2.3318,-2.5574,-2.6465,-2.6527,-2.5606,-2.5008,-2.4498,-2.4032,-2.2278,-2.1437,-2.2158,-2.0841,-2.0284,-2.0944,-2.1123,-2.1287,-2.1479,-2.2,-2.2433,-2.2699,-2.2699,-2.2699,-2.2699,0.0,0.0,-2.2699,-2.2699,-2.2699,-2.2699,-2.2699,-2.3043,-2.3595,-2.3595,-2.4319,-2.5335,-2.4232,-2.4112,-2.4557,-2.4557,-2.485,-2.5163,0.0,0.0,0.0,-1.5287,-1.5329,-1.5367,-1.5381,-1.5402,-1.5407,-1.5409,-1.6519,-1.7289,-1.7242,-1.7255,-1.7062,-1.6586,-1.4196,-1.2879,-1.3322,-1.4536,-1.6796,-2.0258,-2.2031,-2.3578,-2.4918,-2.5385,-2.5601,-2.5601,-2.5601,-2.5601,-2.5601,-2.56,-2.5602,-2.5591,-2.5662,-2.6189,-2.6996,-2.6996,-2.7757,-2.8869,-2.8007,-2.7381,-2.6854,-2.5547,-2.4502,-2.3798,-2.4172,-2.3439,-2.2167,-2.1291,-2.0392,-1.9352,-1.7635,-1.6798,-1.6282,0.0,0.0,0.0,0.0,0.0,0.0,0.0,0.0,0.0,0.0,0.0,0.0,0.0,0.0,-1.7759,-1.7587,0.0,-2.0891,-2.2353,-2.3842,-2.5354,-2.6979,-2.7778,-2.7506,-2.5625,-2.5321,-2.4638,-2.3062,-2.1832,-2.1292,-2.1617,-2.0636,-2.0432,-2.1404,-2.1396,-2.1524,-2.1943,-2.2289,-2.2531,-2.2699,-2.2699,-2.2699,-2.2699,-2.2699,-2.2699,-2.2699,-2.2699,-2.2699,-2.2699,-2.2699,-2.3129,-2.3836,-2.4232,-2.4853,-2.5471,-2.4698,-2.487,-2.5471,-2.4681,-2.4629,-2.4956,0.0,0.0,0.0,-1.5035,-1.5057,-1.5138,-1.5356,-1.5399,-1.5346,-1.5176,-1.5762,-1.611,-1.5886,-1.5122,-1.4549,-1.4327,-1.273,-1.2466,-1.4142,-1.582,-1.8326,-2.1795,-2.3418,-2.4652,-2.5579,-2.5601,-2.5601,-2.5601,-2.5593,-2.5599,-2.5599,-2.5593,-2.5611,-2.5635,-2.5858,-2.6443,-2.7248,-2.7249,-2.8146,-2.9491,-2.8468,-2.8055,-2.7861,-2.6274,-2.5646,-2.5664,-2.6149,-2.4839,-2.2856,-2.2691,-2.1127,-1.9084,-1.8299,-1.7439,-1.6554,-1.5696,-1.5315,0.0,0.0,0.0,0.0,0.0,0.0,0.0,0.0,0.0,-1.723,-1.7249,-1.9087,-2.0389,-1.9394,-2.1644,-2.3652,-2.3638,-2.5436,-2.7108,-2.7915,-2.8105,-2.7332,-2.5124,-2.5402,-2.4734,-2.1992,-2.1546,-2.134,-2.1123,-2.0437,-2.0598,-2.1932,-2.1541,-2.1623,-2.2374,-2.2533,-2.2628,-2.2699,-2.2699,-2.2699,-2.2699,-2.2699,-2.2699,-2.2699,-2.2699,-2.2699,-2.2699,-2.2854,-2.3336,-2.4095,-2.4902,-2.5316,-2.5436,-2.5281,-2.5505,-2.5747,-2.4491,-2.4026,-2.4146,0.0,0.0,0.0,0.0,0.0,-1.4483,-1.5192,-1.5366,-1.5128,-1.4355,-1.4336,-1.4081,-1.3306,-1.2446,-1.1623,-1.0831,-1.1936,-1.3364,-1.5031,-1.6775,-1.9262,-2.2704,-2.3786,-2.4699,-2.5582,-2.5601,-2.5601,-2.5601,-2.5593,-2.5593,-2.5595,-2.5593,-2.5636,-2.5722,-2.6504,-2.734,-2.8155,-2.8158,-2.8682,-2.9379,-2.7777,-2.7149,-2.7022,-2.5946,-2.5542,-2.551,-2.482,-2.3815,-2.2705,-2.1994,-2.1001,-1.9926,-1.9126,-1.8273,-1.738,-1.6522,-1.5725,-1.5079,-1.4983,-1.5098,-1.5223,-1.5281,-1.5886,-1.666,0.0,0.0,-1.9873,-1.9873,-2.1053,-2.1789,-2.0835,-2.261,-2.4413,-2.5048,-2.656,-2.7952,-2.8748,-2.7531,-2.6349,-2.5822,-2.5582,-2.4597,-2.244,-2.1359,-2.0904,-2.1166,-1.96,-1.9411,-2.1217,-2.059,-2.0552,-2.1338,-2.1939,-2.2405,-2.2699,-2.2699,-2.2699,-2.2699,-2.2699,-2.2699,-2.2699,-2.2699,-2.2699,-2.2733,-2.3388,-2.4129,-2.4919,-2.5663,-2.6402,-2.6971,-2.6264,-2.5643,-2.5109,-2.4936,-2.4867,-2.4971,0.0,0.0,0.0,0.0,0.0,-1.4863,-1.5244,-1.532,-1.5049,-1.4217,-1.454,-1.4334,-1.2948,-1.2027,-1.1146,-1.0285,-1.0905,-1.2481,-1.5188,-1.6998,-1.9461,-2.2845,-2.4312,-2.5229,-2.5593,-2.56,-2.5591,-2.5591,-2.5606,-2.5593,-2.5594,-2.5605,-2.5638,-2.5723,-2.6074,-2.6734,-2.7531,-2.7532,-2.8037,-2.8733,-2.8005,-2.7363,-2.6731,-2.5328,-2.4133,-2.3234,-2.3382,-2.1845,0.0,-2.0022,-1.9149,-1.8037,-1.8239,-1.7671,-1.6765,-1.5907,-1.5383,-1.5114,-1.5195,-1.5608,0.0,0.0,-1.8221,-1.9103,-1.9971,-2.1376,-2.2239,-2.1262,-2.2925,-2.4293,-2.3393,-2.5028,-2.6607,0.0,-2.7808,-2.8448,-2.8319,-2.7004,-2.5529,-2.403,-2.3457,-2.2622,-2.1151,-2.0717,-2.0531,-2.0552,-2.0378,-2.0798,-2.2004,-2.1751,-2.1734,-2.2055,-2.2333,-2.2561,-2.2699,-2.2699,-2.2699,-2.2699,-2.2699,-2.2699,-2.2699,-2.2699,-2.2699,-2.2767,-2.3974,-2.4695,-2.5092,-2.6299,-2.7006,-2.7213,-2.6419,-2.5904,-2.554,-2.4629,-2.4026,-2.3767,0.0,0.0,0.0,0.0,0.0,-1.4552,-1.4876,-1.4935,-1.473,-1.4159,-1.4422,-1.4207,-1.2946,-1.1816,-1.0996,-1.0586,-1.0604,-1.1891,-1.4858,-1.6886,-1.9277,-2.218,-2.4213,-2.5269,-2.5265,-2.5483,-2.5609,-2.5609,-2.5615,-2.5636,-2.5636,-2.5621,-2.5644,-2.5701,-2.5954,-2.6415,-2.6999,-2.6999,-2.7347,-2.7886,-2.7573,-2.677,-2.5629,-2.4355,-2.2456,-2.0523,-2.1151,-1.9587,-1.7316,-1.7984,-1.7366,-1.6505,-1.7423,-1.7112,-1.6272,-1.5638,-1.5296,-1.518,-1.5523,0.0,0.0,-1.8827,-2.0019,-2.1057,-2.1902,-2.3324,-2.4107,-2.287,-2.4846,-2.6325,-2.478,-2.6438,-2.7773,-2.7076,-2.7727,-2.8062,-2.7247,-2.5672,-2.4055,-2.255,-2.1166,-2.0185,-1.9818,-2.0269,-2.0448,-2.0111,-2.096,-2.1812,-2.2664,-2.2509,-2.2492,-2.2699,-2.2699,-2.2699,-2.2699,-2.2699,-2.2699,-2.2699,-2.2699,-2.2699,-2.2699,-2.2699,-2.2699,-2.275,-2.3871,-2.4488,-2.4767,-2.6109,-2.6782,-2.6937,-2.6575,-2.6299,-2.5956,-2.4853,-2.3974,-2.344,0.0,0.0,0.0,0.0,0.0,-1.2896,-1.3804,-1.4008,-1.4035,-1.4002,-1.3345,-1.2852,-1.2814,-1.1334,-1.0636,-1.1383,-1.1464,-1.2226,-1.4018,-1.6493,-1.8696,-2.0491,-2.3069,-2.4436,-2.4435,-2.5198,-2.5609,-2.5609,-2.5662,-2.5703,-2.5703,-2.5694,-2.5702,-2.574,-2.6571,-2.6971,-2.6998,-2.7002,-2.6977,-2.6864,-2.5957,-2.4585,-2.3094,-2.2913,-2.0747,-1.7806,-1.7769,-1.7095,-1.6231,-1.62,-1.6193,-1.6362,-1.7234,-1.7007,-1.639,-1.6371,-1.5753,-1.5306,-1.6226,0.0,-1.7987,-1.8964,-2.0431,-2.1861,-2.2682,-2.4161,-2.5327,-2.5211,-2.6814,-2.7279,-2.4125,-2.5885,-2.7027,-2.4695,-2.564,-2.6392,-2.5595,-2.3085,-2.1586,-2.2232,-1.9237,-1.7614,0.0,-2.0242,-2.0801,-2.0162,-2.0729,-2.1581,-2.2634,-2.2009,-2.1957,-2.2681,-2.2699,-2.2699,-2.2699,-2.2699,-2.2699,-2.2699,-2.2699,-2.2699,-2.2699,-2.2699,-2.2699,-2.2699,-2.275,-2.3181,-2.3905,-2.4732,-2.5505,-2.6197,-2.6971,-2.6782,-2.6094,-2.6042,-2.556,-2.504,0.0,0.0,0.0,0.0,0.0,0.0,-1.2918,-1.3513,-1.3724,-1.3155,-1.1912,0.0,0.0,0.0,0.0,0.0,-1.1725,-1.2862,-1.4018,-1.5992,-1.7616,-1.8787,-2.0781,-2.1855,-2.1815,-2.2636,-2.3357,-2.394,-2.3957,-2.3974,-2.399,-2.4565,-2.4833,-2.4871,-2.5749,-2.6131,-2.618,-2.6745,-2.6299,-2.5097,-2.4195,-2.3096,-2.1629,-1.8258,-1.6849,-1.6407,0.0,-1.3838,-1.4515,-1.4402,-1.4411,-1.4623,-1.5459,-1.5595,-1.559,-1.622,-1.6637,-1.7087,-1.7987,0.0,-2.16,-2.3077,-2.4316,-2.5365,-2.6178,-2.6718,-2.6569,-2.4854,-2.4896,-2.4736,-2.3023,-2.2916,-2.3353,-2.4137,-2.4679,-2.4866,-2.4462,-2.345,-2.1996,-2.0018,-1.9028,0.0,0.0,0.0,0.0,-2.0077,-2.0918,-2.1799,-2.2664,-2.2923,-2.2957,-2.2699,-2.3681,-2.3974,-2.344,-2.3957,-2.3957,-2.3422,-2.294,-2.2699,-2.2699,-2.2699,-2.2699,-2.2733,-2.3216,-2.3578,-2.3871,-2.4678,-2.5422,-2.6143,-2.6402,-2.6661,-2.6902,-2.6902,-2.6402,-2.5712,0.0,0.0,0.0,0.0,0.0,0.0,0.0,0.0,0.0,0.0,0.0,0.0,0.0,0.0,0.0,0.0,0.0,-1.2845,-1.4016,-1.5443,-1.6624,-1.7496,-1.8911,-1.9653,-1.9606,-2.0163,-2.0565,-2.0815,-2.113,-2.1111,-2.0834,-2.1708,-2.2271,-2.2603,-2.3148,-2.3553,-2.3857,-2.411,-2.3546,-2.2396,-2.1493,-2.0573,-1.9356,-1.6045,-1.5184,0.0,-1.3201,-1.3109,-1.3991,-1.3561,-1.3704,-1.4122,-1.4639,-1.5127,-1.5625,-1.626,-1.7292,-1.8429,0.0,-2.1493,-2.3808,-2.5241,-2.6256,-2.7034,-2.7527,-2.6854,-2.564,-2.3942,-2.3186,-2.2443,-2.1234,-2.0889,-2.109,-2.2006,-2.2357,-2.2556,-2.2665,-2.195,-2.0904,-1.96,-1.9133,-1.8734,0.0,0.0,0.0,-2.0184,-2.1571,-2.2595,-2.3078,-2.3819,-2.4008,-2.3543,-2.4488,-2.4749,-2.4232,-2.4747,-2.4594,-2.3788,-2.3319,-2.2957,-2.2699,-2.2699,-2.2699,-2.2733,-2.3198,-2.3422,-2.3505,-2.4667,-2.5366,-2.5764,-2.642,-2.6924,-2.7299,-2.7299,-2.6843,-2.616,0.0,0.0,0.0,0.0,0.0,0.0,0.0,0.0,0.0,0.0,0.0,0.0,0.0,0.0,0.0,0.0,0.0,0.0,-1.3926,-1.483,-1.5692,-1.6529,-1.7355,-1.7807,-1.7807,-1.7791,-1.7404,-1.6624,-1.7462,-1.7443,-1.6644,-1.7534,-1.8369,-1.9167,-1.9139,-1.9583,-2.0303,-1.9484,-1.9121,-1.9035,-1.8058,-1.7195,-1.6454,-1.6082,-1.5506,-1.4871,-1.4652,-1.4627,-1.4556,-1.3671,-1.4034,-1.4874,-1.4887,-1.5632,-1.6559,-1.6666,-1.7914,-1.9493,-2.048,-2.2618,-2.4756,-2.5541,-2.638,-2.6989,-2.6789,-2.4786,-2.2893,-2.2637,-2.179,-2.0588,0.0,0.0,-2.0219,-1.8631,-1.8992,-1.973,-2.0456,-1.898,-1.8655,0.0,0.0,0.0,0.0,0.0,0.0,-2.0591,0.0,-2.3798,-2.3867,-2.4626,-2.5054,-2.502,-2.5074,-2.5092,-2.5057,-2.5072,-2.4675,-2.3884,-2.3912,-2.3511,-2.2751,-2.2759,-2.2759,-2.2751,-2.2725,-2.2725,-2.2868,-2.4633,-2.5226,-2.5216,-2.695,-2.7519,-2.7345,-2.733,-2.6981,-2.6489,0.0,0.0,0.0,0.0,0.0,0.0,0.0,0.0,0.0,0.0,0.0,0.0,0.0,0.0,0.0,0.0,0.0,0.0,-1.3029,-1.387,-1.4452,-1.4673,-1.4902,-1.5027,-1.5027,-1.503,-1.5239,-1.5656,-1.5933,-1.5957,-1.575,-1.6623,-1.7148,-1.7382,-1.7972,-1.8355,-1.8548,-1.8335,-1.8179,-1.794,-1.6463,-1.6079,-1.6138,-1.3472,-1.3444,-1.4634,-1.3249,-1.3521,-1.4532,-1.4389,0.0,0.0,-1.5962,-1.7032,-1.8413,-1.9176,-2.1094,-2.3155,-2.4044,-2.6193,-2.8062,-2.7637,-2.8193,-2.832,-2.6342,-2.4859,-2.3318,-2.1372,-2.0236,-1.9235,0.0,0.0,0.0,-1.922,-1.9358,0.0,-2.1061,-2.1117,0.0,-2.1642,0.0,-2.1777,-2.2183,-2.2794,0.0,0.0,-2.3141,-2.3628,-2.4792,-2.5608,-2.5765,-2.5174,-2.6212,-2.6511,-2.5903,-2.6095,-2.5764,-2.4919,-2.523,-2.4607,-2.323,-2.3694,-2.3648,-2.3212,-2.306,-2.3084,-2.3295,-2.4372,-2.5123,-2.5676,-2.6542,-2.7292,-2.7869,-2.7672,-2.7296,-2.6854,0.0,0.0,0.0,0.0,0.0,0.0,0.0,0.0,0.0,0.0,0.0,0.0,0.0,0.0,0.0,0.0,0.0,0.0,0.0,-1.3166,-1.3607,-1.3977,-1.3635,-1.3618,-1.3981,-1.3247,-1.2914,-1.3021,-1.309,-1.2924,-1.2562,-1.3438,-1.4041,-1.441,-1.525,-1.5827,-1.6196,-1.6191,-1.6128,0.0,0.0,-1.454,-1.5047,-1.3056,-1.3334,-1.4658,-1.3625,-1.3852,0.0,0.0,0.0,-1.6933,-1.7423,-1.8733,-2.0279,-2.1252,0.0,-2.506,-2.5972,-2.7823,-2.9378,-2.8886,-2.8553,-2.7878,-2.6018,-2.3733,-2.16,-2.0174,-1.8867,0.0,-1.8242,0.0,0.0,0.0,0.0,0.0,-2.033,-2.0613,-2.1274,0.0,-2.2923,0.0,-2.3824,-2.4449,-2.4958,0.0,-2.4777,-2.4809,-2.5683,-2.6449,-2.6675,-2.6223,-2.7016,-2.7243,-2.6775,-2.7011,-2.6708,-2.592,-2.6241,-2.5732,-2.4515,-2.486,-2.4824,-2.4486,0.0,-2.439,-2.4563,-2.5452,-2.6026,-2.6402,-2.7179,-2.7732,-2.8088,-2.794,-2.7584,-2.7238,0.0,0.0,0.0,0.0,0.0,0.0,0.0,0.0,0.0,0.0,-1.1065,-1.0856,0.0,0.0,0.0,0.0,0.0,0.0,0.0,0.0,-1.2903,-1.3782,-1.3097,-1.303,-1.3795,-1.2213,-1.1015,-1.0277,-1.0219,-0.9803,-0.9085,-0.9846,-1.0625,-1.1422,-1.2181,-1.3008,-1.3807,-1.3805,-1.3834,-1.3822,-1.3061,-1.3242,-1.3959,0.0,-1.4256,-1.4808,-1.4734,-1.479,0.0,0.0,-1.7048,-1.805,-1.8995,-2.0513,-2.2141,-2.3057,-2.4579,-2.6135,-2.7076,-2.8466,-2.9615,-2.9392,-2.8183,-2.6758,-2.5541,-2.2302,-1.9506,-1.9391,0.0,-1.7483,-1.8938,-1.8509,-1.7856,-1.7615,0.0,-1.7918,-1.9298,-1.9316,-2.0588,-2.4408,-2.3937,-2.3907,-2.5505,-2.5879,-2.6359,-2.7151,-2.6886,-2.6664,-2.6638,-2.719,-2.7526,-2.7511,-2.7557,-2.7554,-2.7539,-2.7803,-2.7539,-2.6809,-2.712,-2.6842,-2.6021,-2.6075,-2.6069,-2.6003,-2.5979,0.0,-2.6093,-2.7084,-2.7333,-2.7225,-2.8231,-2.8469,-2.8224,-2.8183,-2.7929,-2.7719,0.0,0.0,0.0,0.0,0.0,0.0,0.0,0.0,0.0,0.0,-1.0113,-1.0177,0.0,0.0,0.0,0.0,0.0,0.0,0.0,0.0,0.0,-1.2796,-1.2695,-1.2695,-1.2845,-1.1833,-1.1273,-1.1169,-1.0468,-1.0068,-0.9983,-1.0139,-1.0638,-1.1401,-1.1558,-1.2082,-1.2832,-1.2845,-1.3213,-1.3806,-1.3653,-1.4106,-1.4861,-1.4734,0.0,0.0,-1.4741,0.0,0.0,-1.6677,-1.7975,-1.9094,-1.9988,-2.1895,-2.3997,-2.4813,-2.6293,-2.7867,-2.874,-2.9763,-3.0232,-2.8799,-2.8199,-2.7186,-2.4212,-2.2405,0.0,0.0,-1.9477,-1.9074,-2.0057,-1.9975,-1.9479,-1.8603,0.0,0.0,0.0,0.0,-2.2668,0.0,0.0,0.0,0.0,0.0,0.0,0.0,0.0,-2.8035,-2.781,-2.7715,-2.7644,-2.7587,-2.7803,-2.7901,-2.7826,-2.8311,-2.8142,-2.7381,-2.8303,-2.7974,-2.6583,-2.7018,-2.6975,-2.6536,-2.6388,0.0,-2.6709,-2.7543,-2.7863,-2.7882,-2.8458,-2.8779,-2.888,-2.8626,-2.8603,-2.8745,0.0,0.0,0.0,0.0,0.0,0.0,0.0,-0.9579,-0.9642,-0.9654,-0.9755,-0.9869,-0.9939,-1.0017,-1.0051,0.0,0.0,0.0,0.0,0.0,0.0,0.0,0.0,0.0,-1.3204,-1.2399,0.0,0.0,0.0,-1.0974,-1.1436,-1.0976,-1.1224,-1.2041,-1.2462,-1.2854,-1.3259,-1.3707,-1.4127,-1.4476,-1.449,-1.4709,-1.5042,0.0,0.0,0.0,0.0,0.0,0.0,0.0,-1.7535,-1.8787,-2.0512,-2.2533,-2.4416,-2.5293,-2.6756,-2.8294,-2.9205,-3.0105,-3.0384,-2.865,-2.7547,-2.6108,-2.3105,0.0,0.0,0.0,-2.0193,-2.032,-2.1575,0.0,0.0,0.0,0.0,0.0,0.0,0.0,0.0,0.0,0.0,0.0,0.0,0.0,0.0,0.0,0.0,-2.8621,-2.8324,-2.8179,-2.8102,-2.8061,-2.8197,-2.8246,-2.8206,-2.8615,-2.8602,-2.8237,-2.8853,-2.8779,-2.8062,-2.8316,-2.8309,-2.8044,-2.7951,0.0,-2.8081,-2.8468,-2.8616,-2.8642,-2.8867,-2.9044,-2.9123,-2.8934,-2.8952,-2.9051,0.0,0.0,0.0,0.0,0.0,0.0,-0.9488,-0.9488,-0.957,-0.9593,-0.9646,-0.9728,-0.9818,-0.99,-0.9965,0.0,0.0,0.0,0.0,0.0,0.0,0.0,0.0,0.0,0.0,0.0,0.0,0.0,0.0,0.0,0.0,0.0,0.0,0.0,0.0,-1.3892,-1.4118,-1.4806,-1.5097,0.0,0.0,-1.5045,0.0,0.0,0.0,0.0,0.0,0.0,0.0,0.0,-1.6772,-1.7877,-2.0057,-2.207,-2.3793,-2.473,-2.6207,-2.7718,-2.8657,-2.9559,-2.9836,-2.8093,-2.6527,-2.4795,-2.2351,-2.0641,0.0,0.0,-2.082,-2.1305,-2.2753,0.0,-2.1449,0.0,0.0,0.0,0.0,0.0,0.0,0.0,0.0,0.0,0.0,0.0,0.0,0.0,0.0,0.0,-2.8529,-2.8504,-2.8504,-2.8504,-2.8566,-2.8609,-2.8609,-2.8868,-2.901,-2.901,-2.9145,-2.9251,-2.9302,-2.9302,-2.9302,-2.9302,-2.9323,0.0,0.0,-2.9232,-2.9232,-2.9251,-2.924,-2.9229,-2.92,-2.9152,-2.91,-2.9078,0.0,0.0,0.0,0.0,0.0,0.0,-0.9375,-0.9408,-0.9453,-0.9578,-0.9599,-0.9619,-0.9633,-0.9733,-0.9854,0.0,0.0,0.0,0.0,0.0,0.0,0.0,0.0,0.0,0.0,0.0,0.0,0.0,0.0,0.0,0.0,0.0,0.0,0.0,0.0,0.0,0.0,-1.5075,0.0,0.0,0.0,0.0,0.0,0.0,0.0,0.0,0.0,0.0,0.0,0.0,0.0,-1.6705,-1.7669,-1.9703,-2.1922,-2.2801,0.0,0.0,-2.6722,-2.7672,-2.8043,-2.6356,-2.522,-2.4034,-2.221,0.0,-2.0642,-2.1502,-2.1698,-2.1973,-2.2917,-2.2962,-2.2283,0.0,0.0,-2.088,0.0,0.0,0.0,0.0,0.0,0.0,0.0,0.0,0.0,0.0,0.0,0.0,-2.8541,-2.8504,-2.8504,-2.8504,-2.8803,-2.895,-2.895,-2.9211,-2.9347,-2.9347,-2.9312,-2.9302,-2.9302,-2.9302,-2.9302,-2.9302,-2.9365,0.0,0.0,-2.9386,-2.9386,-2.9376,-2.9304,-2.9302,-2.9272,-2.9218,-2.9145,-2.9089,0.0,0.0,0.0,0.0,0.0,0.0,-0.9212,-0.9324,-0.9394,-0.9367,-0.9461,-0.95,-0.9421,-0.9581,-0.9706,-0.9769,-0.985,0.0,0.0,0.0,0.0,0.0,0.0,0.0,0.0,0.0,-1.3099,-1.4452,-1.3662,0.0,0.0,0.0,0.0,0.0,0.0,0.0,0.0,0.0,0.0,0.0,0.0,0.0,0.0,0.0,0.0,0.0,0.0,0.0,0.0,0.0,0.0,0.0,-1.6662,-1.8163,0.0,0.0,-2.3234,-2.5487,-2.5913,-2.7093,-2.7669,-2.546,-2.4658,-2.3807,-2.153,0.0,-2.0907,-2.2295,-2.2573,-2.2851,-2.3728,-2.3834,-2.3341,-2.2016,0.0,0.0,0.0,0.0,0.0,0.0,0.0,0.0,0.0,0.0,0.0,0.0,0.0,0.0,-2.9052,-2.9052,-2.9052,-2.9052,-2.916,-2.9251,-2.9251,-2.9355,-2.9396,-2.9396,-2.9376,-2.9365,-2.9365,-2.9365,-2.9365,-2.9365,-2.9386,0.0,0.0,-2.9396,-2.9396,-2.9396,-2.9376,-2.9365,-2.9355,-2.9272,-2.9218,-2.9145,0.0,0.0,0.0,0.0,0.0,-0.905,-0.9099,-0.9226,-0.9282,-0.9216,-0.9331,-0.9376,-0.9288,-0.9412,-0.9532,-0.9606,-0.976,0.0,0.0,0.0,0.0,0.0,0.0,0.0,0.0,0.0,-1.3036,-1.4526,-1.4217,-1.4388,0.0,0.0,0.0,0.0,0.0,0.0,0.0,0.0,0.0,0.0,0.0,0.0,0.0,0.0,0.0,0.0,0.0,0.0,0.0,0.0,0.0,0.0,0.0,0.0,0.0,0.0,-2.1548,-2.4247,-2.4108,-2.5352,-2.6205,-2.414,-2.3631,-2.3075,0.0,0.0,-2.123,-2.2461,-2.3137,-2.3671,-2.4296,-2.457,-2.4376,0.0,0.0,-2.2913,-2.228,0.0,0.0,0.0,0.0,0.0,0.0,0.0,0.0,0.0,0.0,0.0,-2.9396,-2.9396,-2.9396,-2.9396,-2.9396,-2.9396,-2.9396,-2.9396,-2.9409,-2.9451,-2.9409,-2.9419,-2.9451,-2.9451,-2.944,-2.9407,-2.945,0.0,0.0,-2.9396,-2.9396,-2.9396,-2.9396,-2.9396,-2.9396,-2.9355,-2.9302,-2.9229,0.0,0.0,0.0,0.0,0.0,-0.8953,-0.9088,-0.9104,-0.9123,-0.9201,-0.9194,-0.9194,-0.9194,-0.9252,-0.9327,-0.9394,-0.9587,0.0,0.0,0.0,0.0,0.0,0.0,0.0,0.0,0.0,-1.2722,-1.3599,-1.447,-1.49,-1.4904,-1.5022,-1.5096,0.0,0.0,0.0,0.0,0.0,0.0,0.0,0.0,0.0,0.0,0.0,0.0,0.0,0.0,0.0,0.0,0.0,0.0,0.0,0.0,-1.7245,-1.7176,-1.6446,-1.8801,-2.1469,-2.0678,-2.1767,-2.2934,-2.2057,-2.184,-2.1595,0.0,0.0,-2.1793,-2.1813,-2.3193,-2.4393,-2.4394,-2.5055,-2.5295,-2.443,-2.4229,0.0,0.0,0.0,0.0,0.0,0.0,0.0,0.0,0.0,0.0,0.0,0.0,0.0,-2.9396,-2.9396,-2.9396,-2.9396,-2.9396,-2.9396,-2.9396,-2.9396,-2.9471,-2.9598,-2.9461,-2.9471,-2.9598,-2.9598,-2.9531,0.0,0.0,0.0,0.0,-2.9396,-2.9396,-2.9396,-2.9396,-2.9396,-2.9396,-2.9396,-2.9355,-2.9302,0.0,0.0,0.0,0.0,0.0,0.0,-0.8964,-0.9039,-0.9071,-0.9006,-0.9109,-0.9162,-0.9067,-0.9212,-0.9292,-0.926,-0.9452,0.0,0.0,0.0,0.0,0.0,0.0,0.0,0.0,-1.2026,-1.2877,-1.4353,-1.463,-1.4794,-1.4834,-1.4919,-1.4958,-1.4977,-1.506,0.0,0.0,0.0,0.0,0.0,0.0,0.0,0.0,0.0,0.0,0.0,0.0,0.0,0.0,0.0,0.0,0.0,0.0,0.0,0.0,-1.7215,-1.8175,-1.9765,-2.0108,-2.0708,-2.1058,-2.016,-2.0439,-2.0673,-1.9807,-2.0744,-2.1971,-2.2573,-2.3597,-2.4587,-2.5175,-2.5502,-2.5374,-2.444,-2.4274,0.0,0.0,0.0,0.0,0.0,0.0,0.0,0.0,0.0,0.0,0.0,0.0,0.0,-2.9396,-2.9396,-2.9396,-2.9396,-2.9396,-2.9396,-2.9396,-2.9482,-2.9561,-2.9608,-2.9708,-2.976,-2.9811,-2.9811,-2.9777,0.0,0.0,0.0,0.0,-2.9744,-2.9663,-2.9532,-2.9532,-2.9491,-2.9396,-2.9396,-2.9365,-2.9302,0.0,0.0,0.0,0.0,0.0,0.0,-0.8897,-0.8974,-0.8996,-0.8908,-0.9017,-0.9048,-0.8976,-0.9099,-0.9174,-0.9169,-0.9294,0.0,0.0,0.0,0.0,0.0,0.0,0.0,-1.2095,-1.2095,-1.2625,-1.3723,-1.4046,-1.4231,-1.427,-1.4336,-1.4558,-1.4852,-1.4909,-1.4932,0.0,0.0,0.0,0.0,0.0,0.0,-1.4598,0.0,0.0,0.0,0.0,0.0,0.0,0.0,0.0,0.0,0.0,0.0,0.0,0.0,-1.7772,-1.8332,-1.9348,-1.9723,-1.9792,-1.9591,-1.9987,-2.0284,-1.9778,0.0,-2.2411,-2.2989,-2.4057,-2.5051,-2.5602,-2.5703,-2.5492,-2.4888,-2.4764,0.0,0.0,0.0,0.0,0.0,0.0,0.0,0.0,0.0,0.0,0.0,0.0,0.0,-2.9396,-2.9396,-2.9419,-2.9481,-2.9419,-2.9419,-2.9481,-2.9561,-2.9662,-2.9782,-2.9851,-2.9934,-2.9988,-2.9988,-2.9958,0.0,0.0,0.0,0.0,-2.9902,-2.9828,-2.9697,-2.9697,-2.9653,-2.9589,-2.9589,-2.956,-2.9531,0.0,0.0,0.0,0.0,0.0,0.0,0.0,-0.8897,-0.8897,-0.8897,-0.8897,-0.8897,-0.8897,-0.8953,-0.9035,-0.909,-0.9144,0.0,0.0,0.0,0.0,0.0,0.0,0.0,-1.2187,-1.2132,-1.215,-1.2278,-1.3016,-1.3416,-1.3472,-1.348,-1.3956,-1.478,-1.4723,-1.4698,-1.4687,-1.4627,-1.4587,-1.4577,-1.4577,-1.4577,0.0,0.0,0.0,0.0,0.0,0.0,0.0,0.0,0.0,0.0,0.0,0.0,0.0,0.0,0.0,0.0,0.0,-1.8826,-1.8999,-1.986,-2.0131,-2.0215,-2.0298,0.0,0.0,-2.3079,-2.4435,-2.5627,-2.5698,-2.5703,-2.5658,-2.552,0.0,0.0,0.0,0.0,0.0,0.0,0.0,0.0,0.0,0.0,0.0,0.0,0.0,0.0,-2.9409,-2.9409,-2.9481,-2.9617,-2.9511,-2.9501,-2.9626,-2.9616,-2.9782,-3.0109,-2.9996,-2.9992,-3.0122,-3.0122,-3.0052,0.0,0.0,0.0,0.0,-2.9934,-2.9926,-2.9918,-2.9918,-2.991,-2.9902,-2.9902,-2.9902,-2.9902,0.0,0.0,0.0,0.0,0.0,0.0,0.0,0.0,0.0,0.0,-0.8897,-0.8897,-0.8897,-0.897,-0.9003,0.0,0.0,0.0,0.0,0.0,0.0,0.0,0.0,0.0,-1.3004,-1.2412,-1.2701,-1.3943,-1.3522,-1.3648,-1.4226,-1.3684,-1.3853,-1.4651,-1.4673,-1.4645,-1.455,-1.4539,-1.4458,-1.4368,-1.4368,-1.4368,0.0,0.0,0.0,0.0,-1.4312,-1.43,0.0,0.0,0.0,0.0,0.0,0.0,0.0,0.0,-1.7902,-1.798,-1.8996,0.0,-1.7729,-1.7942,-1.8626,-1.9249,0.0,-2.0715,0.0,0.0,0.0,0.0,0.0,0.0,0.0,0.0,0.0,0.0,0.0,0.0,0.0,0.0,0.0,0.0,0.0,0.0,0.0,0.0,0.0,-2.9431,-2.9551,-2.9561,-2.9635,-2.9828,-2.9794,-2.9794,-2.9836,-2.9939,-3.0018,-3.0109,-3.0221,-3.0292,-3.0323,-3.0323,-3.0305,0.0,0.0,0.0,-3.0273,-3.0273,-3.0195,-3.0059,-3.0059,-2.9985,-2.9902,-2.9902,-2.9902,-2.9902,0.0,0.0,0.0,0.0,0.0,0.0,0.0,0.0,0.0,0.0,-0.8897,-0.8897,-0.8897,-0.9253,-0.9361,0.0,0.0,0.0,0.0,0.0,0.0,0.0,0.0,-1.2933,-1.3736,-1.3028,-1.3073,-1.3949,-1.3474,-1.3303,-1.34,-1.3317,-1.3506,-1.3965,-1.4349,-1.4475,-1.4405,-1.4405,-1.4362,-1.43,-1.43,0.0,0.0,0.0,0.0,0.0,-1.43,-1.43,0.0,-1.43,-1.4589,-1.4951,0.0,0.0,0.0,0.0,-1.7959,-1.8622,-1.9115,-1.8554,-1.7905,-1.834,-1.8935,-1.9435,-1.9523,0.0,0.0,0.0,0.0,0.0,0.0,0.0,0.0,0.0,0.0,0.0,0.0,0.0,0.0,0.0,0.0,0.0,0.0,0.0,0.0,0.0,0.0,-2.9663,-2.9742,-2.9742,-2.9809,-2.9985,-2.9985,-2.9985,-2.9985,-3.0066,-3.0143,-3.0241,-3.0355,-3.0404,-3.0404,-3.0404,-3.0404,0.0,0.0,0.0,-3.0404,-3.0404,-3.0343,-3.0241,-3.0241,-3.0195,-3.0133,-3.0133,-3.0133,-3.0133,0.0,0.0,0.0,0.0,0.0,0.0,0.0,0.0,0.0,0.0,0.0,0.0,0.0,0.0,0.0,0.0,0.0,0.0,0.0,0.0,0.0,0.0,-1.307,-1.3485,-1.4282,-1.3631,-1.3353,-1.3477,-1.3282,-1.2887,-1.2276,-1.2846,-1.32,-1.34,-1.4023,-1.43,-1.43,-1.43,-1.43,-1.43,-1.43,0.0,0.0,0.0,0.0,0.0,0.0,0.0,0.0,-1.43,-1.43,-1.4318,-1.4445,0.0,0.0,0.0,0.0,0.0,-1.9099,-1.8834,-1.8752,-1.9575,-1.9882,-2.0031,-2.0142,0.0,0.0,0.0,0.0,0.0,0.0,0.0,0.0,0.0,0.0,0.0,0.0,0.0,0.0,0.0,0.0,0.0,0.0,0.0,0.0,0.0,0.0,-2.991,-2.9934,-2.9939,-3.0011,-3.0151,-3.0157,-3.0107,-2.9985,-3.0087,-3.0235,-3.0404,-3.0269,-3.0192,-3.0192,-3.0077,-3.0096,-3.0192,0.0,0.0,-3.0404,-3.0404,-3.0404,-3.0404,-3.0404,-3.0404,-3.0404,-3.0404,-3.0404,-3.0404,0.0,0.0,0.0,0.0,0.0,0.0,0.0,0.0,0.0,0.0,0.0,0.0,0.0,0.0,0.0,0.0,0.0,0.0,0.0,0.0,0.0,-1.3424,-1.3239,-1.3485,-1.4282,-1.3631,-1.3637,-1.4324,-1.3563,-1.3132,-1.3028,-1.3077,-1.3479,-1.4143,-1.4246,-1.43,-1.43,-1.43,-1.43,-1.43,-1.43,0.0,0.0,0.0,0.0,0.0,0.0,0.0,0.0,-1.43,-1.43,-1.4427,-1.509,0.0,0.0,0.0,0.0,0.0,-1.9104,-1.9213,-1.9389,-1.9585,-1.9823,-2.0019,-2.0026,-2.0269,0.0,0.0,0.0,0.0,0.0,0.0,0.0,0.0,0.0,0.0,0.0,0.0,0.0,0.0,0.0,0.0,0.0,0.0,0.0,0.0,0.0,-2.9958,-3.0066,-3.012,-3.0242,-3.0428,-3.0433,-3.01,-2.9435,-3.0048,-3.0367,-3.0385,-2.964,-2.93,-2.928,-2.8582,-2.8659,-2.93,0.0,-2.9717,-3.0404,-3.0404,-3.0404,-3.0404,-3.0404,-3.0404,-3.0404,-3.0404,-3.0404,-3.0404,0.0,0.0,0.0,0.0,0.0,0.0,0.0,0.0,0.0,0.0,0.0,0.0,0.0,0.0,0.0,0.0,0.0,0.0,0.0,0.0,-1.2473,-1.3553,-1.3521,-1.3708,-1.4183,-1.4005,-1.4092,-1.4495,-1.3194,-1.2321,-1.1907,-1.1825,-1.2234,-1.3038,-1.3902,-1.43,-1.43,-1.43,-1.43,-1.43,0.0,0.0,0.0,0.0,0.0,0.0,0.0,0.0,0.0,0.0,-1.5248,-1.5599,-1.5531,0.0,0.0,0.0,0.0,0.0,-1.9095,-1.9289,-1.9518,-1.955,-1.9803,-2.0055,-2.0041,-2.0207,0.0,0.0,0.0,0.0,0.0,0.0,0.0,0.0,0.0,0.0,0.0,0.0,0.0,0.0,0.0,0.0,0.0,0.0,0.0,0.0,0.0,0.0,-2.9688,-2.9704,-2.9769,-2.9846,-2.985,-2.9672,-2.9297,-2.9631,-2.9564,-2.9105,-2.8733,-2.854,-2.8492,-2.8126,-2.8396,-2.9129,0.0,-2.9198,-3.0371,-2.9932,-2.9998,-3.039,-3.0439,-3.0422,-3.0404,-3.0404,-3.0404,-3.0404,0.0,0.0,0.0,0.0,0.0,0.0,0.0,0.0,0.0,0.0,0.0,0.0,0.0,0.0,0.0,0.0,0.0,0.0,0.0,-1.2582,-1.2806,-1.3564,-1.3708,-1.3861,-1.4037,-1.4057,-1.3998,-1.3846,-1.2415,-1.1309,-1.053,-1.0667,-1.1144,-1.1994,-1.3588,-1.43,-1.43,-1.43,-1.43,-1.43,0.0,0.0,0.0,0.0,0.0,0.0,0.0,0.0,0.0,0.0,0.0,0.0,0.0,0.0,0.0,-1.8135,-1.8624,-1.9095,-1.9095,-1.9289,-1.9455,-1.9269,-1.9658,-2.0083,-2.0095,-2.0236,0.0,0.0,0.0,0.0,0.0,0.0,0.0,0.0,0.0,0.0,0.0,0.0,0.0,0.0,0.0,0.0,0.0,0.0,0.0,0.0,0.0,0.0,-2.9317,-2.914,-2.903,-2.903,-2.903,-2.8942,-2.8763,-2.8748,-2.8491,-2.8027,-2.7872,-2.7775,-2.7717,-2.7504,-2.7853,-2.8599,-2.7937,-2.8598,-3.0083,-2.9471,-2.9713,-3.046,-3.0506,-3.0487,-3.0469,-3.0648,-3.0604,-3.0483,0.0,0.0,0.0,0.0,0.0,0.0,0.0,0.0,0.0,0.0,0.0,0.0,0.0,0.0,0.0,0.0,0.0,0.0,0.0,-1.2824,-1.2755,-1.3577,-1.3661,-1.3736,-1.3824,-1.3358,-1.2705,-1.1894,-1.1218,-1.0465,-0.9713,-1.0451,-1.1218,-1.2063,-1.3611,-1.43,-1.43,-1.43,-1.43,-1.43,-1.43,0.0,0.0,0.0,0.0,0.0,0.0,0.0,0.0,0.0,0.0,0.0,0.0,0.0,-1.8045,-1.8787,-1.9059,-1.9095,-1.9095,-1.9289,-1.9325,-1.8562,-1.9194,-2.0022,-2.0088,-2.015,0.0,-2.1322,0.0,0.0,0.0,0.0,0.0,0.0,0.0,0.0,0.0,0.0,0.0,0.0,0.0,0.0,0.0,0.0,0.0,0.0,0.0,0.0,-2.9255,-2.8657,-2.8277,-2.8277,-2.8277,-2.7928,-2.7166,-2.7092,-2.7409,-2.8083,-2.7278,-2.689,-2.6867,-2.6055,-2.6152,-2.6964,-2.69,-2.7828,-2.938,-2.9329,-2.9799,-3.0598,-3.0582,-3.0582,-3.0684,-3.141,-3.1183,-3.0704,0.0,0.0,0.0,0.0,0.0,0.0,0.0,0.0,0.0,0.0,0.0,-1.2863,-1.2558,0.0,0.0,0.0,0.0,0.0,0.0,-1.3293,-1.3274,-1.3586,-1.3576,-1.3622,-1.3746,-1.2716,-1.2089,-1.1884,-0.9658,-0.8414,-0.8129,-0.9448,-1.0738,-1.2006,-1.36,-1.43,-1.43,-1.43,-1.43,-1.43,-1.43,-1.43,0.0,0.0,0.0,0.0,0.0,0.0,0.0,0.0,-1.6371,-1.7364,-1.6856,-1.7599,-1.8715,-1.9005,-1.9095,-1.912,-1.919,-1.9387,-1.95,-1.9251,-1.9613,0.0,0.0,-1.9886,-2.0435,-2.08,-2.1809,0.0,0.0,0.0,0.0,0.0,0.0,0.0,0.0,0.0,0.0,0.0,0.0,0.0,0.0,0.0,0.0,0.0,0.0,0.0,-2.7872,-2.7615,-2.7447,-2.7447,-2.7447,-2.7316,-2.6996,-2.6966,-2.6835,-2.6603,-2.6274,-2.6087,-2.6038,-2.571,-2.6038,-2.6831,-2.6254,-2.6971,-2.8505,-2.801,-2.8293,-2.9107,-2.9596,-3.0123,-3.0648,-3.0948,-3.0859,-3.0641,0.0,0.0,0.0,0.0,0.0,0.0,0.0,0.0,-1.3396,0.0,0.0,0.0,0.0,-1.3396,0.0,0.0,0.0,0.0,-1.3471,-1.351,-1.3535,-1.3528,-1.3553,-1.3614,-1.3726,-1.1894,-1.1028,-1.118,-0.8066,-0.6776,-0.7275,-0.8885,-1.0445,-1.1991,-1.3594,-1.43,-1.43,-1.43,-1.43,-1.43,-1.43,-1.4445,0.0,0.0,0.0,0.0,0.0,0.0,0.0,0.0,-1.6986,-1.7791,-1.7255,-1.8008,-1.9104,-1.9144,-1.9184,-1.9219,-1.9361,-1.9535,-1.9625,-1.9422,0.0,0.0,-1.9115,-1.9906,-2.077,-2.0856,-2.2051,0.0,0.0,0.0,0.0,0.0,0.0,0.0,0.0,0.0,0.0,0.0,0.0,0.0,0.0,0.0,0.0,0.0,0.0,0.0,0.0,-2.6742,-2.6586,-2.6586,-2.6586,-2.6586,-2.6586,-2.6586,-2.6293,-2.5707,-2.5707,-2.5679,-2.5639,-2.5639,-2.5969,-2.649,-2.584,-2.641,-2.7712,-2.717,-2.7573,-2.8626,-2.9171,-2.9914,-3.0692,-3.0944,-3.0879,-3.0704,0.0,0.0,0.0,0.0,0.0,0.0,0.0,0.0,-1.3396,-1.3396,-1.3396,0.0,0.0,0.0,0.0,0.0,0.0,0.0,-1.3404,-1.3404,-1.3404,-1.3404,-1.3583,-1.3721,-1.3795,-1.0864,-0.935,-0.9383,-0.6521,-0.5892,-0.7387,-0.8985,-1.0536,-1.2091,-1.3617,-1.43,-1.43,-1.43,-1.43,-1.43,-1.43,-1.4789,-1.5488,0.0,0.0,0.0,0.0,0.0,0.0,0.0,-1.7881,-1.79,-1.7907,-1.8443,-1.9129,-1.9269,-1.9343,-1.9421,-1.955,-1.9705,-1.9636,0.0,0.0,0.0,-1.898,-2.0304,-2.1544,-2.1693,0.0,-2.3039,-2.3123,0.0,0.0,0.0,0.0,0.0,0.0,0.0,0.0,0.0,0.0,0.0,0.0,0.0,0.0,0.0,0.0,0.0,0.0,-2.6157,-2.5687,-2.5687,-2.5707,-2.5707,-2.5707,-2.5707,-2.5707,-2.5707,-2.5707,-2.5707,-2.5707,-2.5707,-2.5707,-2.5707,-2.5707,-2.6215,-2.7016,-2.6996,-2.8011,-2.9573,-2.9573,-3.0079,-3.0875,-3.167,-3.1422,-3.0916,0.0,0.0,0.0,0.0,0.0,0.0,0.0,0.0,-1.3396,-1.3396,-1.3396,0.0,0.0,0.0,0.0,0.0,0.0,0.0,-1.3388,-1.3438,-1.3511,-1.3616,-1.3671,-1.3806,-1.4004,-1.2166,-1.01,-0.7858,-0.7045,-0.8004,-1.062,-1.1089,-1.2136,-1.3647,-1.4101,-1.43,-1.43,-1.43,-1.43,-1.43,-1.43,-1.4445,-1.4716,0.0,0.0,0.0,0.0,0.0,0.0,0.0,0.0,0.0,-1.8016,-1.8595,-1.9277,-1.9398,-1.9451,-1.9506,-1.9638,-1.9802,0.0,-1.9721,0.0,0.0,0.0,-2.0297,0.0,0.0,0.0,-2.3577,0.0,0.0,0.0,0.0,0.0,0.0,0.0,0.0,0.0,0.0,0.0,0.0,0.0,0.0,0.0,0.0,0.0,0.0,0.0,-2.4928,-2.4791,-2.4789,-2.5375,-2.5707,-2.5707,-2.5707,-2.5707,-2.5707,-2.5707,-2.5707,-2.5707,-2.5707,-2.6039,-2.6606,-2.6606,-2.7113,-2.7874,-2.725,-2.7309,-2.7777,-2.7777,-2.8285,-2.9063,-2.9307,-2.9226,-2.9089,0.0,0.0,0.0,0.0,0.0,0.0,-1.2904,-1.3182,-1.3396,-1.3396,-1.3396,-1.3396,0.0,0.0,0.0,-1.3396,-1.3396,0.0,-1.3396,-1.3438,-1.3504,-1.3568,-1.3684,-1.3577,-1.3238,-1.2428,-1.1039,-0.9067,-0.8524,-0.9544,-1.199,-1.1346,-1.1863,-1.3322,-1.2683,-1.2789,-1.3421,-1.3421,-1.3809,-1.441,-1.441,-1.4617,-1.491,0.0,0.0,0.0,0.0,0.0,0.0,0.0,0.0,0.0,-1.8471,-1.8945,-1.9405,-1.9501,-1.9625,-1.9737,-1.9885,0.0,0.0,-2.0201,-2.0269,-2.0407,-2.076,0.0,0.0,0.0,0.0,0.0,0.0,0.0,0.0,0.0,0.0,0.0,0.0,0.0,0.0,0.0,0.0,0.0,0.0,0.0,0.0,0.0,0.0,0.0,0.0,-2.421,-2.4406,-2.4404,-2.5244,-2.5694,-2.5694,-2.5694,-2.5694,-2.5694,-2.5694,-2.5694,-2.5713,-2.606,-2.6313,-2.6508,-2.684,-2.7484,-2.8264,-2.7737,-2.7523,-2.7523,-2.7523,-2.7835,-2.8303,-2.8303,-2.8303,-2.8303,0.0,0.0,-1.2262,-1.2445,0.0,0.0,-1.3021,-1.3251,-1.3388,-1.3371,-1.3388,-1.3396,0.0,0.0,0.0,-1.3396,-1.3396,-1.3405,-1.3421,-1.3421,-1.343,-1.3463,-1.3703,-1.3305,-1.2146,-1.2169,-1.2197,-1.2136,-1.0649,-1.0706,-1.2168,-1.0562,-1.057,-1.1846,-1.0381,-1.0621,-1.2124,-1.2271,-1.3214,-1.4603,-1.4603,-1.5048,-1.5624,-1.4974,0.0,0.0,0.0,0.0,0.0,0.0,0.0,0.0,-1.914,-1.9412,-1.952,-1.9619,-1.9794,-2.0031,-2.023,0.0,0.0,-2.0382,0.0,0.0,0.0,0.0,0.0,0.0,0.0,0.0,0.0,0.0,0.0,0.0,0.0,0.0,0.0,0.0,0.0,0.0,0.0,0.0,0.0,0.0,0.0,0.0,0.0,0.0,0.0,-2.3807,-2.4276,-2.4274,-2.5193,-2.57,-2.57,-2.57,-2.57,-2.57,-2.57,-2.57,-2.5739,-2.6514,-2.649,-2.5864,-2.6742,-2.7523,-2.8186,-2.8186,-2.8127,-2.8069,-2.8069,-2.8069,-2.8069,-2.8069,-2.8069,-2.8069,0.0,0.0,-1.2221,-1.2262,0.0,0.0,-1.2646,-1.3075,-1.3337,-1.3181,-1.3303,-1.3396,-1.3396,-1.3396,0.0,-1.3396,-1.3396,-1.3438,-1.3559,-1.3567,-1.3677,-1.3934,-1.4105,-1.4062,-1.3793,-1.3805,-1.3853,-1.3946,-1.2307,-1.2287,-1.3763,-1.2152,-1.161,-1.197,-1.1663,-1.1787,-1.2254,-1.3541,-1.4272,-1.4603,-1.4603,-1.4696,-1.4919,-1.5423,-1.6123,0.0,0.0,0.0,0.0,0.0,0.0,0.0,-1.9543,-1.9553,-1.9547,-1.9829,-1.9885,-1.9882,-2.0084,-2.0214,0.0,0.0,0.0,0.0,0.0,0.0,0.0,0.0,0.0,0.0,0.0,0.0,0.0,0.0,0.0,0.0,0.0,0.0,0.0,0.0,0.0,0.0,0.0,0.0,0.0,0.0,0.0,0.0,-2.209,-2.2863,-2.3332,-2.3376,-2.4883,-2.5703,-2.57,-2.57,-2.57,0.0,-2.57,-2.57,-2.572,-2.5894,-2.6243,-2.6767,-2.7641,-2.7737,-2.7289,-2.7289,-2.6879,-2.6253,-2.6253,-2.6253,-2.6253,-2.6253,-2.6253,-2.6253,0.0,0.0,0.0,0.0,0.0,0.0,0.0,0.0,-1.3354,-1.3251,-1.3329,-1.3396,-1.3396,-1.3396,0.0,0.0,-1.3396,-1.3454,-1.3589,-1.3605,-1.3743,-1.4093,-1.4181,-1.4262,-1.4393,-1.4393,-1.4453,-1.4554,-1.3666,-1.3653,-1.4408,-1.2821,-1.2115,-1.2113,-1.1379,-1.1509,-1.2342,-1.3194,-1.4026,-1.4785,-1.4785,-1.4785,-1.4879,-1.5719,-1.6296,-1.6825,-1.8056,0.0,0.0,0.0,0.0,0.0,0.0,0.0,-1.9745,-1.972,-1.9821,-1.9967,0.0,0.0,0.0,0.0,0.0,0.0,0.0,0.0,0.0,0.0,0.0,0.0,0.0,0.0,0.0,0.0,0.0,0.0,0.0,0.0,0.0,0.0,0.0,0.0,0.0,0.0,0.0,0.0,0.0,-2.1773,-2.1802,-2.2953,-2.3637,-2.3662,-2.4963,-2.5672,-2.5702,-2.5679,-2.5679,-2.5702,-2.5702,-2.5703,-2.5702,-2.5701,-2.6402,-2.7611,-2.7666,-2.7665,-2.7627,-2.7627,-2.712,-2.6318,-2.6318,-2.6065,-2.5694,-2.5692,-2.569,-2.569,0.0,0.0,0.0,0.0,0.0,0.0,0.0,0.0,0.0,-1.3557,-1.3574,-1.354,-1.3413,-1.3396,-1.3396,0.0,0.0,0.0,-1.3636,-1.3698,-1.3848,-1.415,-1.4163,-1.4281,-1.4516,-1.4522,-1.456,-1.4634,-1.4634,-1.4496,-1.4208,-1.2903,-1.2309,-1.2269,-1.0927,-1.1105,-1.2442,-1.2738,-1.3683,-1.5017,-1.515,-1.5207,-1.5302,-1.6269,-1.6625,-1.6833,-1.8378,-1.8922,-1.9041,-1.9761,0.0,0.0,0.0,0.0,-1.9854,-1.958,-1.9743,-2.003,0.0,0.0,-2.0289,0.0,0.0,0.0,0.0,0.0,0.0,0.0,0.0,0.0,0.0,0.0,0.0,0.0,0.0,0.0,0.0,0.0,0.0,0.0,0.0,0.0,0.0,0.0,0.0,0.0,0.0,-2.1949,-2.2006,-2.3456,-2.4293,-2.4308,-2.5124,-2.5609,-2.5681,-2.5637,-2.5637,-2.5681,-2.5685,-2.5694,-2.5682,-2.5683,-2.6482,-2.7809,-2.7086,-2.7183,-2.7847,-2.7847,-2.7437,-2.6773,-2.6773,-2.6324,-2.57,-2.5696,-2.5695,-2.5694,0.0,0.0,0.0,0.0,0.0,0.0,0.0,0.0,0.0,0.0,-1.4243,-1.4107,-1.3481,-1.3396,-1.3396,-1.3396,-1.3519,-1.3619,-1.3768,0.0,0.0,-1.4435,-1.4441,-1.4487,-1.4577,-1.4582,-1.4644,-1.4762,-1.4762,-1.4084,-1.2775,-1.2443,-1.2322,-1.2384,-1.2165,-1.221,-1.2579,-1.4043,-1.4786,-1.5055,-1.5757,-1.6041,-1.6212,-1.7771,-1.8378,-1.8491,-1.9476,-1.9836,-1.9836,-1.995,-2.0007,0.0,0.0,0.0,-1.9612,-1.9848,-1.9804,-1.9736,0.0,0.0,0.0,0.0,0.0,0.0,0.0,0.0,0.0,0.0,0.0,0.0,0.0,0.0,0.0,0.0,0.0,0.0,0.0,0.0,0.0,0.0,0.0,0.0,0.0,0.0,0.0,0.0,-2.24,-2.2832,-2.2838,-2.3708,-2.4238,-2.4306,-2.509,-2.5542,-2.5609,-2.5603,-2.5603,-2.5609,-2.5677,-2.5679,-2.5619,-2.566,-2.584,-2.6034,-2.5915,-2.5934,-2.6051,-2.6051,-2.5973,-2.5875,-2.5875,-2.5798,-2.57,-2.57,-2.5699,-2.5699,0.0,0.0,0.0,0.0,0.0,0.0,0.0,0.0,0.0,0.0,0.0,-1.4986,-1.4674,-1.4259,-1.4049,-1.4127,-1.3807,-1.3705,-1.3949,-1.4172,-1.4356,-1.4488,-1.4493,-1.4565,-1.4704,-1.4709,-1.478,-1.4902,-1.4902,-1.4087,-1.2492,-1.244,-1.2454,-1.2541,-1.3455,-1.3897,-1.4004,-1.4733,-1.5053,-1.5133,-1.5972,-1.6288,-1.6436,-1.8162,-1.8792,-1.8926,-2.0247,-2.0405,-2.0064,-2.0518,-2.0367,-1.9977,-1.9871,0.0,0.0,0.0,-1.9763,0.0,-2.0049,0.0,0.0,0.0,0.0,0.0,0.0,0.0,0.0,0.0,0.0,0.0,0.0,0.0,0.0,0.0,0.0,0.0,0.0,0.0,0.0,0.0,0.0,0.0,0.0,0.0,0.0,0.0,-2.3182,-2.3666,-2.3676,-2.4469,-2.4941,-2.4978,-2.5324,-2.5518,-2.5539,-2.5549,-2.5549,-2.5542,-2.5563,-2.5595,-2.5601,-2.5633,-2.5645,-2.5649,-2.5683,-2.5703,-2.5701,-2.5703,-2.5703,-2.5703,-2.5703,-2.5703,-2.5702,-2.5702,-2.5702,-2.5701,0.0,0.0,0.0,0.0,0.0,0.0,0.0,0.0,0.0,0.0,0.0,-1.5828,-1.569,0.0,0.0,0.0,-1.4275,-1.4016,-1.4141,-1.4274,-1.4405,-1.4509,-1.4554,-1.4666,-1.4859,-1.4844,-1.4894,-1.4998,-1.4998,-1.3918,-1.1867,-1.2297,-1.2087,-1.1397,-1.3004,-1.4138,-1.4798,-1.4778,-1.478,-1.494,-1.6427,-1.7018,-1.7156,-1.8885,-1.9501,-1.9644,-2.1114,-2.12,-2.0752,-2.1326,0.0,0.0,0.0,0.0,0.0,0.0,0.0,0.0,0.0,0.0,0.0,0.0,0.0,0.0,0.0,0.0,0.0,0.0,0.0,0.0,0.0,0.0,0.0,0.0,0.0,0.0,0.0,0.0,0.0,0.0,0.0,0.0,0.0,0.0,0.0,0.0,-2.3999,-2.449,-2.4525,-2.5143,-2.5507,-2.5507,-2.5507,-2.5499,-2.5496,-2.5499,-2.5499,-2.5496,-2.5495,-2.5538,-2.5586,-2.5591,-2.5589,-2.5571,-2.5645,-2.5674,-2.566,-2.5675,-2.5681,-2.5702,-2.5702,-2.5839,-2.5996,-2.5781,-2.5839,-2.5995,0.0,0.0,0.0,0.0,0.0,0.0,0.0,0.0,0.0,0.0,0.0,-1.6448,-1.5933,-1.567,-1.5383,-1.5019,-1.4941,-1.4758,-1.4322,-1.4411,-1.4515,-1.4587,-1.4728,0.0,-1.499,-1.4994,-1.4994,-1.4998,-1.4998,-1.333,-1.0158,-1.1758,-1.0832,-0.7923,-0.9549,-1.1648,-1.3959,-1.3895,-1.3895,-1.4246,-1.747,-1.8762,-1.895,-2.0619,-2.1271,-2.1373,-2.2224,0.0,0.0,0.0,0.0,0.0,-2.1384,-2.1041,-2.0822,0.0,0.0,0.0,0.0,0.0,0.0,0.0,0.0,0.0,0.0,0.0,0.0,0.0,0.0,0.0,0.0,0.0,0.0,0.0,0.0,0.0,0.0,0.0,0.0,0.0,0.0,0.0,0.0,0.0,0.0,0.0,-2.4796,-2.5295,-2.543,-2.5488,-2.5507,-2.5507,-2.5507,-2.5492,-2.5496,-2.5492,-2.5492,-2.5496,-2.5493,-2.5509,-2.5507,-2.5578,-2.5568,-2.5511,-2.5586,-2.5605,-2.5603,-2.5607,-2.5647,-2.5709,-2.5709,-2.6206,-2.6836,-2.5996,-2.6211,-2.6816,0.0,0.0,0.0,0.0,0.0,0.0,0.0,0.0,0.0,0.0,0.0,0.0,0.0,-1.6628,-1.6153,-1.5748,-1.5465,-1.5465,-1.5827,-1.5901,-1.5746,-1.539,-1.5947,-1.5872,-1.5013,-1.551,-1.551,-1.4998,-1.4998,-1.3842,-1.1582,-1.1123,-1.0593,-1.0081,-1.117,-1.2513,-1.4031,-1.5088,-1.5871,-1.6413,-1.654,-1.7883,-1.975,-1.9274,-2.0438,0.0,0.0,0.0,0.0,0.0,0.0,0.0,-2.1472,-2.1171,-2.0977,-2.0223,-1.9913,0.0,0.0,0.0,0.0,0.0,0.0,0.0,0.0,0.0,0.0,0.0,0.0,0.0,0.0,0.0,0.0,0.0,0.0,0.0,0.0,0.0,0.0,0.0,0.0,0.0,0.0,0.0,0.0,0.0,0.0,-2.5249,-2.5298,-2.5317,-2.5322,-2.5372,-2.5372,-2.5412,-2.5507,-2.5507,-2.5507,-2.5511,-2.5499,-2.5499,-2.5492,-2.5527,-2.5524,-2.5492,-2.5531,-2.5537,-2.5537,-2.5589,-2.5609,-2.5699,-2.6242,-2.6653,-2.6966,-2.7218,-2.7141,-2.6909,0.0,0.0,0.0,0.0,0.0,-1.6623,-1.7068,-1.713,-1.7288,-1.7743,0.0,0.0,0.0,0.0,-1.7023,-1.6642,-1.6174,-1.6026,-1.6287,-1.6348,-1.6062,-1.5427,-1.6003,-1.5909,-1.5013,-1.551,-1.5548,-1.4998,-1.4998,-1.4145,-1.2473,-1.137,-1.0874,-1.1011,-1.213,-1.2974,-1.364,-1.4751,-1.6075,-1.7296,-1.6184,-1.7763,-2.0578,0.0,0.0,0.0,0.0,0.0,0.0,0.0,0.0,0.0,-2.1681,-2.1225,-2.0593,-2.0059,-1.9763,0.0,-1.9908,0.0,0.0,0.0,0.0,0.0,0.0,0.0,0.0,0.0,0.0,0.0,0.0,0.0,0.0,0.0,0.0,0.0,0.0,0.0,0.0,0.0,0.0,0.0,0.0,0.0,0.0,0.0,0.0,0.0,-2.5192,-2.5192,-2.5219,-2.5274,-2.5283,-2.5339,-2.544,-2.548,-2.5507,-2.5507,-2.5507,-2.5507,-2.5507,-2.5507,-2.5507,-2.5507,-2.5507,-2.5499,-2.5493,-2.5554,-2.5736,-2.6062,-2.6641,-2.7219,-2.7762,-2.8051,-2.7818,-2.7297,0.0,0.0,-1.6686,-1.6955,-1.7005,-1.7093,-1.7361,-1.7396,-1.7507,-1.7749,0.0,0.0,0.0,0.0,0.0,-1.7657,-1.7085,-1.6414,-1.565,-1.5736,-1.5478,-1.4741,-1.485,-1.4976,-1.507,-1.5074,-1.5055,-1.5036,-1.5017,-1.4164,-1.2568,-1.2519,-1.1681,-1.0289,-1.1939,-1.2712,-1.2803,-1.2846,-1.4332,-1.6694,0.0,-1.8689,-2.1543,0.0,0.0,0.0,-2.4955,-2.5198,0.0,-2.5192,0.0,0.0,0.0,-2.1326,-1.9776,-1.977,-1.9668,0.0,0.0,0.0,0.0,0.0,0.0,0.0,0.0,0.0,0.0,0.0,0.0,0.0,0.0,0.0,0.0,0.0,0.0,0.0,0.0,0.0,0.0,0.0,0.0,0.0,0.0,0.0,0.0,0.0,-2.5101,-2.5124,-2.5201,-2.5206,-2.5206,-2.5206,-2.5255,-2.5297,-2.5297,-2.544,-2.5507,-2.5507,-2.5507,-2.5507,-2.5507,-2.5507,-2.5507,-2.5507,-2.5507,-2.5507,-2.5507,-2.5507,-2.6017,-2.6793,-2.6832,-2.7887,-2.9299,-2.8457,-2.8164,-2.8072,0.0,-1.6766,-1.6917,-1.6993,-1.7005,-1.7093,-1.7361,-1.7396,-1.7507,0.0,0.0,0.0,-1.7883,-1.7672,-1.7708,-1.8201,-1.7829,-1.7718,-1.8073,-1.8141,-1.7844,-1.7156,-1.7825,-1.7694,-1.6604,-1.673,-1.6506,-1.5871,-1.5283,-1.4752,-1.4278,-1.3075,-1.2592,-1.2747,-1.2008,-1.3064,-1.5423,-1.6105,-1.7501,-1.9172,-1.7954,-1.9494,0.0,0.0,0.0,0.0,0.0,-2.5265,-2.5255,0.0,-2.4545,-2.3677,0.0,0.0,-2.15,-2.1447,-2.1419,0.0,-2.1437,0.0,0.0,0.0,0.0,0.0,-1.8645,-1.9033,0.0,0.0,0.0,0.0,0.0,0.0,0.0,0.0,0.0,0.0,0.0,0.0,0.0,0.0,0.0,0.0,0.0,0.0,0.0,0.0,-2.5024,-2.5037,-2.5051,-2.5094,-2.513,-2.513,-2.5182,-2.5259,-2.5297,-2.5335,-2.5408,-2.5507,-2.5507,-2.5507,-2.5507,-2.5507,-2.5507,-2.5507,-2.5507,-2.5507,-2.5507,-2.5507,-2.5983,-2.6796,-2.742,-2.8387,-2.9362,-2.9129,-2.8643,-2.8007,-1.6583,-1.6815,-1.7043,-1.7154,-1.7264,-1.7384,-1.7542,-1.7566,-1.7624,0.0,0.0,0.0,-1.8068,-1.7986,-1.8144,-1.8707,-1.8535,-1.8461,-1.8588,-1.8661,-1.8371,-1.7711,-1.8266,-1.8197,-1.7344,-1.7434,-1.707,-1.6193,-1.5738,-1.5321,-1.4979,-1.4335,-1.4323,-1.4812,-1.4162,-1.5212,-1.7489,-1.806,0.0,0.0,-1.847,0.0,0.0,-2.096,-2.2431,0.0,0.0,0.0,-2.5288,-2.5215,-2.488,0.0,0.0,0.0,0.0,0.0,0.0,0.0,0.0,0.0,0.0,0.0,0.0,0.0,-1.8732,-1.8419,-1.8142,0.0,0.0,0.0,0.0,0.0,0.0,0.0,0.0,0.0,0.0,0.0,0.0,0.0,0.0,0.0,0.0,-2.5003,-2.5003,-2.5003,-2.5003,-2.5003,-2.5003,-2.5037,-2.507,-2.507,-2.5145,-2.5219,-2.5269,-2.535,-2.5417,-2.5507,-2.5507,-2.5507,-2.5507,-2.5507,-2.5507,-2.5507,-2.5507,-2.5507,-2.5507,-2.5507,-2.5971,-2.6745,-2.7271,-2.8005,-2.8826,-2.8826,-2.826,-2.7449,0.0,-1.6904,-1.7167,-1.7396,-1.7635,-1.78,-1.78,-1.78,-1.7811,0.0,-1.7867,-1.7939,-1.8068,-1.8518,-1.8878,-1.9078,-1.9129,-1.8845,-1.8125,-1.8196,-1.7992,-1.7393,-1.7493,-1.7627,-1.7747,-1.7667,-1.7203,-1.6345,-1.6345,-1.5927,-1.515,-1.5965,-1.6413,-1.6596,-1.7303,-1.8147,-1.9045,-1.9092,0.0,-1.9787,-1.8779,-2.017,0.0,0.0,-2.2677,-2.5326,-2.5302,-2.5293,-2.5279,-2.518,-2.4516,0.0,0.0,0.0,0.0,0.0,-2.2165,0.0,0.0,0.0,0.0,0.0,0.0,0.0,-1.8176,-1.7409,-1.6534,0.0,0.0,0.0,0.0,0.0,0.0,0.0,0.0,0.0,0.0,0.0,0.0,0.0,0.0,0.0,-2.4927,-2.5003,-2.5003,-2.5003,-2.5003,-2.5003,-2.5003,-2.5003,-2.5003,-2.5003,-2.5118,-2.5171,-2.5192,-2.5388,-2.5476,-2.5507,-2.5507,-2.5507,-2.5507,-2.5507,-2.5507,-2.5507,-2.5507,-2.5507,-2.5507,-2.5507,-2.5971,-2.6702,-2.6702,-2.7232,-2.7991,-2.7894,-2.7368,-2.6683,-1.7228,-1.7455,-1.7658,-1.7704,-1.7777,-1.78,-1.78,-1.78,-1.7861,-1.8023,-1.8218,-1.765,-1.5732,-1.7584,-1.899,-1.9024,-1.9271,-1.9353,-1.9212,-1.9221,-1.9175,-1.9046,-1.9151,-1.9244,-1.9262,-1.8742,-1.8069,-1.7241,-1.7241,-1.681,-1.5984,-1.6847,-1.7606,-1.8246,-1.8392,-1.8997,-1.9864,-1.9935,0.0,-1.7517,-2.0656,0.0,-2.2948,-2.4049,-2.4873,-2.5448,-2.5339,-2.5269,-2.518,-2.4955,-2.4702,-2.4373,0.0,0.0,0.0,-2.3872,0.0,0.0,0.0,0.0,0.0,0.0,0.0,0.0,-2.0514,-1.9443,-1.86,0.0,0.0,0.0,0.0,0.0,0.0,0.0,0.0,0.0,0.0,0.0,0.0,0.0,0.0,0.0,-2.4927,-2.5003,-2.5003,-2.5003,-2.5003,-2.5003,-2.5003,-2.5003,-2.5003,-2.5003,-2.5024,-2.5082,-2.5192,-2.5243,-2.5341,-2.5507,-2.5507,-2.5507,-2.5507,-2.5507,-2.5507,-2.5507,-2.5507,-2.5507,-2.5507,-2.5507,-2.5971,-2.6702,-2.6702,-2.7232,-2.7914,-2.7213,-2.6841,-2.6605,-1.7203,-1.7425,-1.7601,-1.7601,-1.7704,-1.78,-1.78,-1.7894,-1.7997,-1.809,-1.841,-1.7727,-1.527,-1.7479,-1.9146,-1.9146,-1.9357,-1.9499,-1.9499,-1.9553,-1.9612,-1.9612,-1.9757,-1.986,-1.986,-1.952,-1.8946,-1.8107,-1.8107,-1.7677,-1.6866,-1.7714,-1.7658,-1.6928,-1.8636,-1.8945,-1.8313,0.0,-2.0139,-1.9064,-1.9996,0.0,-2.1099,-2.2441,-2.4018,-2.548,-2.5312,-2.5127,-2.4677,-2.2899,-2.3335,0.0,0.0,-2.3225,-2.4464,0.0,-2.4247,-2.4192,0.0,0.0,0.0,-2.3174,0.0,0.0,0.0,-1.9406,-1.8547,0.0,0.0,0.0,0.0,0.0,0.0,0.0,0.0,0.0,0.0,0.0,0.0,0.0,0.0,0.0,-2.4871,-2.5003,-2.5003,-2.5003,-2.5003,-2.5003,-2.5003,-2.5003,-2.5003,-2.5003,-2.5031,-2.5082,-2.514,-2.519,-2.5042,-2.4762,-2.5158,-2.5139,-2.4762,-2.5198,-2.5404,-2.5408,-2.5476,-2.526,-2.4892,-2.5318,-2.5488,-2.5507,-2.5932,-2.6377,-2.6691,-2.6261,-2.6107,-2.6048,-1.7154,-1.7325,-1.7467,-1.7467,-1.7647,-1.78,-1.78,-1.7958,-1.7966,-1.7594,-1.833,-1.8044,-1.5769,-1.7987,-1.969,-1.9845,-1.9393,-1.9387,-2.0035,-1.957,-1.9281,-1.9281,-1.99,-1.9936,-1.9273,-1.9747,-1.9571,-1.8694,-1.8865,-1.8524,-1.7747,-1.8732,-1.8127,-1.6299,-1.8592,-1.8843,-1.7692,0.0,0.0,-2.0862,0.0,-1.8874,-2.0163,-2.1027,-2.3068,-2.5427,-2.5205,-2.4924,-2.4272,-2.1605,-2.2406,-2.4035,-2.138,-2.2354,0.0,0.0,0.0,0.0,0.0,0.0,0.0,0.0,0.0,-2.2642,0.0,0.0,0.0,0.0,0.0,0.0,0.0,0.0,0.0,0.0,0.0,0.0,0.0,0.0,0.0,0.0,0.0,0.0,0.0,-2.4922,-2.495,-2.5003,-2.5003,-2.5003,-2.5003,-2.5003,-2.5003,-2.5003,-2.5038,-2.5012,-2.4859,-2.4897,-2.453,-2.377,-2.4584,-2.4623,-2.4038,-2.4885,-2.5274,-2.5298,-2.5391,-2.4953,-2.4238,-2.5088,-2.4934,-2.4242,-2.5151,-2.5507,-2.5507,-2.5507,-2.5507,-2.5507,-1.7721,-1.7726,-1.7755,-1.7755,-1.7789,-1.78,-1.78,-1.7958,-1.7483,-1.5768,-1.7705,-1.861,-1.689,-1.9166,-2.1081,-2.1807,-1.9328,0.0,-2.1966,0.0,-1.7747,-1.7747,-1.9888,-1.9671,-1.6705,-1.8837,-1.9571,-1.8694,-1.9476,-1.942,-1.86,-2.0177,-2.0801,-2.0489,-1.8631,0.0,0.0,0.0,-1.8612,0.0,-1.9067,-2.084,0.0,-2.4456,-2.498,-2.5279,-2.4968,-2.4741,-2.4559,0.0,-2.42,-2.4425,0.0,-2.4202,-2.4465,-2.4266,0.0,0.0,0.0,0.0,0.0,0.0,-2.2963,0.0,0.0,0.0,-2.0929,-2.1307,0.0,0.0,0.0,0.0,0.0,0.0,0.0,0.0,0.0,0.0,0.0,0.0,0.0,0.0,0.0,-2.4634,-2.4817,-2.4996,-2.5003,-2.5003,-2.5003,-2.5003,-2.5003,-2.5003,-2.5017,-2.4664,-2.3944,-2.3955,-2.3591,-2.2853,-2.3712,-2.4091,-2.4033,-2.4844,-2.5208,-2.5208,-2.5238,-2.4763,-2.4096,-2.4898,-2.4763,-2.4111,-2.5099,-2.5507,-2.5507,-2.5507,-2.5507,-2.5507,-1.78,-1.7888,-1.7943,-1.7822,-1.8031,-1.8152,-1.8008,-1.8676,-1.8454,-1.6348,-1.8705,-1.9827,0.0,0.0,0.0,0.0,0.0,-1.8927,0.0,0.0,-1.8378,-2.0316,-2.1396,-2.1301,-1.9885,-2.0903,-2.1017,-2.0158,-2.1017,-2.0998,-2.0177,-2.1396,-2.1172,-1.9815,-2.0308,0.0,-2.0585,0.0,-2.1696,0.0,0.0,0.0,0.0,-2.2973,-2.3506,-2.5099,-2.4877,-2.4704,-2.4292,0.0,-2.2911,0.0,0.0,0.0,0.0,0.0,0.0,0.0,0.0,0.0,0.0,0.0,0.0,0.0,-2.3439,0.0,-2.2596,0.0,0.0,0.0,0.0,0.0,0.0,0.0,-2.111,0.0,0.0,0.0,0.0,0.0,0.0,0.0,0.0,0.0,0.0,0.0,-2.3913,-2.4171,-2.4238,-2.4738,-2.4776,-2.4264,-2.4245,-2.3866,-2.3049,-2.3049,-2.2635,-2.1842,-2.3195,-2.3576,-2.3157,-2.4003,-2.4388,-2.435,-2.3936,-2.3266,-2.2595,-2.3956,-2.3707,-2.2623,-2.4067,-2.494,-2.538,-2.538,-2.5421,-2.5507,-1.8608,-1.8347,-1.8186,-1.8455,-1.8676,-1.8833,-1.8909,-1.9702,-1.9767,-1.8271,-2.0149,0.0,-1.9796,-2.1331,0.0,0.0,-2.0032,-1.9609,0.0,0.0,-1.8851,0.0,0.0,0.0,-2.0121,-2.1661,-2.2192,-2.1566,-2.2155,-2.2136,-2.1566,-2.2395,-2.1814,-2.0118,0.0,-2.1393,-2.0715,0.0,-2.3612,-2.4555,-2.508,-2.5293,-2.5024,-2.2493,-2.2993,-2.5,-2.4835,-2.4716,-2.4246,-2.1779,-2.254,0.0,-2.1696,0.0,0.0,0.0,0.0,0.0,-2.3827,0.0,0.0,0.0,0.0,0.0,0.0,0.0,0.0,0.0,0.0,0.0,0.0,0.0,0.0,0.0,0.0,0.0,0.0,0.0,0.0,0.0,0.0,0.0,0.0,0.0,0.0,0.0,0.0,-2.3316,-2.3682,-2.4302,-2.4359,-2.3727,-2.3689,-2.3196,-2.2154,-2.2135,-2.1832,-2.1219,-2.2684,-2.3063,-2.2539,-2.3384,-2.3642,-2.3419,-2.2887,-2.2148,-2.1455,-2.2971,-2.2703,-2.1493,-2.3009,-2.398,-2.4591,-2.4841,-2.5013,-2.511,-2.0651,-1.9303,-1.8566,-2.0068,-1.9907,-1.9888,-2.0866,-2.1049,-2.119,0.0,0.0,0.0,0.0,0.0,0.0,0.0,0.0,-2.1339,-2.47,0.0,-1.8529,0.0,0.0,-2.0613,0.0,-1.9571,-2.2495,-2.2457,-2.235,-2.235,-2.2476,-2.3157,-2.3486,-2.3423,-2.0929,-2.1694,-2.4689,-2.149,-2.212,-2.5263,-2.5297,-2.5297,-2.5279,0.0,-2.5018,-2.5055,-2.4808,0.0,0.0,-2.4418,-2.4407,0.0,0.0,0.0,0.0,0.0,0.0,0.0,0.0,0.0,0.0,-2.3735,0.0,0.0,0.0,0.0,-2.3505,0.0,0.0,0.0,0.0,0.0,0.0,0.0,0.0,0.0,0.0,0.0,0.0,0.0,0.0,0.0,0.0,0.0,0.0,0.0,0.0,0.0,-2.3644,-2.3727,-2.3727,-2.3689,-2.3689,-2.2912,-2.1263,-2.1238,-2.1219,-2.12,-2.2116,-2.2514,-2.2533,-2.3335,-2.3278,-2.2539,-2.2526,-2.2014,-2.1288,-2.2185,-2.2014,-2.1307,-2.2204,-2.2591,-2.2811,-2.3706,-2.4038,-2.4158,-2.1404,-2.0742,-2.0206,-2.06,-2.0763,-2.0992,-2.1425,-2.1944,0.0,0.0,0.0,0.0,0.0,-2.4328,-2.4525,0.0,0.0,-2.1415,-2.4776,-2.1851,0.0,0.0,0.0,-2.3455,0.0,0.0,0.0,-2.3226,-2.3721,-2.3702,-2.3245,-2.3963,-2.4324,-2.4315,0.0,-2.3802,0.0,0.0,0.0,0.0,0.0,-2.5298,-2.5288,0.0,0.0,-2.5138,-2.485,-2.4778,0.0,-2.4555,-2.45,-2.45,-2.45,-2.45,-2.4491,-2.442,-2.4303,0.0,0.0,0.0,-2.4096,-2.3937,0.0,0.0,0.0,0.0,0.0,0.0,0.0,0.0,0.0,0.0,0.0,0.0,0.0,0.0,0.0,0.0,0.0,0.0,0.0,0.0,0.0,0.0,0.0,0.0,0.0,0.0,0.0,-2.3405,-2.3689,-2.3689,-2.3689,-2.3177,-2.2078,-2.2059,-2.2059,-2.2059,-2.2362,-2.2495,-2.2495,-2.2173,-2.1907,-2.1604,-2.1074,-2.0676,-2.0499,-2.1926,-2.1661,-2.0562,-2.1945,-2.1836,-2.1122,-2.3127,-2.3924,-2.411,-2.2465,-2.2303,-2.1995,0.0,0.0,0.0,0.0,0.0,0.0,0.0,-2.4182,0.0,-2.4776,0.0,-2.4853,0.0,-2.3032,-2.2684,-2.4852,-2.2975,0.0,-2.3152,-2.4352,0.0,0.0,0.0,0.0,0.0,0.0,-2.4471,-2.3992,-2.4432,-2.4637,-2.4668,0.0,-2.4768,-2.4905,0.0,-2.5096,0.0,0.0,-2.5327,0.0,0.0,-2.5203,-2.5152,0.0,-2.4737,-2.473,-2.4555,-2.45,-2.45,-2.45,-2.45,-2.45,-2.45,-2.4411,-2.4312,-2.4312,-2.4312,0.0,-2.4056,-2.3996,0.0,-2.3685,0.0,0.0,0.0,0.0,0.0,0.0,0.0,0.0,0.0,0.0,0.0,0.0,-2.3505,0.0,0.0,0.0,0.0,0.0,0.0,0.0,0.0,0.0,0.0,0.0,0.0,-2.3405,-2.3689,-2.3689,-2.331,-2.2514,-2.2495,-2.2495,-2.2495,-2.2495,-2.2343,-2.2021,-2.1453,-2.103,-2.0746,-2.0234,-2.0007,-2.0102,-2.1472,-2.1396,-2.0518,-2.1623,-2.1377,-2.0662,-2.2623,-2.3772,-2.4435,-2.3764,-2.3806,-2.3732,0.0,-2.3667,0.0,0.0,0.0,-2.4266,0.0,-2.4715,-2.4795,-2.499,-2.5003,-2.5003,-2.5003,-2.5003,-2.5003,-2.5003,-2.5003,0.0,0.0,-2.3266,-2.3474,-2.022,0.0,0.0,0.0,0.0,0.0,-2.4692,-2.4557,-2.4524,-2.4599,-2.4534,0.0,-2.4689,-2.4759,-2.4956,-2.5203,-2.5406,-2.5369,-2.52,-2.517,-2.5189,-2.5122,-2.4738,-2.465,-2.4674,-2.4549,-2.45,-2.45,-2.45,-2.45,-2.45,-2.45,-2.45,-2.45,-2.45,-2.45,-2.4411,-2.4095,0.0,0.0,0.0,0.0,-2.3505,0.0,0.0,0.0,0.0,0.0,0.0,0.0,0.0,0.0,0.0,0.0,0.0,0.0,0.0,0.0,0.0,0.0,0.0,0.0,0.0,0.0,0.0,0.0,-2.2925,-2.3746,-2.3765,-2.3405,-2.2628,-2.2609,-2.259,-2.2552,-2.2514,-2.204,-2.12,-2.1163,-2.0727,-2.0007,-2.0007,-2.0007,-2.0064,-2.0916,-2.1238,-2.12,-2.1295,-2.1314,-2.1415,-2.2211,-2.3563,-2.5003,-2.3785,-2.3806,-2.3785,0.0,-2.3764,-2.3911,0.0,0.0,0.0,0.0,-2.4922,-2.4943,-2.4977,-2.5003,-2.5003,-2.5003,-2.5003,0.0,0.0,0.0,0.0,-2.3727,-2.4529,-2.4513,-2.3493,-2.4338,0.0,-2.4645,0.0,0.0,-2.4613,-2.4532,-2.4508,-2.4515,0.0,0.0,-2.4689,-2.4759,-2.493,-2.5132,-2.5126,-2.5103,0.0,0.0,-2.483,-2.4816,-2.4704,-2.4693,-2.4674,-2.4549,-2.45,-2.45,-2.45,-2.45,-2.45,-2.45,-2.45,-2.45,-2.45,-2.45,-2.4437,-2.4219,-2.4067,-2.3945,0.0,0.0,0.0,0.0,0.0,0.0,0.0,0.0,0.0,0.0,0.0,0.0,0.0,0.0,0.0,-2.3505,0.0,0.0,0.0,0.0,0.0,0.0,0.0,0.0,0.0,0.0,0.0,-2.4636,-2.4662,-2.4567,-2.4359,-2.4359,-2.4036,-2.3386,-2.2779,-2.204,-2.1181,-2.0575,-2.0196,-2.0007,-2.0007,-2.0007,-2.0102,-2.1566,-2.1775,-2.1314,-2.2571,-2.3063,-2.3007,-2.2646,-2.3563,-2.5003,-2.3761,-2.3827,0.0,-2.3929,0.0,0.0,-2.4363,-2.4458,0.0,-2.4957,-2.5003,0.0,-2.5003,-2.5003,-2.5003,-2.5003,-2.5003,0.0,-2.5003,0.0,0.0,-2.5003,-2.495,-2.4868,-2.4753,-2.3317,0.0,-2.4607,0.0,0.0,-2.4549,-2.4525,-2.45,-2.45,0.0,-2.4574,-2.4715,-2.4832,-2.4942,-2.5043,-2.5019,-2.4955,0.0,-2.4741,-2.467,-2.461,-2.461,-2.461,-2.4594,-2.4524,-2.45,-2.45,-2.45,-2.45,-2.45,-2.45,-2.45,-2.45,-2.45,-2.4429,-2.4321,-2.4163,-2.3988,-2.3816,-2.3653,-2.3549,-2.3505,0.0,0.0,0.0,0.0,0.0,0.0,0.0,0.0,0.0,0.0,0.0,0.0,0.0,-2.356,0.0,0.0,0.0,0.0,0.0,0.0,0.0,0.0,0.0,0.0,-2.4659,-2.4685,-2.4573,-2.4294,-2.4294,-2.3736,-2.2609,-2.2154,-2.149,-2.0651,-2.0215,-2.0007,-2.0007,-2.0007,-2.0007,-2.0121,-2.1813,-2.2211,-2.1907,-2.3196,-2.3689,-2.3651,-2.3196,-2.3866,-2.5003,-2.3754,-2.3878,0.0,0.0,0.0,0.0,0.0,-2.4586,0.0,-2.495,0.0,-2.5003,-2.5003,-2.5003,-2.5003,-2.5003,0.0,-2.4996,-2.4971,-2.4971,-2.4964,-2.4957,-2.4842,-2.4779,-2.4764,-2.1852,-2.1744,0.0,0.0,0.0,-2.4517,-2.4517,-2.4508,0.0,0.0,0.0,0.0,-2.4891,-2.4954,-2.4961,-2.4942,-2.484,-2.4659,-2.4659,-2.4594,-2.45,-2.45,-2.45,-2.45,-2.45,-2.45,-2.45,-2.45,-2.45,-2.45,-2.45,-2.45,-2.45,-2.4474,-2.433,-2.4163,-2.3998,-2.3827,-2.3667,-2.3533,-2.3505,-2.3505,-2.3505,-2.3416,-2.3148,0.0,0.0,0.0,0.0,0.0,0.0,0.0,0.0,0.0,0.0,0.0,0.0,0.0,0.0,0.0,0.0,0.0,0.0,0.0,0.0,0.0,-2.4264,-2.4207,-2.3919,-2.3394,0.0,-2.278,-2.12,-2.1415,-2.0992,-2.0007,-2.024,-2.0221,-2.0007,-2.0102,-2.0158,-2.0278,-2.1851,-2.2628,-2.2899,-2.3594,-2.3859,-2.3859,-2.3859,-2.4359,-2.5003,-2.3929,0.0,0.0,0.0,0.0,-2.4564,-2.4564,-2.4645,-2.4738,-2.4827,-2.4924,-2.5003,-2.5003,-2.5003,-2.5003,-2.5003,-2.5003,0.0,0.0,0.0,0.0,-2.4753,-2.473,-2.4692,-2.4647,-2.4044,-2.4028,0.0,0.0,0.0,-2.4582,-2.4582,0.0,0.0,0.0,0.0,-2.4708,-2.4734,0.0,-2.4741,-2.4626,-2.4574,-2.4532,-2.4532,-2.4515,-2.45,-2.45,-2.45,-2.45,-2.45,-2.45,-2.45,-2.45,-2.45,-2.45,-2.45,-2.45,-2.4455,-2.4303,-2.422,-2.4135,-2.3837,-2.3724,-2.3667,-2.3533,-2.3505,-2.3505,-2.3505,-2.2981,-2.266,-2.3184,0.0,0.0,0.0,0.0,0.0,0.0,0.0,0.0,0.0,0.0,-2.3631,0.0,0.0,0.0,0.0,0.0,0.0,0.0,0.0,0.0,0.0,-2.3729,0.0,0.0,0.0,-2.3419,-2.1219,-2.2609,-2.2116,-2.0045,-2.1434,-2.1301,-2.0045,-2.0689,-2.0992,-2.1068,-2.2078,-2.3316,-2.4586,-2.4719,-2.4776,-2.4776,-2.4776,-2.4871,-2.5003,0.0,0.0,0.0,0.0,0.0,0.0,0.0,-2.5281,0.0,-2.4843,-2.4849,-2.4896,-2.4896,-2.4896,-2.4882,-2.4846,-2.4846,-2.4824,-2.4742,-2.4761,-2.4719,-2.4707,-2.4668,0.0,-2.4607,-2.2898,-2.2845,-2.4541,0.0,0.0,-2.4607,0.0,0.0,-2.4607,0.0,-2.4596,0.0,0.0,0.0,-2.4578,-2.4524,-2.45,-2.45,-2.45,-2.45,-2.45,-2.45,-2.45,-2.45,-2.45,-2.45,-2.45,-2.45,-2.45,-2.45,-2.45,-2.45,-2.4465,-2.4248,-2.4144,-2.4037,-2.3774,-2.3646,-2.3582,-2.351,-2.3505,-2.3505,-2.3505,-2.3184,-2.3053,-2.3434,-2.3505,0.0,0.0,0.0,0.0,0.0,0.0,0.0,0.0,0.0,0.0,0.0,0.0,0.0,0.0,0.0,0.0,0.0,0.0,0.0,0.0,0.0,0.0,0.0,0.0,0.0,-2.1515,-2.2334,-2.2159,-2.1174,-2.1978,-2.1966,-2.132,-2.1718,-2.187,-2.1945,-2.2779,-2.3866,-2.5003,-2.5003,-2.5003,-2.5003,-2.5003,-2.5003,-2.5003,0.0,-2.4736,0.0,0.0,-2.6053,0.0,-2.583,-2.5679,-2.5408,-2.4828,-2.4764,-2.4772,-2.4772,-2.4772,-2.4768,-2.4707,-2.47,-2.4692,-2.4676,-2.4676,-2.4668,-2.4653,-2.4615,-2.4582,-2.4582,-2.1995,-2.1916,0.0,0.0,0.0,0.0,0.0,0.0,0.0,0.0,0.0,0.0,0.0,-2.4557,-2.45,-2.45,-2.45,-2.45,-2.45,-2.45,-2.45,-2.45,-2.45,-2.45,-2.45,-2.45,-2.45,-2.45,-2.45,-2.4491,-2.4437,-2.4429,-2.4393,-2.4163,-2.4018,-2.3886,-2.37,-2.3582,-2.3505,-2.3505,-2.3505,-2.3505,-2.3505,-2.3505,-2.3505,-2.3505,-2.3505,0.0,0.0,0.0,0.0,0.0,0.0,0.0,0.0,0.0,0.0,-2.2118,0.0,0.0,0.0,0.0,-2.1097,-2.11,-2.0947,-2.1089,0.0,0.0,-2.2279,-2.1889,0.0,-2.2603,-2.1775,-2.221,-2.2322,-2.218,-2.2612,-2.2682,-2.2514,-2.2684,-2.276,-2.2817,-2.3632,-2.4378,-2.5003,-2.5003,-2.5003,-2.5003,-2.5003,-2.5003,-2.5003,0.0,0.0,0.0,0.0,0.0,0.0,-2.5794,-2.5118,-2.4625,-2.4615,-2.4668,-2.4715,-2.4715,-2.4715,-2.4707,-2.47,-2.47,-2.4676,-2.4604,-2.4615,-2.4582,-2.4525,-2.4517,-2.4508,-2.4508,-2.4202,-2.4217,0.0,0.0,-2.4392,0.0,0.0,0.0,0.0,0.0,0.0,0.0,-2.4574,-2.4557,-2.45,-2.45,-2.45,-2.45,-2.45,-2.45,-2.45,-2.45,-2.45,-2.45,-2.45,-2.45,-2.45,-2.45,-2.45,-2.4455,-2.4284,-2.4229,-2.4163,-2.3829,-2.3735,-2.37,-2.3538,-2.3517,-2.3505,-2.3505,-2.3505,-2.3505,-2.3505,-2.3505,-2.3505,-2.3505,-2.3505,-2.3505,0.0,0.0,0.0,0.0,0.0,0.0,0.0,0.0,0.0,0.0,-2.0608,0.0,0.0,-2.0164,-2.0414,-2.1072,-2.0466,-2.0743,-2.2157,0.0,-2.256,-2.2531,-2.3479,-2.3208,-2.1733,-2.3499,-2.3565,-2.2162,-2.3936,-2.3929,-2.2533,-2.3272,-2.3594,-2.3651,-2.4529,-2.4927,-2.5003,-2.5003,-2.5003,-2.5003,-2.5003,-2.5003,-2.5003,0.0,0.0,0.0,0.0,0.0,0.0,0.0,-2.5856,-2.5605,-2.4654,-2.4599,-2.4637,-2.4637,-2.4637,-2.4613,-2.4582,-2.4582,-2.4566,-2.4532,-2.4532,-2.4534,-2.45,-2.45,-2.45,-2.45,-2.45,-2.4517,0.0,0.0,0.0,0.0,0.0,0.0,0.0,0.0,-2.4557,-2.45,-2.4534,-2.4515,-2.45,-2.45,-2.45,-2.45,-2.45,-2.45,-2.45,-2.45,-2.45,-2.45,-2.45,-2.45,-2.45,-2.45,-2.442,-2.4303,-2.422,-2.4144,-2.4027,-2.3767,-2.3703,-2.3667,-2.3533,-2.3505,-2.3505,-2.3505,-2.3505,-2.3505,-2.3505,-2.3505,-2.3505,-2.3505,-2.3505,-2.3505,0.0,0.0,0.0,0.0,0.0,0.0,0.0,0.0,0.0,0.0,0.0,0.0,0.0,0.0,-1.9627,-2.0394,-1.9698,-2.0022,-2.1652,0.0,-2.197,-2.254,-2.3342,-2.3453,-2.2843,-2.3709,-2.3878,-2.3448,-2.4342,-2.4422,-2.383,-2.4024,-2.4117,-2.4155,-2.4492,-2.465,-2.465,-2.465,-2.465,-2.4657,-2.4768,-2.4824,-2.4839,-2.7532,0.0,-2.7576,0.0,-2.783,-2.7671,-2.5959,-2.6182,-2.6052,-2.4685,-2.4532,-2.4566,-2.4566,-2.4566,-2.4549,-2.4508,-2.45,-2.45,-2.45,-2.45,-2.45,-2.45,-2.45,0.0,-2.45,-2.45,-2.45,-2.45,-2.4566,0.0,0.0,0.0,0.0,0.0,-2.4566,-2.4532,-2.45,-2.45,-2.45,-2.45,-2.45,-2.45,-2.45,-2.45,-2.45,-2.45,-2.45,-2.45,-2.45,-2.45,-2.45,-2.45,-2.45,-2.4402,-2.4284,-2.422,-2.4125,-2.4008,-2.3774,-2.3703,-2.3667,-2.3533,-2.3505,-2.3505,-2.3505,-2.3505,-2.3505,-2.3505,-2.3505,-2.3505,-2.3505,-2.3505,-2.3505,-2.3505,0.0,0.0,0.0,0.0,0.0,0.0,-2.316,-2.2839,-2.2029,-2.1429,0.0,0.0,0.0,0.0,-2.0287,-2.0019,-2.0362,0.0,0.0,0.0,-2.2794,-2.3258,-2.3528,-2.3573,-2.3779,-2.3971,-2.4229,-2.4452,-2.4561,-2.461,-2.4449,-2.4398,-2.4398,-2.4398,-2.4398,-2.4398,-2.4398,-2.4398,-2.4415,-2.4626,-2.47,-2.473,-2.9071,-2.9225,-2.9099,-2.8244,-2.8096,-2.7557,-2.5949,-2.5708,-2.5429,-2.4611,-2.45,-2.45,-2.45,-2.45,-2.45,-2.45,-2.45,-2.45,-2.45,-2.45,-2.45,0.0,0.0,-2.45,-2.45,-2.45,-2.45,-2.45,0.0,0.0,-2.4607,0.0,-2.4566,-2.45,-2.45,-2.45,-2.45,-2.45,-2.45,-2.45,-2.45,-2.45,-2.45,-2.45,-2.45,-2.45,-2.45,-2.45,-2.45,-2.45,-2.45,-2.45,-2.45,-2.45,-2.4465,-2.4266,-2.4201,-2.4116,-2.3788,-2.3703,-2.3667,-2.3533,-2.3505,-2.3505,-2.3505,-2.3505,-2.3505,-2.3505,-2.3505,-2.3505,-2.3505,-2.3505,-2.3505,-2.3505,0.0,0.0,0.0,0.0,0.0,-2.2421,-2.2314,-2.2011,-2.1197,-2.1108,0.0,0.0,0.0,0.0,0.0,0.0,0.0,-2.2278,-2.3071,0.0,-2.3487,-2.3505,-2.3505,-2.3505,-2.3831,-2.3996,-2.4016,-2.4284,-2.4398,-2.4398,-2.4398,-2.4398,-2.4398,-2.4398,-2.4398,-2.4398,-2.4398,-2.4398,-2.4415,-2.4626,-2.47,-2.473,-2.9294,-2.9365,-2.9118,-2.8244,-2.8096,-2.7557,-2.5949,-2.5708,-2.541,-2.4611,-2.45,-2.45,-2.45,-2.45,-2.45,0.0,-2.45,-2.45,0.0,-2.45,-2.45,-2.45,-2.45,-2.45,-2.45,-2.45,-2.45,-2.45,0.0,0.0,0.0,-2.4524,-2.4525,-2.45,-2.45,-2.45,-2.45,-2.45,-2.45,-2.45,-2.45,-2.45,-2.45,-2.45,-2.45,-2.45,-2.45,-2.45,-2.45,-2.45,-2.45,-2.45,-2.45,-2.4411,-2.4284,-2.422,-2.4135,-2.4027,-2.3927,-2.3907,-2.3886,-2.3852,-2.3728,-2.3642,-2.3642,-2.356,-2.3505,-2.3505,-2.3505,-2.3505,-2.3505,-2.3505,-2.3505,-2.3505,-2.3505,0.0,0.0,0.0,0.0,-2.316,-2.3113,-2.3024,-2.2756,-2.2232,0.0,0.0,0.0,0.0,0.0,0.0,0.0,0.0,-2.2839,0.0,-2.3487,-2.3505,-2.3505,-2.3505,-2.3696,-2.3888,-2.4068,-2.4115,-2.4135,-2.4118,-2.4019,-2.3979,-2.3991,-2.3991,-2.3991,-2.4001,-2.4136,-2.4192,-2.4229,-2.4578,-2.47,-2.473,-2.9396,-2.9396,-2.9118,-2.8244,-2.8096,-2.7557,-2.5949,-2.5708,-2.541,-2.4611,-2.45,-2.45,-2.45,-2.45,0.0,-2.45,-2.45,-2.45,-2.45,-2.45,-2.45,-2.45,-2.45,-2.45,-2.45,-2.45,0.0,-2.45,-2.45,-2.45,-2.45,-2.45,-2.45,-2.45,-2.45,-2.45,-2.45,-2.45,-2.45,-2.45,-2.45,-2.45,-2.45,-2.45,-2.45,-2.45,-2.45,-2.45,-2.45,-2.45,-2.45,-2.45,-2.45,-2.4411,-2.4312,-2.4312,-2.4247,-2.4172,-2.4105,-2.4085,-2.4047,-2.4016,-2.3837,-2.37,-2.3642,-2.356,-2.3505,-2.3505,-2.3505,-2.3505,-2.3505,-2.3505,-2.3505,-2.3505,-2.3505,-2.3505,-2.3505,0.0,0.0,0.0,0.0,0.0,0.0,-2.3053,-2.2963,0.0,0.0,0.0,0.0,0.0,0.0,-2.347,-2.3006,0.0,-2.3505,-2.3505,-2.3505,-2.3505,-2.3616,-2.3771,-2.3958,-2.3915,-2.3886,-2.3888,-2.3828,-2.3797,-2.3792,-2.3795,-2.3806,-2.3816,-2.3949,-2.3999,-2.4039,-2.4337,-2.4468,-2.4493,-2.9396,-2.9396,-2.9136,0.0,-2.8133,0.0,-2.6024,-2.5745,-2.541,-2.4611,-2.45,-2.45,-2.45,-2.45,-2.45,-2.45,0.0,0.0,0.0,-2.45,-2.45,-2.45,-2.45,-2.45,-2.45,-2.45,-2.45,-2.45,-2.45,-2.45,-2.45,-2.45,-2.45,-2.45,-2.45,-2.45,-2.45,-2.45,-2.45,-2.45,-2.45,-2.45,-2.45,-2.45,-2.45,-2.45,-2.45,-2.45,-2.45,-2.45,-2.45,-2.45,-2.45,-2.45,-2.45,-2.45,-2.45,-2.4465,-2.4257,-2.422,-2.4182,-2.4056,-2.3865,-2.3667,-2.3533,-2.3505,-2.3505,-2.3505,-2.3505,-2.3505,-2.3505,-2.3505,-2.3505,-2.3505,-2.3505,-2.3505,-2.3505,0.0,-2.3505,0.0,0.0,0.0,-2.3505,-2.3505,-2.3505,0.0,0.0,0.0,0.0,0.0,-2.3505,-2.3505,-2.3505,-2.3505,-2.3505,-2.3505,-2.3505,-2.3505,-2.3562,-2.3629,-2.3689,-2.3689,-2.3689,-2.37,-2.3761,-2.3793,-2.3786,-2.3792,-2.3795,-2.3795,-2.3816,-2.3827,-2.3847,-2.4058,-2.4107,-2.4154,0.0,0.0,-2.9322,-2.9118,-2.8542,-2.7761,-2.6758,-2.6089,-2.541,-2.4611,-2.45,-2.45,-2.45,-2.45,-2.45,-2.45,-2.45,-2.45,-2.45,-2.45,-2.45,-2.45,-2.45,-2.45,-2.45,-2.45,-2.45,-2.45,-2.45,-2.45,-2.45,-2.45,-2.45,-2.45,-2.45,-2.45,-2.45,-2.45,-2.45,-2.45,-2.45,-2.45,-2.45,-2.45,-2.45,-2.45,-2.45,-2.45,-2.45,-2.45,-2.45,-2.45,-2.45,-2.45,-2.45,-2.45,-2.45,-2.4491,-2.4437,-2.4429,-2.4384,-2.4192,-2.3929,-2.3667,-2.3533,-2.3505,-2.3505,-2.3505,-2.3505,-2.3505,-2.3505,-2.3505,-2.3505,-2.3505,-2.3505,-2.3505,-2.3505,-2.3505,-2.3505,0.0,-2.3505,-2.3505,-2.3505,-2.3505,-2.3505,0.0,0.0,0.0,0.0,-2.3505,-2.3505,-2.3505,-2.3505,-2.3505,-2.3505,-2.3505,-2.3505,-2.3505,-2.3517,-2.3539,-2.3551,-2.3551,-2.3573,-2.3618,-2.3641,-2.3685,-2.3721,-2.3775,-2.3797,-2.3818,-2.3959,-2.4039,-2.404,-2.4256,-2.4328,-2.4337,-2.9396,-2.9396,-2.9396,-2.9396,-2.8672,-2.7836,-2.7018,-2.6219,-2.541,-2.4611,-2.45,-2.45,-2.45,-2.45,-2.45,-2.45,-2.45,-2.45,-2.45,-2.45,-2.45,-2.45,-2.45,-2.45,-2.45,-2.45,-2.45,-2.45,-2.45,-2.45,-2.45,-2.45,-2.45,-2.45,-2.45,-2.45,-2.45,-2.45,-2.45,-2.45,-2.45,-2.45,-2.45,-2.45,-2.45,-2.45,-2.45,-2.45,-2.45,-2.45,-2.45,-2.45,-2.45,-2.45,-2.4482,-2.4393,-2.4429,-2.4482,-2.4393,-2.4357,-2.4303,-2.4039,-2.3829,-2.3667,-2.3533,-2.3505,-2.3505,-2.3505,-2.3505,-2.3505,-2.3505,-2.3505,-2.3505,-2.3505,-2.3505,-2.3505,-2.3505,-2.3505,0.0,-2.3505,-2.3505,-2.3505,-2.3505,-2.3505,-2.3505,-2.3505,-2.3505,0.0,-2.3505,-2.3505,-2.3505,-2.3505,-2.3505,-2.3505,-2.3505,-2.3505,-2.3505,-2.3505,-2.3505,-2.3505,-2.3505,-2.3505,-2.3517,-2.3551,-2.3603,-2.3618,-2.3663,-2.3739,-2.3743,-2.3765,-2.3915,-2.3958,-2.3978,-2.4079,-2.4136,-2.4136,-2.9229,-2.9304,-2.9359,-2.9229,-2.8597,-2.7798,-2.6851,-2.6135,-2.541,-2.4611,-2.45,-2.45,-2.45,-2.45,-2.45,-2.45,-2.45,-2.45,-2.45,-2.45,-2.45,-2.45,-2.45,-2.45,-2.45,-2.45,-2.45,-2.45,-2.45,-2.45,-2.45,-2.45,-2.45,-2.45,-2.45,-2.45,-2.45,-2.45,-2.45,-2.45,-2.45,-2.45,-2.45,-2.45,-2.45,-2.45,-2.45,-2.45,-2.45,-2.45,-2.45,-2.45,-2.4455,-2.4446,-2.442,-2.4238,-2.4294,-2.4384,-2.4229,-2.4154,-2.4058,-2.3767,-2.3682,-2.3635,-2.3522,-2.3505,-2.3505,-2.3505,-2.3505,-2.3505,-2.3505,-2.3505,-2.3505,-2.3505,-2.3505,-2.3505,-2.3505,0.0,-2.3505,-2.3505,-2.3505,-2.3505,-2.3505,-2.3505,-2.3505,-2.3505,-2.3505,-2.3505,-2.3505,-2.3505,-2.3505,-2.3505,-2.3505,-2.3505,-2.3505,-2.3505,-2.3505,-2.3505,-2.3505,-2.3505,-2.3505,-2.3505,-2.3505,-2.3505,-2.3562,-2.3573,-2.3585,-2.3663,-2.3678,-2.3689,-2.3772,-2.3775,-2.3793,-2.3792,-2.3785,-2.3803,-2.8449,-2.8895,-2.9174,-2.843,-2.8189,-2.7594,-2.6108,-2.5782,-2.541,-2.4611,-2.45,-2.45,-2.45,-2.45,-2.45,-2.45,-2.45,-2.45,-2.45,-2.45,-2.45,-2.45,-2.45,-2.45,-2.45,-2.45,-2.45,-2.45,-2.45,-2.45,-2.45,-2.45,-2.45,-2.45,-2.45,-2.45,-2.45,-2.45,-2.45,-2.45,-2.45,-2.45,-2.45,-2.45,-2.45,-2.45,-2.45,-2.45,-2.45,-2.45,-2.45,-2.4474,-2.4303,-2.4257,-2.421,-2.4057,-2.4056,-2.4075,-2.4046,-2.3917,-2.3767,-2.3714,-2.3609,-2.3522,-2.3487,-2.3505,-2.3505,-2.3505,-2.3505,-2.3505,-2.3505,-2.3505,-2.3505,-2.3505,-2.3505,-2.3505,-2.3505,0.0,-2.3505,-2.3505,-2.3505,-2.3505,-2.3505,-2.3505,-2.3505,-2.3505,-2.3505,-2.3505,-2.3505,-2.3505,-2.3505,-2.3505,-2.3505,-2.3505,-2.3505,-2.3505,-2.3505,-2.3505,-2.3505,-2.3505,-2.3505,-2.3505,-2.3505,-2.3505,-2.3517,-2.3517,-2.3517,-2.3585,-2.3618,-2.3618,-2.3689,-2.3711,-2.3721,-2.3775,-2.3765,-2.3714,-2.7613,-2.778,-2.7929,-2.752,-2.7445,-2.7055,-2.5875,-2.5708,-2.541,-2.4611,-2.45,-2.45,-2.45,-2.45,-2.45,-2.45,-2.45,-2.45,-2.45,-2.45,-2.45,-2.45,-2.45,-2.45,-2.45,-2.45,-2.45,-2.45,-2.45,-2.45,-2.45,-2.45,-2.45,-2.45,-2.45,-2.45,-2.45,-2.45,-2.45,-2.45,-2.45,-2.45,-2.45,-2.45,-2.45,-2.45,-2.45,-2.45,-2.45,-2.45,-2.45,-2.4455,-2.4257,-2.4201,-2.4154,-2.3909,-2.3837,-2.3837,-2.3837,-2.3718,-2.3587,-2.3587,-2.3555,-2.3505,-2.3505,-2.3505,-2.3505,-2.3505,-2.3505,-2.3505,-2.3505,-2.3505,-2.3505,-2.3505,-2.3505,0.0,0.0,-2.3505,-2.3505,-2.3505,-2.3505,-2.3505,-2.3505,-2.3505,-2.3505,-2.3505,-2.3505,-2.3505,-2.3505,-2.3505,-2.3505,-2.3505,-2.3505,-2.3505,-2.3505,-2.3505,-2.3505,-2.3505,-2.3505,-2.3505,-2.3505,-2.3505,-2.3505,-2.3505,-2.3505,-2.3505,-2.3505,-2.3539,-2.3539,-2.3551,-2.3618,-2.3652,-2.3645,-2.3711,-2.3721,-2.37,-2.7055,-2.6907,-2.6832,-2.6646,-2.6609,-2.6349,-2.554,-2.5429,-2.528,-2.4834,-2.4611,-2.4574,-2.476,-2.4611,-2.45,-2.45,-2.45,-2.45,-2.45,-2.45,-2.45,-2.45,-2.45,-2.45,-2.45,-2.45,-2.45,-2.45,-2.45,-2.45,-2.45,-2.45,-2.45,-2.45,-2.45,-2.45,-2.45,-2.45,-2.45,-2.45,-2.45,-2.45,-2.45,-2.45,-2.45,-2.45,-2.45,-2.45,-2.45,-2.45,-2.45,-2.4465,-2.4238,-2.4154,-2.4096,-2.3753,-2.3646,-2.3657,-2.3682,-2.3598,-2.3505,-2.3505,-2.3505,-2.3505,-2.3505,-2.3505,-2.3505,-2.3505,-2.3505,-2.3505,-2.3505,-2.3505,-2.3505,-2.3505,0.0,0.0,0.0,-2.3505,-2.3505,-2.3505,-2.3505,-2.3505,-2.3505,-2.3505,-2.3505,-2.3505,-2.3505,-2.3505,-2.3505,-2.3505,-2.3505,-2.3505,-2.3505,-2.3505,-2.3505,-2.3505,-2.3505,-2.3505,-2.3505,-2.3505,-2.3505,-2.3505,-2.3505,-2.3505,-2.3505,-2.3505,-2.3505,-2.3505,-2.3505,-2.3505,-2.3551,-2.3573,-2.3585,-2.3645,-2.3667,-2.3656,-2.7055,-2.6907,-2.6665,-2.5931,-2.5801,-2.5522,-2.4704,-2.4592,-2.4834,-2.5522,-2.4964,-2.4778,-2.554,-2.4946,-2.45,-2.45,-2.45,-2.45,-2.45,-2.45,-2.45,-2.45,-2.45,-2.45,-2.45,-2.45,-2.45,-2.45,-2.45,-2.45,-2.45,-2.45,-2.45,-2.45,-2.45,-2.45,-2.45,-2.45,-2.45,-2.45,-2.45,-2.45,-2.45,-2.45,-2.45,-2.45,-2.45,-2.45,-2.45,-2.45,-2.45,-2.4429,-2.4114,-2.4016,-2.3955,-2.3611,-2.351,-2.3544,-2.3667,-2.3598,-2.3505,-2.3505,-2.3505,-2.3505,-2.3505,-2.3505,-2.3505,-2.3505,-2.3505,-2.3505,-2.3505,-2.3505,-2.3505,-2.3505,0.0,0.0,-2.3505,-2.3505,-2.3505,-2.3505,-2.3505,-2.3505,-2.3505,-2.3505,-2.3505,-2.3505,-2.3505,-2.3505,-2.3505,-2.3505,-2.3505,-2.3505,-2.3505,-2.3505,-2.3505,-2.3505,-2.3505,-2.3505,-2.3505,-2.3505,-2.3505,-2.3505,-2.3505,-2.3505,-2.3505,-2.3505,-2.3505,-2.3505,-2.3505,-2.3505,-2.3505,-2.3505,-2.3517,-2.3573,-2.3562,-2.3528,-2.6312,-2.5745,-2.5466,-2.5671,-2.5708,-2.5596,-2.5299,-2.5671,-2.6098,-2.6405,-2.5745,-2.5559,-2.6349,-2.528,-2.4704,-2.5206,-2.4797,-2.45,-2.45,-2.45,-2.45,-2.45,-2.45,-2.45,-2.45,-2.45,-2.45,-2.45,-2.45,-2.45,-2.45,-2.45,-2.45,-2.45,-2.45,-2.45,-2.45,-2.45,-2.45,-2.45,-2.45,-2.45,-2.45,-2.45,-2.45,-2.45,-2.45,-2.45,-2.45,-2.45,-2.45,-2.4465,-2.421,-2.4115,-2.4077,-2.3873,-2.381,-2.3821,-2.3876,-2.3703,-2.3505,-2.3505,-2.356,-2.3598,-2.351,-2.356,-2.3598,-2.3528,-2.3505,-2.3505,-2.3505,-2.3505,-2.3505,-2.3505,0.0,-2.3505,-2.3505,-2.3505,-2.3505,-2.3505,-2.3505,-2.3505,-2.3505,-2.3505,-2.3505,-2.3505,-2.3505,-2.3505,-2.3505,-2.3505,-2.3505,-2.3505,-2.3505,-2.3505,-2.3505,-2.3505,-2.3505,-2.3505,-2.3505,-2.3505,-2.3505,-2.3505,-2.3505,-2.3505,-2.3505,-2.3505,-2.3505,-2.3505,-2.3505,-2.3505,-2.3505,-2.3505,-2.3505,-2.3528,-2.3517,-2.3577,-2.6219,-2.5633,-2.5355,-2.5652,-2.5912,-2.608,-2.608,-2.6553,-2.6981,-2.7241,-2.6572,-2.6293,-2.6832,-2.5903,-2.5373,-2.5671,-2.5429,-2.5243,-2.5243,-2.5243,-2.5039,-2.4518,-2.4741,-2.476,-2.4518,-2.4741,-2.476,-2.45,-2.45,-2.45,-2.45,-2.45,-2.45,-2.45,-2.45,-2.45,-2.45,-2.45,-2.45,-2.45,-2.45,-2.45,-2.45,-2.45,-2.45,-2.45,-2.45,-2.45,-2.45,-2.45,-2.45,-2.4455,-2.4257,-2.4173,-2.4115,-2.4036,-2.3996,-2.3996,-2.3996,-2.3789,-2.3571,-2.3645,-2.3685,-2.3689,-2.3582,-2.3598,-2.3609,-2.351,-2.3505,-2.3505,-2.3505,-2.3505,-2.3505,-2.3505,-2.3505,-2.3505,-2.3505,-2.3505,-2.3505,-2.3505,-2.3505,-2.3505,-2.3505,-2.3505,-2.3505,-2.3505,-2.3505,-2.3505,-2.3505,-2.3505,-2.3505,-2.3505,-2.3505,-2.3505,-2.3505,-2.3505,-2.3505,-2.3505,-2.3505,-2.3505,-2.3505,-2.3505,-2.3505,-2.3505,-2.3505,-2.3505,-2.3505,-2.3505,-2.3505,-2.3505,-2.3505,-2.3505,-2.3505,-2.3505,-2.3666,-2.3915,-2.7055,-2.6907,-2.6646,-2.5838,-2.6368,-2.6907,-2.6907,-2.6907,-2.7204,-2.8003,-2.7408,-2.6907,-2.6925,-2.6907,-2.6572,-2.5801,-2.6442,-2.6888,-2.6907,-2.6907,-2.6182,-2.4592,-2.528,-2.5336,-2.4537,-2.5299,-2.5317,-2.4518,-2.45,-2.45,-2.45,-2.45,-2.45,-2.45,-2.45,-2.45,-2.45,-2.45,-2.45,-2.45,-2.45,-2.45,-2.45,-2.45,-2.45,-2.45,-2.45,-2.45,-2.45,-2.45,-2.45,-2.4474,-2.4275,-2.4106,-2.4006,-2.4006,-2.4006,-2.4006,-2.4006,-2.3865,-2.3746,-2.3937,-2.3855,-2.3703,-2.3692,-2.3605,-2.3505,-2.3505,-2.3505,-2.3505,-2.3505,-2.3505,-2.3505,-2.3505,-2.3505,-2.3505,-2.3505,-2.3505,-2.3505,-2.3505,-2.3505,-2.3505,-2.3505,-2.3505,-2.3505,-2.3505,-2.3505,-2.3505,-2.3505,-2.3505,-2.3505,-2.3505,-2.3505,-2.3505,-2.3505,-2.3505,-2.3505,-2.3505,-2.3505,-2.3505,-2.3505,-2.3505,-2.3505,-2.3505,-2.3505,-2.3505,-2.3505,-2.3505,-2.3505,-2.3505,-2.3505,-2.3505,-2.3505,-2.3505,-2.4022,-2.4605,-2.7055,-2.6907,-2.6646,-2.5838,-2.6832,-2.7557,-2.6981,-2.7891,-2.8728,-2.8969,-2.8263,-2.7966,-2.8579,-2.7092,-2.6423,-2.7315,-2.6572,-2.6293,-2.6851,-2.6907,-2.6684,-2.62,-2.6405,-2.6423,-2.6182,-2.5875,-2.5578,-2.5336,-2.4778,-2.45,-2.45,-2.45,-2.45,-2.45,-2.45,-2.45,-2.45,-2.45,-2.45,-2.45,-2.45,-2.45,-2.45,-2.45,-2.45,-2.45,-2.45,-2.45,-2.45,-2.45,-2.45,-2.4491,-2.4429,-2.4384,-2.4348,-2.4348,-2.4348,-2.4348,-2.4348,-2.4192,-2.4009,-2.3837,-2.3735,-2.3678,-2.3582,-2.3598,-2.3609,-2.351,-2.3505,-2.3505,-2.3505,-2.3505,-2.3505,-2.3505,-2.3505,-2.3701,-2.4254,-2.3862,-2.3719,-2.4284,-2.3844,-2.3505,-2.3505,-2.3505,-2.3505,-2.3505,-2.3505,-2.3505,-2.3505,-2.3505,-2.3505,-2.3505,-2.3505,-2.3505,-2.3505,-2.3505,-2.3505,-2.3505,-2.3505,-2.3505,-2.3505,-2.3505,-2.3505,-2.3505,-2.3505,-2.3505,-2.3505,-2.3505,-2.3505,-2.3505,-2.3505,-2.3844,-2.4337,-2.4337,-2.4819,-2.5515,-2.7538,-2.765,-2.7631,-2.6795,-2.7445,-2.8059,-2.791,-2.8449,-2.9006,-2.9341,-2.8932,-2.8672,-2.8876,-2.7854,-2.7408,-2.8059,-2.7204,-2.6999,-2.7836,-2.7575,-2.752,-2.7873,-2.7891,-2.7575,-2.6907,-2.6739,-2.6479,-2.6163,-2.5689,-2.5448,-2.5448,-2.5448,-2.5448,-2.5448,-2.5448,-2.528,-2.4964,-2.4964,-2.4797,-2.45,-2.45,-2.45,-2.4537,-2.4853,-2.4778,-2.4537,-2.4853,-2.4778,-2.45,-2.45,-2.45,-2.45,-2.45,-2.45,-2.45,-2.45,-2.45,-2.4557,-2.4782,-2.4487,-2.413,-2.4172,-2.3945,-2.3689,-2.3605,-2.3598,-2.3605,-2.3528,-2.3755,-2.3969,-2.3969,-2.4219,-2.4415,-2.4415,-2.4415,-2.4468,-2.4676,-2.4522,-2.4468,-2.4676,-2.4522,-2.429,-2.4005,-2.4236,-2.429,-2.4005,-2.3684,-2.3648,-2.3951,-2.3969,-2.3969,-2.3969,-2.3969,-2.3826,-2.3505,-2.3505,-2.3505,-2.3505,-2.3505,-2.3505,-2.3505,-2.3505,-2.3505,-2.3523,-2.3844,-2.3791,-2.3523,-2.3844,-2.3791,-2.3523,-2.3844,-2.4284,-2.4748,-2.5033,-2.5622,-2.63,-2.8263,-2.8802,-2.9099,-2.8152,-2.804,-2.8337,-2.9155,-2.8616,-2.8412,-2.9285,-2.9396,-2.9099,-2.83,-2.8783,-2.8913,-2.8263,-2.8226,-2.8542,-2.9341,-2.8653,-2.856,-2.937,-2.9396,-2.869,-2.7148,-2.7761,-2.7743,-2.6999,-2.6944,-2.6907,-2.6907,-2.6907,-2.6907,-2.6907,-2.6907,-2.6479,-2.5801,-2.5726,-2.528,-2.4592,-2.4537,-2.4537,-2.4685,-2.5336,-2.5187,-2.4704,-2.5448,-2.5187,-2.45,-2.45,-2.45,-2.45,-2.45,-2.45,-2.45,-2.4482,-2.4482,-2.4605,-2.5223,-2.4744,-2.4226,-2.484,-2.4446,-2.3869,-2.3797,-2.3683,-2.363,-2.3684,-2.4302,-2.4801,-2.4801,-2.5354,-2.58,-2.58,-2.58,-2.5586,-2.4998,-2.5426,-2.5586,-2.498,-2.5426,-2.5551,-2.4855,-2.5408,-2.5515,-2.4855,-2.4112,-2.4022,-2.4766,-2.4801,-2.4801,-2.4801,-2.4801,-2.4462,-2.3719,-2.3719,-2.3648,-2.3505,-2.3577,-2.3612,-2.3612,-2.3684,-2.3719,-2.3737,-2.4409,-2.432,-2.3755,-2.4427,-2.4308,-2.3773,-2.4504,-2.4837,-2.4998,-2.5658,-2.6425,-2.6996,-2.8263,-2.8802,-2.8932,-2.7427,-2.752,-2.7919,-2.8319,-2.8226,-2.8412,-2.9285,-2.9396,-2.9322,-2.9136,-2.8114,-2.7891,-2.9025,-2.9118,-2.9192,-2.9388,-2.9211,-2.9192,-2.9378,-2.9396,-2.9229,-2.8858,-2.8356,-2.8003,-2.7836,-2.7204,-2.6907,-2.6907,-2.6907,-2.6907,-2.6907,-2.6907,-2.6795,-2.6591,-2.5968,-2.5596,-2.5392,-2.476,-2.4871,-2.5392,-2.4927,-2.5039,-2.5466,-2.5652,-2.5187,-2.45,-2.45,-2.45,-2.45,-2.45,-2.45,-2.4474,-2.4312,-2.4275,-2.4404,-2.5063,-2.4987,-2.4888,-2.5654,-2.5584,-2.5201,-2.4611,-2.445,-2.4593,-2.5182,-2.5444,-2.5569,-2.5569,-2.5693,-2.58,-2.58,-2.58,-2.5961,-2.6443,-2.6104,-2.5979,-2.6443,-2.6086,-2.5747,-2.5586,-2.5711,-2.5729,-2.5569,-2.5408,-2.539,-2.5551,-2.5569,-2.5569,-2.5569,-2.5569,-2.5479,-2.5301,-2.5301,-2.47,-2.3505,-2.4129,-2.4444,-2.4462,-2.5051,-2.5301,-2.5283,-2.4873,-2.4926,-2.5271,-2.4873,-2.4944,-2.5306,-2.5497,-2.5943,-2.6527,-2.6688,-2.7246,-2.791,-2.8802,-2.9081,-2.9118,-2.8244,-2.7984,-2.8077,-2.8635,-2.804,-2.7984,-2.9229,-2.9043,-2.8932,-2.9341,-2.8616,-2.8449,-2.9322,-2.9025,-2.8951,-2.9359,-2.8653,-2.856,-2.937,-2.8988,-2.8783,-2.8783,-2.8746,-2.8709,-2.8709,-2.83,-2.8096,-2.8096,-2.8096,-2.8096,-2.8096,-2.8096,-2.7854,-2.7445,-2.7018,-2.6609,-2.6238,-2.5819,-2.5912,-2.6275,-2.6219,-2.6238,-2.6275,-2.6275,-2.5503,-2.45,-2.45,-2.45,-2.45,-2.45,-2.476,-2.4947,-2.4358,-2.4753,-2.5393,-2.5579,-2.5543,-2.5637,-2.6356,-2.6149,-2.5711,-2.5319,-2.5229,-2.5337,-2.5729,-2.6104,-2.6371,-2.6371,-2.6693,-2.6929,-2.6929,-2.6929,-2.696,-2.6978,-2.6978,-2.6921,-2.6903,-2.6868,-2.6837,-2.6837,-2.6564,-2.6371,-2.6371,-2.6371,-2.6371,-2.6371,-2.6371,-2.6371,-2.6371,-2.6371,-2.6193,-2.58,-2.58,-2.5408,-2.4593,-2.5015,-2.5229,-2.5247,-2.5622,-2.58,-2.58,-2.58,-2.58,-2.58,-2.58,-2.58,-2.5854,-2.6229,-2.6621,-2.7063,-2.7424,-2.7839,-2.8196,-2.9396,-2.9396,-2.9396,-2.9396,-2.8635,-2.8337,-2.9248,-2.8096,-2.7594,-2.8988,-2.8672,-2.8542,-2.9118,-2.9304,-2.9341,-2.9192,-2.8653,-2.8635,-2.9341,-2.8096,-2.7947,-2.9341,-2.8709,-2.8319,-2.8319,-2.9025,-2.9322,-2.9174,-2.9322,-2.9396,-2.9396,-2.9396,-2.9396,-2.9396,-2.9396,-2.8988,-2.8319,-2.817,-2.7706,-2.7092,-2.6962,-2.6981,-2.7167,-2.7687,-2.7575,-2.7092,-2.6944,-2.594,-2.4704,-2.4704,-2.4704,-2.4704,-2.4704,-2.5235,-2.5634,-2.4543,-2.5293,-2.6443,-2.6187,-2.6195,-2.6453,-2.7048,-2.6718,-2.6249,-2.6211,-2.6104,-2.6063,-2.6231,-2.6754,-2.721,-2.721,-2.775,-2.8249,-2.8374,-2.8285,-2.7999,-2.7451,-2.7843,-2.7945,-2.7274,-2.7802,-2.8238,-2.8238,-2.7745,-2.746,-2.7585,-2.7598,-2.7598,-2.7598,-2.7598,-2.7531,-2.7406,-2.7406,-2.7014,-2.6229,-2.6198,-2.6198,-2.6198,-2.6341,-2.6282,-2.6015,-2.6145,-2.6198,-2.6234,-2.6764,-2.6693,-2.6247,-2.6782,-2.6693,-2.6269,-2.6942,-2.721,-2.7281,-2.7946,-2.8196,-2.8196,-2.9396,-2.9396,-2.9396,-2.9396,-2.8486,-2.8133,-2.9229,-2.856,-2.8021,-2.8244,-2.882,-2.8969,-2.8356,-2.8951,-2.9099,-2.8337,-2.8858,-2.9266,-2.9378,-2.9192,-2.9155,-2.9378,-2.9285,-2.9211,-2.9211,-2.9341,-2.9025,-2.8282,-2.9025,-2.9396,-2.9396,-2.9396,-2.9396,-2.9396,-2.9396,-2.9322,-2.9174,-2.8412,-2.804,-2.7873,-2.7185,-2.7315,-2.7873,-2.7297,-2.7427,-2.7854,-2.7148,-2.6312,-2.554,-2.554,-2.554,-2.554,-2.554,-2.5967,-2.6172,-2.4643,-2.5119,-2.6164,-2.6105,-2.6622,-2.7288,-2.7893,-2.8094,-2.8096,-2.7915,-2.7335,-2.7066,-2.7947,-2.808,-2.8035,-2.8035,-2.8124,-2.8427,-2.9123,-2.8641,-2.835,-2.8773,-2.845,-2.8354,-2.8744,-2.904,-2.9216,-2.9216,-2.9123,-2.9351,-2.9976,-3.0029,-3.0029,-3.0029,-3.0029,-2.9744,-2.9101,-2.9084,-2.8691,-2.7874,-2.7874,-2.7874,-2.7874,-2.857,-2.8174,-2.6866,-2.7553,-2.7874,-2.7839,-2.7246,-2.7335,-2.7839,-2.7246,-2.7353,-2.7892,-2.7999,-2.8035,-2.8053,-2.816,-2.8196,-2.8196,-2.9396,-2.9396,-2.9396,-2.9396,-2.8988,-2.882,-2.9322,-2.8653,-2.8263,-2.8765,-2.8746,-2.8709,-2.882,-2.9174,-2.9248,-2.8858,-2.9174,-2.9396,-2.9396,-2.8932,-2.8895,-2.9388,-2.8932,-2.8449,-2.8003,-2.8913,-2.8746,-2.7427,-2.8746,-2.9396,-2.9396,-2.9396,-2.9396,-2.9388,-2.8895,-2.8672,-2.8653,-2.8263,-2.7836,-2.7483,-2.8059,-2.8226,-2.8059,-2.7706,-2.7798,-2.7947,-2.6684,-2.6005,-2.5708,-2.5708,-2.6005,-2.6368,-2.6368,-2.678,-2.7043,-2.5923,-2.6553,-2.7507,-2.7053,-2.7441,-2.8034,-2.8303,-2.834,-2.834,-2.8353,-2.8005,-2.7808,-2.8242,-2.8264,-2.8196,-2.8196,-2.8909,-2.9462,-2.9423,-2.9833,-3.006,-2.9809,-2.9538,-2.9432,-2.9581,-2.9789,-2.9896,-2.9896,-3.0377,-3.0636,-3.0511,-3.0921,-3.0975,-3.0514,-3.0496,-3.0157,-2.9423,-2.9797,-2.9654,-2.8873,-2.9283,-2.948,-2.948,-2.9836,-2.9191,-2.771,-2.8499,-2.8624,-2.8178,-2.7821,-2.7874,-2.8178,-2.7821,-2.7874,-2.8196,-2.8196,-2.8196,-2.8196,-2.8196,-2.8196,-2.8196]},{"header":{"parameterUnit":"m.s-1","parameterCategory":1,"la1":30.6,"la2":28.766,"lo1":-90.7593,"lo2":-88.6598,"dy":0.0162,"dx":0.0183,"nx":116,"ny":114,"refTime":"2024-04-16T12:00:00:Z","depth":0,"parameterNumber":3,"parameterNumberName":"V-component_of_WINDS"},"data":[0.0,0.0,0.0,0.0,0.0,0.0,0.0,0.0,0.0,0.0,0.0,0.0,0.0,0.0,0.0,0.0,0.0,0.0,0.0,0.0,0.0,0.0,0.0,0.0,0.0,0.0,0.0,0.0,0.0,0.0,0.0,0.0,0.0,0.0,0.0,0.0,0.0,0.0,0.0,0.0,0.0,0.0,0.0,0.0,0.0,0.0,0.0,0.0,0.0,0.0,0.0,0.0,0.0,0.0,0.0,0.0,0.0,0.0,0.0,0.0,0.0,0.0,0.0,0.0,0.0,0.0,0.0,0.0,0.0,0.0,0.0,0.0,0.0,0.0,0.0,0.0,0.0,0.0,0.0,0.0,0.0,0.0,0.0,0.0,0.0,0.0,0.0,0.0,0.0,0.0,0.0,0.0,0.0,0.0,0.0,0.0,0.0,0.0,0.0,0.0,0.0,0.0,0.0,0.0,0.0,0.0,0.0,0.0,0.0,0.0,0.0,0.0,0.0,0.0,0.0,0.0,0.0,0.0,0.0,0.0,0.0,0.0,0.0,0.0,0.0,0.0,0.0,0.0,0.0,0.0,0.0,0.0,0.0,0.0,0.0,0.0,0.0,0.0,0.0,0.0,0.0,0.0,0.0,0.0,0.0,0.0,0.0,0.0,0.0,0.0,0.0,0.0,0.0,0.0,0.0,0.0,0.0,0.0,0.0,0.0,0.0,0.0,0.0,0.0,0.0,0.0,0.0,0.0,0.0,0.0,0.0,0.0,0.0,0.0,0.0,0.0,0.0,0.0,0.0,0.0,0.0,0.0,0.0,0.0,0.0,0.0,0.0,0.0,0.0,0.0,0.0,0.0,0.0,0.0,0.0,0.0,0.0,0.0,0.0,0.0,0.0,0.0,0.0,0.0,0.0,0.0,0.0,0.0,0.0,0.0,0.0,0.0,0.0,0.0,0.0,0.0,0.0,0.0,0.0,0.0,0.0,0.0,0.0,0.0,0.0,0.0,0.0,0.0,0.0,0.0,0.0,0.0,0.0,0.0,0.0,0.0,0.0,0.0,0.0,0.0,0.0,0.0,0.0,0.0,0.0,0.0,0.0,0.0,0.0,0.0,0.0,0.0,0.0,0.0,0.0,0.0,0.0,0.0,0.0,0.0,0.0,0.0,0.0,0.0,0.0,0.0,0.0,0.0,0.0,0.0,0.0,0.0,0.0,0.0,0.0,0.0,0.0,0.0,0.0,0.0,0.0,0.0,0.0,0.0,0.0,0.0,0.0,0.0,0.0,0.0,0.0,0.0,0.0,0.0,0.0,0.0,0.0,0.0,0.0,0.0,0.0,0.0,0.0,0.0,0.0,0.0,0.0,0.0,0.0,0.0,0.0,0.0,0.0,0.0,0.0,0.0,0.0,0.0,0.0,0.0,0.0,0.0,0.0,0.0,0.0,0.0,0.0,0.0,0.0,0.0,0.0,0.0,0.0,0.0,0.0,0.0,0.0,0.0,0.0,0.0,0.0,0.0,0.0,0.0,0.0,0.0,0.0,0.0,0.0,0.0,0.0,0.0,0.0,0.0,0.0,0.0,0.0,0.0,0.0,0.0,0.0,0.0,0.0,0.0,0.0,0.0,0.0,0.0,0.0,0.0,0.0,0.0,0.0,0.0,0.0,0.0,0.0,0.0,0.0,0.0,0.0,0.0,0.0,0.0,0.0,0.0,0.0,0.0,0.0,0.0,0.0,0.0,0.0,0.0,0.0,0.0,0.0,0.0,0.0,0.0,0.0,0.0,0.0,0.0,0.0,0.0,0.0,0.0,0.0,0.0,0.0,0.0,0.0,0.0,0.0,0.0,0.0,0.0,0.0,0.0,0.0,0.0,0.0,0.0,0.0,0.0,0.0,0.0,0.0,0.0,0.0,0.0,0.0,0.0,0.0,0.0,0.0,0.0,0.0,0.0,0.0,0.0,0.0,0.0,0.0,0.0,0.0,0.0,0.0,0.0,0.0,0.0,0.0,0.0,0.0,0.0,0.0,0.0,0.0,0.0,0.0,0.0,0.0,0.0,0.0,0.0,0.0,0.0,0.0,0.0,0.0,0.0,0.0,0.0,0.0,0.0,0.0,0.0,0.0,0.0,0.0,0.0,0.0,0.0,0.0,0.0,0.0,0.0,0.0,0.0,0.0,0.0,0.0,0.0,0.0,0.0,0.0,0.0,0.0,0.0,0.0,0.0,0.0,0.0,0.0,0.0,0.0,0.0,0.0,0.0,0.0,0.0,0.0,0.0,0.0,0.0,0.0,0.0,0.0,0.0,0.0,0.0,0.0,0.0,0.0,0.0,0.0,0.0,0.0,0.0,0.0,0.0,0.0,0.0,0.0,0.0,0.0,0.0,0.0,0.0,0.0,0.0,0.0,0.0,0.0,0.0,0.0,0.0,0.0,0.0,0.0,0.0,0.0,0.0,0.0,0.0,0.0,0.0,0.0,0.0,0.0,0.0,0.0,0.0,0.0,0.0,0.0,0.0,0.0,0.0,0.0,0.0,0.0,0.0,0.0,0.0,0.0,0.0,0.0,0.0,0.0,0.0,0.0,0.0,0.0,0.0,0.0,0.0,0.0,0.0,0.0,0.0,0.0,0.0,0.0,0.0,0.0,0.0,0.0,0.0,0.0,0.0,0.0,0.0,0.0,0.0,0.0,0.0,0.0,0.0,0.0,0.0,0.0,0.0,0.0,0.0,0.0,0.0,0.0,0.0,0.0,0.0,0.0,0.0,0.0,0.0,0.0,0.0,0.0,0.0,0.0,0.0,0.0,0.0,0.0,0.0,0.0,0.0,0.0,0.0,0.0,0.0,0.0,0.0,0.0,0.0,0.0,0.0,0.0,0.0,0.0,0.0,0.0,0.0,0.0,0.0,0.0,0.0,0.0,0.0,0.0,0.0,0.0,0.0,0.0,0.0,0.0,0.0,0.0,0.0,0.0,0.0,0.0,0.0,0.0,0.0,0.0,0.0,0.0,0.0,0.0,0.0,0.0,0.0,0.0,0.0,0.0,0.0,0.0,0.0,0.0,0.0,0.0,0.0,0.0,0.0,0.0,0.0,0.0,0.0,0.0,0.0,0.0,0.0,0.0,0.0,0.0,0.0,0.0,0.0,0.0,0.0,0.0,0.0,0.0,0.0,0.0,0.0,0.0,0.0,0.0,0.0,0.0,0.0,0.0,0.0,0.0,0.0,0.0,0.0,0.0,0.0,0.0,0.0,0.0,0.0,0.0,0.0,0.0,0.0,0.0,0.0,0.0,0.0,0.0,0.0,0.0,0.0,0.0,0.0,0.0,0.0,0.0,0.0,0.0,0.0,0.0,0.0,0.0,0.0,0.0,0.0,0.0,0.0,0.0,0.0,0.0,0.0,0.0,0.0,0.0,0.0,0.0,0.0,0.0,0.0,0.0,0.0,0.0,0.0,0.0,0.0,0.0,0.0,0.0,0.0,0.0,0.0,0.0,0.0,0.0,0.0,0.0,0.0,0.0,0.0,0.0,0.0,0.0,0.0,0.0,0.0,0.0,0.0,0.0,0.0,0.0,0.0,0.0,0.0,0.0,0.0,0.0,0.0,0.0,0.0,0.0,0.0,0.0,0.0,0.0,0.0,0.0,0.0,0.0,0.0,0.0,0.0,0.0,0.0,0.0,0.0,0.0,0.0,0.0,0.0,0.0,0.0,0.0,0.0,0.0,0.0,0.0,0.0,0.0,0.0,0.0,0.0,0.0,0.0,0.0,0.0,0.0,0.0,0.0,0.0,0.0,0.0,0.0,0.0,0.0,0.0,0.0,0.0,0.0,0.0,0.0,0.0,0.0,0.0,0.0,0.0,0.0,0.0,0.0,0.0,0.0,0.0,0.0,0.0,0.0,0.0,0.0,0.0,0.0,0.0,0.0,0.0,0.0,0.0,0.0,0.0,0.0,0.0,0.0,0.0,0.0,0.0,0.0,0.0,0.0,0.0,0.0,0.0,0.0,0.0,0.0,0.0,0.0,0.0,0.0,0.0,0.0,0.0,0.0,0.0,0.0,0.0,0.0,0.0,0.0,0.0,0.0,0.0,0.0,0.0,0.0,0.0,0.0,0.0,0.0,0.0,0.0,0.0,0.0,0.0,0.0,0.0,0.0,0.0,0.0,0.0,0.0,0.0,0.0,0.0,0.0,0.0,0.0,0.0,0.0,0.0,0.0,0.0,0.0,0.0,0.0,0.0,0.0,0.0,0.0,0.0,0.0,0.0,0.0,0.0,0.0,0.0,0.0,0.0,0.0,0.0,0.0,0.0,0.0,0.0,0.0,0.0,0.0,0.0,0.0,0.0,0.0,0.0,0.0,0.0,0.0,0.0,0.0,0.0,0.0,0.0,0.0,0.0,0.0,0.0,0.0,0.0,0.0,0.0,0.0,0.0,0.0,0.0,0.0,0.0,0.0,0.0,0.0,0.0,0.0,0.0,0.0,0.0,0.0,0.0,0.0,0.0,0.0,0.0,0.0,0.0,0.0,0.0,0.0,0.0,0.0,0.0,0.0,0.0,0.0,0.0,0.0,0.0,0.0,0.0,0.0,0.0,0.0,0.0,0.0,0.0,0.0,0.0,0.0,0.0,0.0,0.0,0.0,0.0,0.0,0.0,0.0,0.0,0.0,0.0,0.0,0.0,0.0,0.0,0.0,0.0,0.0,0.0,0.0,0.0,0.0,0.0,0.0,0.0,0.0,0.0,0.0,0.0,0.0,0.0,0.0,0.0,0.0,0.0,0.0,0.0,0.0,0.0,0.0,0.0,0.0,0.0,0.0,0.0,0.0,0.0,0.0,0.0,0.0,0.0,0.0,0.0,0.0,0.0,0.0,0.0,0.0,0.0,0.0,0.0,0.0,0.0,0.0,0.0,0.0,0.0,0.0,0.0,0.0,0.0,0.0,0.0,0.0,0.0,0.0,0.0,0.0,0.0,0.0,0.0,0.0,0.0,0.0,0.0,0.0,0.0,0.0,0.0,0.0,0.0,0.0,0.0,0.0,0.0,0.0,0.0,0.0,0.0,0.0,0.0,0.0,0.0,0.0,0.0,0.0,0.0,0.0,0.0,0.0,0.0,0.0,0.0,0.0,0.0,0.0,0.0,0.0,0.0,0.0,0.0,0.0,0.0,0.0,0.0,0.0,0.0,0.0,0.0,0.0,0.0,0.0,0.0,0.0,0.0,0.0,0.0,0.0,0.0,0.0,0.0,0.0,0.0,0.0,0.0,0.0,0.0,0.0,0.0,0.0,0.0,0.0,0.0,0.0,0.0,0.0,0.0,0.0,0.0,0.0,0.0,0.0,0.0,0.0,0.0,0.0,0.0,0.0,0.0,0.0,0.0,0.0,0.0,0.0,0.0,0.0,0.0,0.0,0.0,0.0,0.0,0.0,0.0,0.0,0.0,0.0,0.0,0.0,0.0,0.0,0.0,0.0,0.0,0.0,0.0,0.0,0.0,0.0,0.0,0.0,0.0,0.0,0.0,0.0,0.0,0.0,0.0,0.0,0.0,0.0,0.0,0.0,0.0,0.0,0.0,0.0,0.0,0.0,0.0,0.0,0.0,0.0,0.0,0.0,0.0,0.0,0.0,0.0,0.0,0.0,0.0,0.0,0.0,0.0,0.0,0.0,0.0,0.0,0.0,0.0,0.0,0.0,0.0,0.0,0.0,0.0,0.0,0.0,0.0,0.0,0.0,0.0,0.0,0.0,0.0,0.0,0.0,0.0,0.0,0.0,0.0,0.0,0.0,0.0,0.0,0.0,0.0,0.0,0.0,0.0,0.0,0.0,0.0,0.0,0.0,0.0,0.0,0.0,0.0,0.0,0.0,0.0,0.0,0.0,0.0,0.0,0.0,0.0,0.0,0.0,0.0,0.0,0.0,0.0,0.0,0.0,0.0,0.0,0.0,0.0,0.0,0.0,0.0,0.0,0.0,0.0,0.0,0.0,0.0,0.0,0.0,0.0,0.0,0.0,0.0,0.0,0.0,0.0,0.0,0.0,0.0,0.0,0.0,0.0,0.0,0.0,0.0,0.0,0.0,0.0,0.0,0.0,0.0,0.0,0.0,-0.6656,0.0,0.0,0.0,0.0,0.0,0.0,0.0,0.0,0.0,0.0,0.0,0.0,0.0,0.0,0.0,0.0,0.0,0.0,0.0,0.0,0.0,0.0,0.0,0.0,0.0419,0.0402,0.0402,0.0401,0.0396,0.0396,0.0,0.0,0.0,0.0,0.0,0.0405,0.0405,0.0405,0.0405,0.0402,0.0601,0.0999,0.1249,0.1647,0.2178,0.0,0.0,0.0,0.0,0.0,0.0,0.0,0.0,0.0,0.0,0.0,0.0,0.0,0.0,0.0,0.0,0.0,0.0,0.0,0.0,0.0,0.0,0.0,0.0,0.0,0.0,0.0,0.0,0.0,0.0,0.0,0.0,0.0,0.0,0.0,0.0,0.0,0.0,0.0,0.0,0.0,0.0,0.0,0.0,0.0,0.0,0.0,0.0,0.0,0.0,0.0,0.0,0.0,0.0,0.0,0.0,0.0,0.0,0.0,0.0,0.0,0.0,0.0,0.0,0.0,0.0,0.0,0.0,0.0,0.0,0.0,-0.6921,0.0,0.0,0.0,0.0,0.0,0.0,0.0,0.0,0.0,0.0,0.0,0.0,0.0,0.0,0.0,0.0,0.0,0.0,0.0,0.0,0.0,0.046,0.0404,0.0364,0.0335,0.0335,0.0292,0.0259,0.0259,0.0259,0.0281,0.0326,0.0326,0.0349,0.0394,0.0405,0.0396,0.0403,0.0427,0.0566,0.0808,0.0968,0.1175,0.1453,0.1862,0.0,0.0,0.0,0.0,0.0,0.0,0.0,0.0,0.0,0.0,0.0,0.0,0.0,0.0,0.0,0.0,0.0,0.0,0.0,0.0,0.0,0.0,0.0,0.0,0.0,0.0,0.0,0.0,0.0,0.0,0.0,0.0,0.0,0.0,0.0,0.0,0.0,0.0,0.0,0.0,0.0,0.0,0.0,0.0,0.0,0.0,0.0,0.0,0.0,0.0,0.0,0.0,0.0,0.0,0.0,0.0,0.0,0.0,0.0,0.0,0.0,0.0,0.0,-0.7702,-0.7999,-0.8145,-0.8448,-0.8595,-0.8562,-0.7766,-0.7464,-0.7508,-0.7508,0.0,0.0,0.0,0.0,0.0,0.0,0.0,0.0,0.0,0.0,0.0,0.0,0.0,0.0,0.0,0.0,0.0,0.0,0.0,0.0417,0.0401,0.0192,0.0057,0.0057,-0.0158,-0.0292,-0.0292,-0.0292,-0.0191,0.0045,0.0056,0.0157,0.0394,0.0405,0.0396,0.0399,0.0523,0.0397,0.0057,0.0522,0.0782,0.0843,0.1471,0.1758,0.1766,0.0,0.0,0.0,0.0,0.0,0.0,0.0,0.0,0.0,0.0,0.0,0.0,0.0,0.0,0.0,0.0,0.0,0.0,0.0,0.0,0.0,0.0,0.0,0.0,0.0,0.0,0.0,0.0,0.0,0.0,0.0,0.0,0.0,0.0,0.0,0.0,0.0,0.0,0.0,0.0,0.0,-0.2289,-0.3175,0.0,0.0,0.0,0.0,0.0,0.0,0.0,0.0,0.0,0.0,0.0,0.0,0.0,-0.6725,-0.7591,-0.7422,-0.7822,-0.8785,-0.8536,-0.8775,-0.9417,-0.8802,-0.87,-0.8986,-0.8535,0.0,-0.7919,-0.7919,0.0,0.0,0.0,0.0,0.0,0.0,0.0,0.0,0.0,0.0,0.0,0.0,0.0,0.0,0.0,0.0,0.0,0.0,0.0,0.0,0.0,0.0012,-0.0134,-0.0318,-0.0517,-0.0577,-0.0458,-0.0487,-0.0431,-0.0237,-0.0225,-0.0168,-0.0056,-0.0045,-0.01,-0.0225,0.0071,0.0079,-0.0148,0.0475,0.0745,0.0766,0.1074,0.1275,0.1445,0.174,0.0,0.0,0.0,0.0,0.0,0.0,0.0,0.0,0.0,0.0,0.0,0.0,0.0,0.0,0.0,0.0,0.0,0.0,0.0,0.0,0.0,0.0,0.0,0.0,0.0,0.0,0.0,0.0,0.0,0.0,0.0,0.0,0.0,0.0,0.0,0.0,0.0,0.0,0.0,-0.1819,-0.2822,-0.3539,-0.3642,-0.3721,0.0,0.0,0.0,0.0,0.0,0.0,0.0,0.0,0.0,-0.7627,-0.7785,-0.8089,-0.8527,-0.8422,-0.8712,-0.9446,-0.9492,-0.9704,-1.0024,-0.9916,-0.9944,-1.0091,-0.9686,-0.929,-0.8902,-0.8183,-0.8092,-0.8368,0.0,0.0,0.0,0.0,-0.8247,-0.8167,0.0,0.0,0.0,0.0,0.0,0.0,0.0,0.0,0.0,0.0,0.0,0.0,-0.0093,-0.0297,-0.0501,-0.0762,-0.0982,-0.1008,-0.0777,-0.0822,-0.0753,-0.0535,-0.0499,-0.0449,-0.0405,-0.043,-0.0603,-0.0911,-0.0354,-0.0259,-0.0563,0.0343,0.0699,0.0599,0.0715,0.0881,0.1128,0.1443,0.1552,0.1528,0.0,0.0,0.0,0.0,0.0,0.0,0.0,0.0,0.0,0.0,0.0,0.0,0.0,0.0,0.0,0.0,0.0,0.0,0.0,0.0,0.0,0.0,0.0,0.0,0.0,0.0,0.0,0.0,0.0,0.0,0.0,0.0,0.0,0.0,0.0,0.0,0.0,-0.2526,-0.3316,-0.3985,-0.4045,-0.413,0.0,0.0,0.0,0.0,0.0,0.0,-0.7082,-0.775,-0.8246,-0.8501,-0.8882,-0.92,-0.94,-0.94,-0.9667,-1.0162,-1.0355,-1.0548,-1.0759,-1.0864,-1.0965,-1.1039,-1.0643,-1.0272,-0.9914,-0.8647,-0.8386,-0.8687,-0.8101,-0.8004,-0.8257,-0.8557,-0.8564,-0.8473,0.0,0.0,0.0,0.0,0.0,0.0,0.0,0.0,0.0,0.0,0.0,-0.01,-0.0182,-0.0819,-0.1248,-0.1268,-0.1688,-0.1793,-0.1474,-0.151,-0.1344,-0.0901,-0.0757,-0.0592,-0.0405,-0.0525,-0.0879,-0.1457,-0.0488,-0.0564,-0.1581,-0.0027,0.0473,0.0056,0.043,0.0699,0.0839,0.1115,0.1219,0.1252,0.1515,0.0,0.0,0.0,0.0,0.0,0.0,0.0,0.0,0.0,0.0,0.0,0.0,0.0,0.0,0.0,0.0,0.0,0.0,0.0,0.0,0.0,0.0,0.0,0.0,0.0,0.0,0.0,0.0,0.0,0.0,0.0,0.0,0.0,0.0,0.0,0.0,0.0,0.0,-0.4646,-0.4862,0.0,0.0,0.0,0.0,-0.5469,-0.6627,-0.7345,-0.7378,-0.8081,-0.8654,-0.905,-0.9087,-0.9456,-1.0226,-1.0247,-1.0631,-1.1421,-1.1035,-1.1279,-1.1981,-1.1251,-1.1099,-1.1458,-1.1035,-1.0864,-1.0754,-0.9529,-0.9087,-0.917,-0.9124,-0.9432,-0.9886,-0.9973,-1.0002,-1.0012,0.0,0.0,0.0,0.0,0.0,0.1592,0.0823,0.0694,0.0563,0.0217,-0.0016,-0.0371,-0.0921,-0.1512,-0.1938,-0.206,-0.2471,-0.2539,-0.2164,-0.1927,-0.1676,-0.1429,-0.1126,-0.0963,-0.0974,-0.1277,-0.1651,-0.2073,-0.1508,-0.1486,-0.1978,-0.0556,0.0028,-0.0112,0.0526,0.081,0.0855,0.0865,0.0858,0.0839,0.1156,0.1284,0.0,0.0,0.0,0.0,0.0,0.0,0.0,0.0,0.0,0.0,0.0,0.0,0.0,0.0,0.0,0.0,0.0,0.0,0.0,0.0,0.0,0.0,0.0,0.0,0.0,0.0,0.0,0.0,0.0,0.0,0.0,0.0,0.0,0.0,0.0,0.0,0.0,-0.4999,-0.5257,0.0,-0.6104,-0.6264,-0.6541,-0.7067,-0.8245,-0.8891,-0.8759,-0.9861,-1.038,-1.0132,-1.0447,-1.079,-1.1072,-1.1072,-1.1347,-1.1889,-1.1742,-1.1816,-1.2092,-1.1798,-1.1752,-1.1871,-1.1458,-1.1283,-1.1228,-1.0551,-1.0121,-0.9855,-0.9347,-0.9245,-0.945,-0.9798,-0.9951,-1.0087,0.0,0.0,0.0,0.0,0.0,0.1273,0.0605,0.0496,0.0373,0.0048,-0.025,-0.0692,-0.1367,-0.2068,-0.2521,-0.2604,-0.3,-0.3046,-0.2537,-0.2173,-0.1868,-0.1637,-0.1336,-0.1288,-0.1565,-0.1806,-0.2113,-0.2472,-0.2038,-0.1903,-0.2043,-0.0783,-0.0168,-0.0112,0.0532,0.0858,0.089,0.0793,0.0723,0.0656,0.0846,0.0945,0.1016,0.0,0.0,0.0,0.0,0.0,0.0,0.0,0.0,0.0,0.0,0.0,0.0,0.0,0.0,0.0,0.0,0.0,0.0,0.0,0.0,0.0,0.0,0.0,0.0,0.0,0.0,0.0,0.0,0.0,0.0,0.0,0.0,0.0,0.0,0.0,-0.5073,-0.5462,-0.5838,-0.6362,-0.7091,-0.7262,-0.7613,-0.8355,-0.9375,-0.9916,-0.9782,-1.0783,-1.1235,-1.0981,-1.1309,-1.1578,-1.1706,-1.1706,-1.1844,-1.2101,-1.2101,-1.2101,-1.2101,-1.2101,-1.2101,-1.2082,-1.1825,-1.1706,-1.1687,-1.1412,-1.1136,-1.0824,-1.0017,-0.9621,-0.9549,-0.9885,-1.0059,-1.0186,0.0,0.0,0.0,0.0,0.0,0.1122,0.0588,0.0497,0.0378,0.0033,-0.053,-0.1065,-0.1479,-0.2492,-0.3052,-0.2842,-0.331,-0.3305,-0.2576,-0.2261,-0.1922,-0.1522,-0.139,-0.1565,-0.2094,-0.2045,-0.2201,-0.2599,-0.2038,-0.1784,-0.1818,-0.0728,-0.0168,0.0,0.0477,0.0785,0.0896,0.0893,0.0828,0.0696,0.0637,0.0649,0.0727,0.0,0.0,0.0,0.0,0.0,0.0,0.0,0.0,0.0,0.0,0.0,0.0,0.0,0.0,0.0,0.0,0.0,0.0,0.0,0.0,0.0,0.0,0.0,0.0,0.0,0.0,0.0,0.0,0.0,0.0,0.0,0.0,0.0,-0.4335,-0.4875,-0.5484,-0.6071,-0.6688,-0.7286,-0.7887,-0.8204,-0.8635,-0.9232,-0.9965,-1.037,-1.0349,-1.0748,-1.1131,-1.1522,-1.1531,-1.1715,-1.2101,-1.2101,-1.2101,-1.2101,-1.2101,-1.2101,-1.2101,-1.2101,-1.2101,-1.2101,-1.2101,-1.2101,-1.2101,-1.2101,-1.2101,-1.2018,-1.1242,-1.0689,-1.0349,-1.0412,-1.0454,-1.0475,0.0,0.0,0.0,0.1895,0.146,0.1008,0.0571,0.0498,0.0297,-0.0285,-0.0676,-0.1178,-0.1928,-0.3012,-0.3518,-0.3129,-0.358,-0.3636,-0.3041,-0.2438,-0.1943,-0.1586,-0.1679,-0.1826,-0.2021,-0.2258,-0.2481,-0.2754,-0.2676,-0.268,-0.2713,-0.1454,-0.0839,-0.0755,0.0364,0.087,0.0897,0.0888,0.0885,0.0836,0.0775,0.0728,0.0734,0.0,0.0,0.0,0.0,0.0,0.0,0.0,0.0,0.0,0.0,0.0,0.0,0.0,0.0,0.0,0.0,0.0,0.0,0.0,0.0,0.0,0.0,0.0,0.0,0.0,0.0,0.0,0.0,0.0,0.0,0.0,0.0,-0.5012,-0.5224,-0.5967,-0.6653,-0.7058,-0.7772,-0.843,-0.8933,-0.9768,-1.0443,-1.0913,-1.1767,-1.2081,-1.1711,-1.2051,-1.2182,-1.1935,-1.1945,-1.1991,-1.2101,-1.2101,-1.2101,-1.2101,-1.2101,-1.2101,-1.2101,-1.2101,-1.2101,-1.2101,-1.2101,-1.2101,-1.2101,-1.2101,-1.2101,-1.2046,-1.154,-1.1274,-1.121,-1.1518,-1.1667,-1.1705,0.0,0.0,0.0,0.1928,0.1362,0.0841,0.0538,0.0504,0.0252,-0.042,-0.0731,-0.1208,-0.2025,-0.2945,-0.3342,-0.3028,-0.3309,-0.3298,-0.285,-0.2367,-0.2031,-0.1895,-0.2057,-0.2204,-0.2326,-0.2472,-0.2647,-0.283,-0.2857,-0.2775,-0.2543,-0.1509,-0.0894,-0.0587,0.0448,0.0898,0.0898,0.0911,0.0906,0.0887,0.0853,0.0828,0.0791,0.0949,0.0857,0.0779,0.1518,0.1594,0.1459,0.2278,0.0,0.0,0.0,0.0,0.0,0.0,0.0,0.0,0.0,0.0,0.0,0.0,0.0,0.0,0.0,0.0,0.0,0.0,0.0,0.0,0.0,0.0,0.0,0.0,-0.539,-0.6305,-0.6702,-0.7242,-0.774,-0.8166,-0.8856,-0.9526,-1.0139,-1.0765,-1.1398,-1.2057,-1.2263,-1.2381,-1.2441,-1.2339,-1.2199,-1.2092,-1.2101,-1.2101,-1.2101,-1.2101,-1.2101,-1.2101,-1.2101,-1.2101,-1.2101,-1.2101,-1.2101,-1.2101,-1.2101,-1.2101,-1.2101,-1.2101,-1.2101,0.0,0.0,0.0,0.0,0.0,-1.2015,-1.1931,0.0,0.0,0.0,0.1895,0.1243,0.0655,0.0521,0.0504,0.0252,-0.042,-0.0727,-0.1165,-0.1918,-0.2529,-0.2809,-0.2678,-0.2708,-0.2612,-0.2276,-0.2133,-0.2121,-0.229,-0.2415,-0.2571,-0.2769,-0.2663,-0.2692,-0.2888,-0.2747,-0.2437,-0.1874,-0.1285,-0.0671,-0.0084,0.0533,0.0843,0.0905,0.0902,0.0915,0.0918,0.0915,0.0909,0.0874,0.0766,0.0762,0.0869,0.1367,0.1497,0.1562,0.2307,0.0,0.0,0.0,0.0,0.0,0.0,0.0,0.0,0.0,0.0,0.0,0.0,0.0,0.0,0.0,0.0,0.0,0.0,0.0,0.0,0.0,0.0,0.0,0.0,-0.6634,-0.7819,-0.8456,-0.8576,-0.8781,-0.9314,-0.9854,-1.0497,-1.1285,-1.1426,-1.1855,-1.274,-1.2049,-1.1926,-1.2773,0.0,0.0,0.0,0.0,-1.2141,-1.2101,-1.2101,-1.2101,-1.2101,-1.2101,-1.2101,-1.2101,-1.2101,-1.2101,-1.2101,-1.2101,-1.2128,-1.2165,-1.2165,-1.222,-1.233,-1.2588,-1.2505,-1.2239,-1.2239,-1.2046,-1.1825,0.0,0.0,0.0,0.1911,0.1243,0.0655,0.0521,0.0504,0.0252,-0.042,-0.0687,-0.109,-0.1847,-0.2418,-0.2639,-0.2399,-0.2431,-0.234,-0.2,-0.186,-0.1939,-0.2277,-0.2321,-0.2435,-0.2629,-0.2663,-0.27,-0.2747,-0.2719,-0.2635,-0.2521,-0.1902,-0.1314,-0.0699,-0.0084,0.0455,0.0905,0.0911,0.0927,0.0977,0.0923,0.0892,0.0884,0.0869,0.0829,0.0843,0.1089,0.1451,0.1858,0.223,0.2673,0.3058,0.2978,0.2976,0.0,0.0,0.0,0.0,0.0,0.0,0.0,0.0,0.0,0.0,0.0,0.0,0.0,0.0,0.0,0.0,0.0,0.0,0.0,-0.6377,-0.7535,-0.8516,-0.934,-0.9633,-0.9918,-1.0346,-1.0615,-1.1003,-1.1721,-1.2222,-1.2596,-1.2793,-1.2337,-1.2278,-1.2772,-1.2319,-1.2074,-1.2091,-1.2479,-1.2467,-1.2101,-1.2101,-1.2101,-1.2101,0.0,0.0,-1.2101,-1.2101,-1.2101,-1.2101,-1.2101,-1.2285,-1.2579,-1.2579,-1.2964,-1.3507,-1.2919,-1.2854,-1.3057,-1.3057,-1.3213,-1.3415,0.0,0.0,0.0,0.1945,0.1375,0.0856,0.0554,0.0504,0.0319,-0.0185,-0.036,-0.0736,-0.1471,-0.1756,-0.1906,-0.1945,-0.1853,-0.1824,-0.1902,-0.1962,-0.2155,-0.2487,-0.2632,-0.2686,-0.2647,-0.2696,-0.2691,-0.2691,-0.2691,-0.2691,-0.2691,-0.2071,-0.1482,-0.0866,-0.028,0.0343,0.0913,0.0913,0.0939,0.1008,0.107,0.1076,0.1055,0.1004,0.1204,0.1534,0.1796,0.2128,0.2477,0.2567,0.2821,0.3043,0.2773,0.2811,0.2926,0.0,0.0,0.0,0.0,0.0,0.0,0.0,0.0,0.0,0.0,0.0,0.0,0.0,0.0,-0.2318,-0.3062,0.0,-0.572,-0.7048,-0.8268,-0.926,-0.982,-1.042,-1.08,-1.0811,-1.0977,-1.1261,-1.1656,-1.1978,-1.2262,-1.248,-1.1914,-1.1915,-1.2766,-1.2198,-1.1931,-1.2101,-1.2323,-1.2329,-1.2101,-1.2101,-1.2101,-1.2101,-1.2101,-1.2101,-1.2101,-1.2101,-1.2101,-1.2101,-1.2101,-1.233,-1.2707,-1.2919,-1.3249,-1.3543,-1.3167,-1.3259,-1.3543,-1.3157,-1.313,-1.3304,0.0,0.0,0.0,0.2063,0.1549,0.1075,0.0687,0.0588,0.0402,0.005,-0.0052,-0.0334,-0.1006,-0.1024,-0.1097,-0.1395,-0.1268,-0.1351,-0.1815,-0.2083,-0.2352,-0.2628,-0.2875,-0.2918,-0.2717,-0.2691,-0.2691,-0.2691,-0.2577,-0.2521,-0.2521,-0.1902,-0.1314,-0.0699,-0.0226,0.0375,0.0981,0.0952,0.1014,0.1094,0.1274,0.1317,0.1277,0.1348,0.1709,0.2245,0.2518,0.283,0.3111,0.3013,0.3063,0.3108,0.2694,0.2762,0.2956,0.2874,0.2787,0.0,0.0,0.0,0.0,0.0,0.0,0.0,0.0,0.0,-0.0733,-0.1112,-0.2407,-0.3595,-0.4012,-0.5547,-0.7006,-0.7709,-0.8914,-0.9866,-1.016,-1.0824,-1.1182,-1.0989,-1.1277,-1.1566,-1.1724,-1.1729,-1.1859,-1.2164,-1.1474,-1.1506,-1.2599,-1.194,-1.171,-1.2085,-1.2203,-1.219,-1.2101,-1.2101,-1.2101,-1.2101,-1.2101,-1.2101,-1.2101,-1.2101,-1.2101,-1.2101,-1.2183,-1.2441,-1.2845,-1.3241,-1.3461,-1.3525,-1.3442,-1.3561,-1.369,-1.3056,-1.2808,-1.2873,0.0,0.0,0.0,0.0,0.0,0.1188,0.1129,0.0873,0.0512,0.0063,0.0,-0.0184,-0.0625,-0.0611,-0.0635,-0.0781,-0.0939,-0.1199,-0.1613,-0.1837,-0.2088,-0.2411,-0.2579,-0.2678,-0.2689,-0.2691,-0.2691,-0.2691,-0.2155,-0.1902,-0.1874,-0.1285,-0.0671,-0.0084,-0.0029,0.0477,0.126,0.1199,0.1284,0.1443,0.1395,0.1452,0.1623,0.2156,0.2291,0.2204,0.2253,0.2845,0.3596,0.3336,0.3491,0.3738,0.3329,0.3222,0.3221,0.3025,0.2932,0.288,0.2862,0.2307,0.165,0.1253,0.0624,-0.0109,0.0,0.0,-0.2572,-0.2859,-0.4283,-0.5534,-0.5778,-0.7075,-0.8287,-0.8901,-0.9601,-1.0174,-1.0499,-1.0465,-1.0646,-1.1194,-1.1827,-1.2297,-1.2535,-1.2613,-1.2498,-1.2128,-1.1748,-1.1721,-1.2157,-1.1798,-1.1746,-1.2103,-1.2507,-1.2516,-1.2101,-1.2101,-1.2101,-1.2101,-1.2101,-1.2101,-1.2101,-1.2101,-1.2101,-1.2119,-1.2468,-1.2863,-1.325,-1.3681,-1.4038,-1.4341,-1.3965,-1.3635,-1.3351,-1.3259,-1.3222,-1.3277,0.0,0.0,0.0,0.0,0.0,0.1874,0.1636,0.1256,0.0937,0.0776,0.0555,0.025,-0.0155,-0.0302,-0.0389,-0.0404,-0.0524,-0.0681,-0.0896,-0.1058,-0.1404,-0.1974,-0.1753,-0.1792,-0.2155,-0.1818,-0.1649,-0.1649,-0.1398,-0.1285,-0.1257,-0.1006,-0.0587,0.0,0.0,0.0467,0.1232,0.1202,0.1285,0.1443,0.1529,0.1793,0.2133,0.2272,0.2643,0.3085,0.3156,0.3411,0.0,0.3306,0.3312,0.3424,0.3073,0.3036,0.3107,0.302,0.2955,0.2801,0.2322,0.1727,0.0,0.0,-0.0239,-0.0834,-0.1396,-0.2341,-0.315,-0.3344,-0.4873,-0.6226,-0.6268,-0.7652,-0.887,0.0,-0.9882,-1.0354,-1.0307,-1.0637,-1.0738,-1.0418,-1.1251,-1.187,-1.1997,-1.1811,-1.1705,-1.1746,-1.1618,-1.1707,-1.2072,-1.1964,-1.1954,-1.21,-1.2284,-1.2314,-1.2101,-1.2101,-1.2101,-1.2101,-1.2101,-1.2101,-1.2101,-1.2101,-1.2101,-1.2138,-1.2781,-1.3131,-1.3341,-1.3983,-1.4359,-1.4469,-1.4047,-1.381,-1.358,-1.313,-1.2808,-1.267,0.0,0.0,0.0,0.0,0.0,0.2501,0.2074,0.1586,0.1273,0.1301,0.0945,0.0589,0.0297,0.0064,-0.0072,-0.0058,-0.0162,-0.0272,-0.0389,-0.0534,-0.0884,-0.1429,-0.111,-0.1103,-0.1545,-0.1113,-0.0894,-0.0894,-0.0727,-0.0643,-0.0643,-0.0447,-0.0112,0.0308,0.0368,0.0749,0.1326,0.1326,0.1403,0.1553,0.1868,0.2136,0.2411,0.2587,0.3006,0.3504,0.3658,0.3741,0.374,0.3496,0.3395,0.3321,0.3092,0.3056,0.3089,0.3075,0.2991,0.2762,0.2095,0.0,0.0,-0.0164,-0.0896,-0.1542,-0.1988,-0.2838,-0.3603,-0.3801,-0.5508,-0.687,-0.6524,-0.8051,-0.9326,-0.9191,-0.9819,-1.0214,-0.9884,-1.034,-1.0459,-0.9805,-1.038,-1.096,-1.1298,-1.1293,-1.1334,-1.1494,-1.1618,-1.1812,-1.2082,-1.2,-1.1991,-1.2101,-1.2101,-1.2101,-1.2101,-1.2101,-1.2101,-1.2101,-1.2101,-1.2101,-1.2101,-1.2101,-1.2101,-1.2128,-1.2726,-1.302,-1.3203,-1.3882,-1.424,-1.4323,-1.413,-1.3983,-1.3837,-1.3249,-1.2781,-1.2496,0.0,0.0,0.0,0.0,0.0,0.283,0.2356,0.1782,0.1367,0.1302,0.0948,0.0702,0.0686,0.0557,0.043,0.0298,0.01,-0.012,-0.0382,-0.0594,-0.0735,-0.0827,-0.0881,-0.0907,-0.0933,-0.0907,-0.0894,-0.0894,-0.0308,-0.0028,0.0,0.0701,0.1038,0.1068,0.1276,0.1473,0.1681,0.1622,0.1709,0.1937,0.2471,0.2449,0.2249,0.3399,0.3472,0.294,0.3153,0.3556,0.4009,0.4133,0.4,0.3796,0.384,0.3596,0.3297,0.3294,0.3098,0.2837,0.2552,0.0,0.0235,-0.0124,-0.125,-0.2394,-0.2936,-0.3638,-0.4267,-0.4587,-0.653,-0.7822,-0.6776,-0.8504,-0.9804,-0.8958,-0.9332,-0.9606,-0.9284,-0.9181,-0.933,-0.9753,-0.9434,-0.9638,0.0,-1.1658,-1.1979,-1.1523,-1.1908,-1.2148,-1.2098,-1.1733,-1.1706,-1.2092,-1.2101,-1.2101,-1.2101,-1.2101,-1.2101,-1.2101,-1.2101,-1.2101,-1.2101,-1.2101,-1.2101,-1.2101,-1.2128,-1.2358,-1.2744,-1.3185,-1.3561,-1.3966,-1.4341,-1.424,-1.3911,-1.3883,-1.3626,-1.3314,0.0,0.0,0.0,0.0,0.0,0.0,0.282,0.2322,0.199,0.1966,0.1384,0.0,0.0,0.0,0.0,0.0,0.055,0.0491,0.0398,0.0366,0.0173,-0.0246,0.0136,0.0167,-0.0238,0.0123,0.0357,0.0496,0.0601,0.0706,0.0812,0.1099,0.122,0.1249,0.1293,0.1455,0.163,0.1665,0.1897,0.2223,0.2223,0.2606,0.3136,0.2831,0.3085,0.36,0.0,0.3434,0.3703,0.3977,0.3946,0.3833,0.4034,0.3816,0.3492,0.3448,0.3046,0.2611,0.2528,0.0,-0.0259,-0.0629,-0.17,-0.2694,-0.2983,-0.3696,-0.4297,-0.4131,-0.5462,-0.6541,-0.6142,-0.7143,-0.8127,-0.8429,-0.883,-0.9173,-0.9359,-0.9684,-0.9707,-0.9202,-0.9591,0.0,0.0,0.0,0.0,-1.1475,-1.1655,-1.1836,-1.2082,-1.222,-1.2239,-1.2101,-1.2625,-1.2781,-1.2496,-1.2772,-1.2772,-1.2487,-1.2229,-1.2101,-1.2101,-1.2101,-1.2101,-1.2119,-1.2376,-1.2569,-1.2726,-1.3121,-1.3553,-1.3901,-1.4038,-1.4176,-1.4304,-1.4304,-1.4038,-1.3671,0.0,0.0,0.0,0.0,0.0,0.0,0.0,0.0,0.0,0.0,0.0,0.0,0.0,0.0,0.0,0.0,0.0,0.0814,0.0873,0.0894,0.0744,0.0382,0.0743,0.0772,0.0385,0.0704,0.092,0.1023,0.0969,0.0968,0.1024,0.1138,0.1216,0.1234,0.1289,0.1389,0.1538,0.1554,0.1776,0.2157,0.2164,0.264,0.3261,0.292,0.3245,0.0,0.3848,0.3883,0.3995,0.4211,0.4141,0.3966,0.4146,0.3912,0.3518,0.3253,0.2933,0.2611,0.0,0.115,-0.0078,-0.0799,-0.1663,-0.2484,-0.3045,-0.3565,-0.3918,-0.3899,-0.477,-0.5492,-0.5417,-0.6088,-0.6827,-0.7417,-0.778,-0.8154,-0.87,-0.912,-0.928,-0.9036,-0.9644,-0.9988,0.0,0.0,0.0,-1.1246,-1.1682,-1.2046,-1.2303,-1.2698,-1.2799,-1.2551,-1.302,-1.3194,-1.2919,-1.3158,-1.3111,-1.2715,-1.2432,-1.2239,-1.2101,-1.2101,-1.2101,-1.2119,-1.2367,-1.2487,-1.2498,-1.2806,-1.324,-1.3699,-1.3753,-1.4053,-1.4515,-1.4515,-1.4123,-1.3618,0.0,0.0,0.0,0.0,0.0,0.0,0.0,0.0,0.0,0.0,0.0,0.0,0.0,0.0,0.0,0.0,0.0,0.0,0.1035,0.0988,0.0977,0.1047,0.0985,0.0953,0.0953,0.0874,0.0798,0.0744,0.0801,0.0781,0.0727,0.0919,0.1043,0.1109,0.1254,0.1348,0.1398,0.1362,0.1505,0.1812,0.2297,0.2551,0.2735,0.3621,0.3848,0.3811,0.4515,0.4788,0.4817,0.4808,0.4526,0.4177,0.4129,0.3825,0.335,0.277,0.2757,0.2761,0.1882,0.1309,0.0675,-0.0557,-0.1181,-0.1828,-0.3141,-0.3263,-0.3268,-0.389,-0.4384,-0.4682,0.0,0.0,-0.5941,-0.6054,-0.6332,-0.677,-0.7471,-0.7716,-0.8233,0.0,0.0,0.0,0.0,0.0,0.0,-1.0948,0.0,-1.2654,-1.269,-1.3094,-1.3287,-1.3268,-1.3332,-1.3341,-1.3323,-1.3296,-1.3085,-1.27,-1.2647,-1.2403,-1.2002,-1.207,-1.207,-1.2002,-1.2051,-1.2051,-1.2031,-1.2181,-1.2612,-1.3232,-1.34,-1.3833,-1.4387,-1.4455,-1.3859,-1.3099,0.0,0.0,0.0,0.0,0.0,0.0,0.0,0.0,0.0,0.0,0.0,0.0,0.0,0.0,0.0,0.0,0.0,0.0,0.1585,0.1626,0.1694,0.1818,0.1714,0.1646,0.1646,0.1431,0.1283,0.1215,0.1184,0.1116,0.0998,0.1108,0.1162,0.1177,0.1414,0.1525,0.1562,0.1745,0.2111,0.2581,0.2424,0.2727,0.3265,0.3203,0.3555,0.4093,0.4289,0.4705,0.5128,0.4884,0.0,0.0,0.3248,0.3061,0.2978,0.2631,0.2403,0.223,0.2156,0.1401,0.049,-0.009,-0.0769,-0.1484,-0.2334,-0.2832,-0.3044,-0.2861,-0.3205,-0.35,0.0,0.0,0.0,-0.567,-0.6407,0.0,-0.819,-0.8936,0.0,-1.0294,0.0,-1.1336,-1.1486,-1.1708,0.0,0.0,-1.1887,-1.2136,-1.2734,-1.3154,-1.3234,-1.2931,-1.3645,-1.3874,-1.352,-1.3189,-1.2846,-1.2526,-1.1933,-1.1376,-1.0863,-1.1524,-1.1438,-1.0855,-1.1309,-1.1259,-1.0863,-1.1139,-1.1516,-1.2041,-1.2767,-1.3054,-1.307,-1.3571,-1.3093,-1.2238,0.0,0.0,0.0,0.0,0.0,0.0,0.0,0.0,0.0,0.0,0.0,0.0,0.0,0.0,0.0,0.0,0.0,0.0,0.0,0.1748,0.1837,0.2011,0.1916,0.1899,0.1981,0.1729,0.1557,0.1484,0.139,0.1287,0.1182,0.125,0.1306,0.134,0.1586,0.1698,0.1738,0.1952,0.2285,0.0,0.0,0.2679,0.3233,0.318,0.3588,0.4221,0.4394,0.4518,0.0,0.0,0.0,0.3272,0.274,0.2695,0.2782,0.2398,0.0,0.2193,0.2073,0.1641,0.0994,0.0158,-0.0311,-0.0821,-0.1705,-0.2129,-0.227,-0.2009,-0.2108,0.0,-0.2808,0.0,0.0,0.0,0.0,0.0,-0.7753,-0.8723,-0.9695,0.0,-1.1366,0.0,-1.2139,-1.2024,-1.2005,0.0,-1.2286,-1.2572,-1.3051,-1.344,-1.3555,-1.3325,-1.3877,-1.4031,-1.379,-1.332,-1.2918,-1.2572,-1.1889,-1.1255,-1.0723,-1.1198,-1.1182,-1.0742,0.0,-1.1051,-1.0808,-1.0869,-1.1215,-1.172,-1.2136,-1.2383,-1.2543,-1.2917,-1.2426,-1.1562,0.0,0.0,0.0,0.0,0.0,0.0,0.0,0.0,0.0,0.0,0.2605,0.2283,0.0,0.0,0.0,0.0,0.0,0.0,0.0,0.0,0.1799,0.1998,0.1957,0.2006,0.217,0.1921,0.1745,0.1662,0.1527,0.14,0.1317,0.1373,0.1446,0.1529,0.1739,0.1886,0.1956,0.2109,0.2299,0.2484,0.2406,0.2604,0.2999,0.0,0.377,0.4194,0.4646,0.4328,0.0,0.0,0.3083,0.2637,0.2353,0.2496,0.2694,0.222,0.2313,0.2459,0.1982,0.1991,0.1779,0.0353,0.0123,-0.0029,-0.1143,-0.1364,-0.1321,-0.1292,0.0,-0.1395,-0.2493,-0.287,-0.333,-0.4351,0.0,-0.5909,-0.6881,-0.7976,-0.922,-1.0676,-1.1514,-1.2148,-1.2578,-1.2068,-1.177,-1.1911,-1.268,-1.3185,-1.3281,-1.3705,-1.395,-1.398,-1.389,-1.3851,-1.3881,-1.3299,-1.2805,-1.243,-1.1933,-1.1394,-1.0878,-1.1001,-1.0965,-1.0871,-1.0927,0.0,-1.1009,-1.0805,-1.1078,-1.1591,-1.1514,-1.1756,-1.2235,-1.2328,-1.1783,-1.1059,0.0,0.0,0.0,0.0,0.0,0.0,0.0,0.0,0.0,0.0,0.2781,0.2455,0.0,0.0,0.0,0.0,0.0,0.0,0.0,0.0,0.0,0.2545,0.2554,0.2554,0.2599,0.2381,0.2191,0.2007,0.1822,0.1606,0.1381,0.1391,0.1495,0.1678,0.1934,0.2117,0.2248,0.2497,0.2748,0.2966,0.284,0.2966,0.3261,0.3554,0.0,0.0,0.4559,0.0,0.0,0.3908,0.3109,0.2007,0.1683,0.206,0.2628,0.2526,0.2648,0.2806,0.2704,0.244,0.1915,0.0754,0.0492,0.0297,-0.0555,-0.088,0.0,0.0,-0.0765,-0.1021,-0.1556,-0.2386,-0.3238,-0.3975,0.0,0.0,0.0,0.0,-0.9974,0.0,0.0,0.0,0.0,0.0,0.0,0.0,0.0,-1.2081,-1.2637,-1.3257,-1.367,-1.383,-1.3299,-1.3047,-1.3161,-1.1981,-1.1263,-1.0958,-1.0688,-1.0285,-0.9708,-1.0439,-1.0388,-0.9724,-1.0064,0.0,-0.959,-0.9753,-0.9901,-1.008,-1.0995,-1.1083,-1.0762,-1.1421,-1.1267,-1.0676,0.0,0.0,0.0,0.0,0.0,0.0,0.0,0.3713,0.3545,0.3514,0.3158,0.2853,0.2675,0.2451,0.2309,0.0,0.0,0.0,0.0,0.0,0.0,0.0,0.0,0.0,0.2792,0.2635,0.0,0.0,0.0,0.2096,0.2068,0.1973,0.203,0.2232,0.2422,0.2557,0.2622,0.2867,0.3051,0.3193,0.313,0.3227,0.3438,0.0,0.0,0.0,0.0,0.0,0.0,0.0,0.3131,0.212,0.2156,0.2542,0.2917,0.2631,0.2724,0.2849,0.2555,0.2336,0.1991,0.1126,0.0781,0.0541,0.0176,0.0,0.0,0.0,-0.033,-0.071,-0.1414,0.0,0.0,0.0,0.0,0.0,0.0,0.0,0.0,0.0,0.0,0.0,0.0,0.0,0.0,0.0,0.0,-1.1274,-1.195,-1.2289,-1.2512,-1.2604,-1.2297,-1.2135,-1.2228,-1.1344,-1.0836,-1.0698,-1.0324,-0.9945,-0.9628,-1.0027,-0.999,-0.9622,-0.9829,0.0,-0.9635,-0.9768,-0.9818,-0.9862,-1.04,-1.0428,-1.0206,-1.0674,-1.0681,-1.0466,0.0,0.0,0.0,0.0,0.0,0.0,0.4187,0.3991,0.3842,0.3731,0.3535,0.3302,0.3025,0.2745,0.2577,0.0,0.0,0.0,0.0,0.0,0.0,0.0,0.0,0.0,0.0,0.0,0.0,0.0,0.0,0.0,0.0,0.0,0.0,0.0,0.0,0.2937,0.3001,0.3147,0.3278,0.0,0.0,0.3422,0.0,0.0,0.0,0.0,0.0,0.0,0.0,0.0,0.3279,0.2612,0.2953,0.3225,0.3317,0.2927,0.2899,0.2913,0.2539,0.2294,0.1988,0.1349,0.0926,0.0703,0.0732,0.036,0.0,0.0,0.0045,-0.0372,-0.1342,0.0,-0.3015,0.0,0.0,0.0,0.0,0.0,0.0,0.0,0.0,0.0,0.0,0.0,0.0,0.0,0.0,0.0,-1.1454,-1.1516,-1.1516,-1.1516,-1.1361,-1.1305,-1.1305,-1.0793,-1.0523,-1.0523,-1.0142,-0.9894,-0.9804,-0.9804,-0.9804,-0.9804,-0.974,0.0,0.0,-0.9888,-0.9888,-0.9894,-0.9926,-0.9958,-0.9983,-1.018,-1.0269,-1.0333,0.0,0.0,0.0,0.0,0.0,0.0,0.4248,0.4176,0.4073,0.3821,0.3769,0.3717,0.3626,0.3163,0.2837,0.0,0.0,0.0,0.0,0.0,0.0,0.0,0.0,0.0,0.0,0.0,0.0,0.0,0.0,0.0,0.0,0.0,0.0,0.0,0.0,0.0,0.0,0.329,0.0,0.0,0.0,0.0,0.0,0.0,0.0,0.0,0.0,0.0,0.0,0.0,0.0,0.3418,0.3575,0.3652,0.3668,0.3739,0.0,0.0,0.3518,0.2786,0.1869,0.1266,0.0853,0.0656,0.0848,0.0,0.0338,0.0305,0.026,0.0024,-0.075,-0.1732,-0.249,0.0,0.0,-0.4892,0.0,0.0,0.0,0.0,0.0,0.0,0.0,0.0,0.0,0.0,0.0,0.0,-1.1423,-1.1516,-1.1516,-1.1516,-1.0912,-1.0573,-1.0573,-0.9951,-0.9606,-0.9606,-0.9772,-0.9804,-0.9804,-0.9804,-0.9804,-0.9804,-0.9612,0.0,0.0,-0.9548,-0.9548,-0.958,-0.9734,-0.9804,-0.983,-0.9989,-1.0142,-1.0301,0.0,0.0,0.0,0.0,0.0,0.0,0.4593,0.436,0.4207,0.4219,0.4004,0.3911,0.4048,0.3654,0.3307,0.3115,0.2918,0.0,0.0,0.0,0.0,0.0,0.0,0.0,0.0,0.0,0.3251,0.3386,0.3248,0.0,0.0,0.0,0.0,0.0,0.0,0.0,0.0,0.0,0.0,0.0,0.0,0.0,0.0,0.0,0.0,0.0,0.0,0.0,0.0,0.0,0.0,0.0,0.3885,0.4068,0.0,0.0,0.3498,0.3327,0.3067,0.2489,0.1904,0.1557,0.1211,0.1013,0.1175,0.0,0.0684,0.0657,0.0468,0.015,-0.0337,-0.1249,-0.2119,-0.2752,0.0,0.0,0.0,0.0,0.0,0.0,0.0,0.0,0.0,0.0,0.0,0.0,0.0,0.0,-1.0288,-1.0288,-1.0288,-1.0288,-1.004,-0.9894,-0.9894,-0.9644,-0.9516,-0.9516,-0.958,-0.9612,-0.9612,-0.9612,-0.9612,-0.9612,-0.9548,0.0,0.0,-0.9516,-0.9516,-0.9516,-0.958,-0.9612,-0.9644,-0.983,-0.9989,-1.0142,0.0,0.0,0.0,0.0,0.0,0.4863,0.4812,0.4563,0.4403,0.4495,0.4252,0.415,0.4344,0.4068,0.3779,0.3532,0.3207,0.0,0.0,0.0,0.0,0.0,0.0,0.0,0.0,0.0,0.3569,0.374,0.3611,0.3487,0.0,0.0,0.0,0.0,0.0,0.0,0.0,0.0,0.0,0.0,0.0,0.0,0.0,0.0,0.0,0.0,0.0,0.0,0.0,0.0,0.0,0.0,0.0,0.0,0.0,0.0,0.3413,0.3165,0.2693,0.2218,0.1832,0.1688,0.1394,0.1184,0.0,0.0,0.0927,0.0932,0.0606,0.0232,-0.0133,-0.0992,-0.1945,0.0,0.0,-0.4014,-0.499,0.0,0.0,0.0,0.0,0.0,0.0,0.0,0.0,0.0,0.0,0.0,-0.9516,-0.9516,-0.9516,-0.9516,-0.9516,-0.9516,-0.9516,-0.9516,-0.9414,-0.9215,-0.9414,-0.9382,-0.9215,-0.9215,-0.9318,-0.9484,-0.9285,0.0,0.0,-0.9516,-0.9516,-0.9516,-0.9516,-0.9516,-0.9516,-0.9644,-0.9804,-0.9958,0.0,0.0,0.0,0.0,0.0,0.5039,0.4832,0.4802,0.4724,0.4525,0.4496,0.4496,0.4496,0.4376,0.4214,0.4012,0.3692,0.0,0.0,0.0,0.0,0.0,0.0,0.0,0.0,0.0,0.3603,0.3803,0.3725,0.3698,0.3681,0.3348,0.3192,0.0,0.0,0.0,0.0,0.0,0.0,0.0,0.0,0.0,0.0,0.0,0.0,0.0,0.0,0.0,0.0,0.0,0.0,0.0,0.0,0.5047,0.4864,0.4196,0.3485,0.2874,0.2745,0.2168,0.1579,0.1518,0.124,0.1061,0.0,0.0,0.0999,0.1,0.0683,0.0266,-0.0133,-0.1067,-0.1963,-0.2433,-0.3002,0.0,0.0,0.0,0.0,0.0,0.0,0.0,0.0,0.0,0.0,0.0,0.0,0.0,-0.9516,-0.9516,-0.9516,-0.9516,-0.9516,-0.9516,-0.9516,-0.9516,-0.9151,-0.8522,-0.9183,-0.9151,-0.8522,-0.8522,-0.8888,0.0,0.0,0.0,0.0,-0.9516,-0.9516,-0.9516,-0.9516,-0.9516,-0.9516,-0.9516,-0.9644,-0.9804,0.0,0.0,0.0,0.0,0.0,0.0,0.502,0.4882,0.4823,0.4903,0.4666,0.4605,0.4872,0.4593,0.4382,0.4404,0.3976,0.0,0.0,0.0,0.0,0.0,0.0,0.0,0.0,0.4068,0.4231,0.4491,0.4455,0.4312,0.4027,0.3702,0.3539,0.3544,0.3356,0.0,0.0,0.0,0.0,0.0,0.0,0.0,0.0,0.0,0.0,0.0,0.0,0.0,0.0,0.0,0.0,0.0,0.0,0.0,0.0,0.5284,0.428,0.3418,0.3613,0.2956,0.219,0.2141,0.1901,0.1695,0.1733,0.1542,0.1344,0.1405,0.0876,0.0349,0.0247,-0.0556,-0.1358,-0.187,-0.2418,0.0,0.0,0.0,0.0,0.0,0.0,0.0,0.0,0.0,0.0,0.0,0.0,0.0,-0.9516,-0.9516,-0.9516,-0.9516,-0.9516,-0.9516,-0.9516,-0.9049,-0.8721,-0.849,-0.8204,-0.7939,-0.7744,-0.7744,-0.7874,0.0,0.0,0.0,0.0,-0.8074,-0.8366,-0.8818,-0.8818,-0.9087,-0.9516,-0.9516,-0.9612,-0.9804,0.0,0.0,0.0,0.0,0.0,0.0,0.5098,0.5,0.4961,0.5078,0.4883,0.4824,0.5078,0.4812,0.4624,0.4634,0.4285,0.0,0.0,0.0,0.0,0.0,0.0,0.0,0.4402,0.4402,0.4486,0.4658,0.4615,0.4487,0.4227,0.3925,0.385,0.3962,0.3821,0.381,0.0,0.0,0.0,0.0,0.0,0.0,0.4814,0.0,0.0,0.0,0.0,0.0,0.0,0.0,0.0,0.0,0.0,0.0,0.0,0.0,0.5264,0.438,0.4135,0.3433,0.2738,0.2623,0.2454,0.2266,0.2035,0.0,0.1764,0.1633,0.1103,0.0601,0.0419,-0.0168,-0.089,-0.1631,-0.2221,0.0,0.0,0.0,0.0,0.0,0.0,0.0,0.0,0.0,0.0,0.0,0.0,0.0,-0.9516,-0.9516,-0.9382,-0.9119,-0.9382,-0.9382,-0.9119,-0.8721,-0.8226,-0.7702,-0.7512,-0.7256,-0.7027,-0.7027,-0.7158,0.0,0.0,0.0,0.0,-0.7386,-0.7679,-0.8096,-0.8096,-0.8328,-0.8694,-0.8694,-0.8791,-0.8888,0.0,0.0,0.0,0.0,0.0,0.0,0.0,0.5098,0.5098,0.5098,0.5098,0.5098,0.5098,0.5039,0.4931,0.4745,0.4596,0.0,0.0,0.0,0.0,0.0,0.0,0.0,0.4436,0.4416,0.4422,0.4469,0.4371,0.4343,0.4361,0.4073,0.4117,0.4431,0.4484,0.4564,0.4666,0.4788,0.4845,0.4877,0.4877,0.4877,0.0,0.0,0.0,0.0,0.0,0.0,0.0,0.0,0.0,0.0,0.0,0.0,0.0,0.0,0.0,0.0,0.0,0.3766,0.3265,0.3079,0.2986,0.2818,0.2313,0.0,0.0,0.174,0.1361,0.0951,0.0533,0.0084,-0.0532,-0.1533,0.0,0.0,0.0,0.0,0.0,0.0,0.0,0.0,0.0,0.0,0.0,0.0,0.0,0.0,-0.9414,-0.9414,-0.9119,-0.8458,-0.9022,-0.9055,-0.8425,-0.8388,-0.7702,-0.64,-0.6994,-0.6924,-0.6334,-0.6334,-0.6662,0.0,0.0,0.0,0.0,-0.7256,-0.7288,-0.7321,-0.7321,-0.7354,-0.7386,-0.7386,-0.7386,-0.7386,0.0,0.0,0.0,0.0,0.0,0.0,0.0,0.0,0.0,0.0,0.5098,0.5098,0.5098,0.5088,0.5029,0.0,0.0,0.0,0.0,0.0,0.0,0.0,0.0,0.0,0.4701,0.4502,0.4623,0.5092,0.4821,0.4816,0.5055,0.4529,0.4451,0.4778,0.4644,0.4794,0.5135,0.5166,0.5334,0.557,0.557,0.557,0.0,0.0,0.0,0.0,0.5764,0.5796,0.0,0.0,0.0,0.0,0.0,0.0,0.0,0.0,0.6827,0.6678,0.6195,0.0,0.4379,0.4245,0.3768,0.3308,0.0,0.2612,0.0,0.0,0.0,0.0,0.0,0.0,0.0,0.0,0.0,0.0,0.0,0.0,0.0,0.0,0.0,0.0,0.0,0.0,0.0,0.0,0.0,-0.928,-0.8753,-0.8721,-0.8393,-0.7679,-0.7809,-0.7809,-0.7647,-0.7153,-0.6724,-0.64,-0.6046,-0.5785,-0.562,-0.562,-0.5719,0.0,0.0,0.0,-0.5885,-0.5885,-0.6178,-0.6629,-0.6629,-0.6957,-0.7386,-0.7386,-0.7386,-0.7386,0.0,0.0,0.0,0.0,0.0,0.0,0.0,0.0,0.0,0.0,0.5098,0.5098,0.5098,0.5262,0.5269,0.0,0.0,0.0,0.0,0.0,0.0,0.0,0.0,0.4948,0.5256,0.4806,0.4742,0.5077,0.4954,0.4908,0.4927,0.4814,0.4866,0.5031,0.5117,0.5286,0.5529,0.5529,0.5639,0.5796,0.5796,0.0,0.0,0.0,0.0,0.0,0.5796,0.5796,0.0,0.5796,0.5913,0.606,0.0,0.0,0.0,0.0,0.7006,0.7242,0.7099,0.6163,0.5155,0.4979,0.4459,0.391,0.3552,0.0,0.0,0.0,0.0,0.0,0.0,0.0,0.0,0.0,0.0,0.0,0.0,0.0,0.0,0.0,0.0,0.0,0.0,0.0,0.0,0.0,0.0,-0.8366,-0.8004,-0.8004,-0.7674,-0.6957,-0.6957,-0.6957,-0.6957,-0.6597,-0.6235,-0.5947,-0.5557,-0.5395,-0.5395,-0.5395,-0.5395,0.0,0.0,0.0,-0.5395,-0.5395,-0.5624,-0.5947,-0.5947,-0.6178,-0.6474,-0.6474,-0.6474,-0.6474,0.0,0.0,0.0,0.0,0.0,0.0,0.0,0.0,0.0,0.0,0.0,0.0,0.0,0.0,0.0,0.0,0.0,0.0,0.0,0.0,0.0,0.0,0.5548,0.5466,0.5788,0.5147,0.4827,0.4888,0.4966,0.485,0.459,0.5012,0.5233,0.5312,0.5648,0.5796,0.5796,0.5796,0.5796,0.5796,0.5796,0.0,0.0,0.0,0.0,0.0,0.0,0.0,0.0,0.5796,0.5796,0.5803,0.5854,0.0,0.0,0.0,0.0,0.0,0.7523,0.667,0.5733,0.5498,0.5026,0.4487,0.3961,0.0,0.0,0.0,0.0,0.0,0.0,0.0,0.0,0.0,0.0,0.0,0.0,0.0,0.0,0.0,0.0,0.0,0.0,0.0,0.0,0.0,0.0,-0.7354,-0.7256,-0.7153,-0.6756,-0.61,-0.6067,-0.6023,-0.593,-0.6121,-0.598,-0.5395,-0.5371,-0.5358,-0.5358,-0.5337,-0.5341,-0.5358,0.0,0.0,-0.5395,-0.5395,-0.5395,-0.5395,-0.5395,-0.5395,-0.5395,-0.5395,-0.5395,-0.5395,0.0,0.0,0.0,0.0,0.0,0.0,0.0,0.0,0.0,0.0,0.0,0.0,0.0,0.0,0.0,0.0,0.0,0.0,0.0,0.0,0.0,0.6951,0.5894,0.5466,0.5788,0.5147,0.4963,0.5302,0.5105,0.4975,0.492,0.5118,0.5377,0.5714,0.5774,0.5796,0.5796,0.5796,0.5796,0.5796,0.5796,0.0,0.0,0.0,0.0,0.0,0.0,0.0,0.0,0.5796,0.5796,0.5847,0.6135,0.0,0.0,0.0,0.0,0.0,0.767,0.6945,0.6183,0.6081,0.5404,0.4714,0.4508,0.3711,0.0,0.0,0.0,0.0,0.0,0.0,0.0,0.0,0.0,0.0,0.0,0.0,0.0,0.0,0.0,0.0,0.0,0.0,0.0,0.0,0.0,-0.7158,-0.6597,-0.5957,-0.5299,-0.4649,-0.4616,-0.4331,-0.3712,-0.4927,-0.5491,-0.5392,-0.5226,-0.5133,-0.513,-0.504,-0.5053,-0.5133,0.0,-0.524,-0.5395,-0.5395,-0.5395,-0.5395,-0.5395,-0.5395,-0.5395,-0.5395,-0.5395,-0.5395,0.0,0.0,0.0,0.0,0.0,0.0,0.0,0.0,0.0,0.0,0.0,0.0,0.0,0.0,0.0,0.0,0.0,0.0,0.0,0.0,0.6579,0.7168,0.654,0.6139,0.6075,0.5481,0.5251,0.5401,0.5032,0.4745,0.4571,0.4673,0.4912,0.5268,0.5634,0.5796,0.5796,0.5796,0.5796,0.5796,0.0,0.0,0.0,0.0,0.0,0.0,0.0,0.0,0.0,0.0,0.6161,0.6283,0.6295,0.0,0.0,0.0,0.0,0.0,0.7691,0.7021,0.6295,0.6258,0.5329,0.4377,0.426,0.3382,0.0,0.0,0.0,0.0,0.0,0.0,0.0,0.0,0.0,0.0,0.0,0.0,0.0,0.0,0.0,0.0,0.0,0.0,0.0,0.0,0.0,0.0,-0.4702,-0.434,-0.4018,-0.3731,-0.3698,-0.3545,-0.3209,-0.3868,-0.4352,-0.4642,-0.423,-0.4202,-0.4513,-0.4455,-0.4497,-0.4614,0.0,-0.5148,-0.5355,-0.4908,-0.4986,-0.5359,-0.4957,-0.5057,-0.5395,-0.5395,-0.5395,-0.5395,0.0,0.0,0.0,0.0,0.0,0.0,0.0,0.0,0.0,0.0,0.0,0.0,0.0,0.0,0.0,0.0,0.0,0.0,0.0,0.6707,0.6827,0.7231,0.7041,0.6779,0.6453,0.5822,0.5444,0.535,0.4828,0.4384,0.4016,0.4148,0.4376,0.4724,0.5473,0.5796,0.5796,0.5796,0.5796,0.5796,0.0,0.0,0.0,0.0,0.0,0.0,0.0,0.0,0.0,0.0,0.0,0.0,0.0,0.0,0.0,0.7304,0.7501,0.7691,0.7691,0.7021,0.6298,0.6238,0.5267,0.4246,0.3997,0.3205,0.0,0.0,0.0,0.0,0.0,0.0,0.0,0.0,0.0,0.0,0.0,0.0,0.0,0.0,0.0,0.0,0.0,0.0,0.0,0.0,0.0,0.0,-0.3211,-0.3031,-0.2955,-0.2955,-0.2955,-0.2851,-0.2675,-0.2831,-0.3215,-0.3783,-0.3299,-0.3287,-0.3741,-0.3713,-0.376,-0.3924,-0.4269,-0.4593,-0.4832,-0.4175,-0.4275,-0.4824,-0.4253,-0.4386,-0.4894,-0.5129,-0.5156,-0.5169,0.0,0.0,0.0,0.0,0.0,0.0,0.0,0.0,0.0,0.0,0.0,0.0,0.0,0.0,0.0,0.0,0.0,0.0,0.0,0.6999,0.6962,0.7372,0.7131,0.6942,0.6855,0.5965,0.5409,0.5218,0.4561,0.3965,0.3464,0.3778,0.4069,0.4376,0.5361,0.5796,0.5796,0.5796,0.5796,0.5796,0.5796,0.0,0.0,0.0,0.0,0.0,0.0,0.0,0.0,0.0,0.0,0.0,0.0,0.0,0.7268,0.7567,0.7676,0.7691,0.7691,0.7021,0.6256,0.6076,0.5481,0.4784,0.4224,0.3598,0.0,0.321,0.0,0.0,0.0,0.0,0.0,0.0,0.0,0.0,0.0,0.0,0.0,0.0,0.0,0.0,0.0,0.0,0.0,0.0,0.0,0.0,-0.3236,-0.2539,-0.2163,-0.2163,-0.2163,-0.1831,-0.1067,-0.1746,-0.2458,-0.3169,-0.2987,-0.2945,-0.2972,-0.2853,-0.2864,-0.2983,-0.3035,-0.3171,-0.3347,-0.3277,-0.3296,-0.3351,-0.3316,-0.3316,-0.3462,-0.4275,-0.4487,-0.452,0.0,0.0,0.0,0.0,0.0,0.0,0.0,0.0,0.0,0.0,0.0,0.7408,0.7232,0.0,0.0,0.0,0.0,0.0,0.0,0.7199,0.7151,0.7396,0.7333,0.7205,0.6966,0.5913,0.521,0.4892,0.3671,0.2979,0.2789,0.3334,0.3961,0.4639,0.5443,0.5796,0.5796,0.5796,0.5796,0.5796,0.5796,0.5796,0.0,0.0,0.0,0.0,0.0,0.0,0.0,0.0,0.6614,0.6971,0.6768,0.7066,0.7538,0.7654,0.7691,0.7628,0.7342,0.6628,0.5962,0.584,0.5209,0.0,0.0,0.3039,0.2486,0.2393,0.1932,0.0,0.0,0.0,0.0,0.0,0.0,0.0,0.0,0.0,0.0,0.0,0.0,0.0,0.0,0.0,0.0,0.0,0.0,0.0,-0.1796,-0.1508,-0.1348,-0.1348,-0.1348,-0.1223,-0.0913,-0.1177,-0.1465,-0.1744,-0.1693,-0.1853,-0.2221,-0.2165,-0.2221,-0.2347,-0.2644,-0.2924,-0.309,-0.2543,-0.2662,-0.3156,-0.3176,-0.3199,-0.3255,-0.356,-0.3652,-0.3661,0.0,0.0,0.0,0.0,0.0,0.0,0.0,0.0,0.7695,0.0,0.0,0.0,0.0,0.7695,0.0,0.0,0.0,0.0,0.7525,0.7412,0.7368,0.746,0.7416,0.722,0.6918,0.5641,0.4809,0.4446,0.2669,0.1951,0.2259,0.293,0.3737,0.4678,0.5458,0.5796,0.5796,0.5796,0.5796,0.5796,0.5796,0.5854,0.0,0.0,0.0,0.0,0.0,0.0,0.0,0.0,0.6863,0.7165,0.6928,0.7253,0.767,0.7517,0.7412,0.721,0.6761,0.6112,0.5535,0.5318,0.0,0.0,0.3392,0.2908,0.2481,0.2054,0.1857,0.0,0.0,0.0,0.0,0.0,0.0,0.0,0.0,0.0,0.0,0.0,0.0,0.0,0.0,0.0,0.0,0.0,0.0,0.0,0.0,-0.0905,-0.0899,-0.0899,-0.0899,-0.0899,-0.0899,-0.0899,-0.0889,-0.0898,-0.0898,-0.1121,-0.1512,-0.1512,-0.156,-0.1678,-0.2005,-0.2224,-0.2364,-0.1751,-0.1868,-0.2442,-0.2488,-0.2518,-0.2584,-0.2843,-0.2905,-0.2889,0.0,0.0,0.0,0.0,0.0,0.0,0.0,0.0,0.7695,0.7695,0.7695,0.0,0.0,0.0,0.0,0.0,0.0,0.0,0.7603,0.7603,0.7603,0.7603,0.7279,0.6972,0.6691,0.5124,0.4163,0.3887,0.1618,0.0999,0.1936,0.2608,0.3411,0.4356,0.5347,0.5796,0.5796,0.5796,0.5796,0.5796,0.5796,0.5994,0.6297,0.0,0.0,0.0,0.0,0.0,0.0,0.0,0.7202,0.7209,0.719,0.7428,0.7607,0.7133,0.6755,0.6404,0.593,0.5465,0.4964,0.0,0.0,0.0,0.3261,0.3398,0.3436,0.2496,0.0,0.199,0.1668,0.0,0.0,0.0,0.0,0.0,0.0,0.0,0.0,0.0,0.0,0.0,0.0,0.0,0.0,0.0,0.0,0.0,0.0,-0.0885,-0.0897,-0.0897,-0.0898,-0.0898,-0.0898,-0.0898,-0.0898,-0.0898,-0.0898,-0.0898,-0.0898,-0.0898,-0.0898,-0.0898,-0.0898,-0.0887,-0.0914,-0.0913,-0.0948,-0.1,-0.1,-0.105,-0.1213,-0.2076,-0.2266,-0.223,0.0,0.0,0.0,0.0,0.0,0.0,0.0,0.0,0.7695,0.7695,0.7695,0.0,0.0,0.0,0.0,0.0,0.0,0.0,0.7671,0.7583,0.7451,0.7259,0.7154,0.6846,0.629,0.4977,0.3827,0.285,0.1929,0.2201,0.3592,0.3791,0.4402,0.5376,0.5662,0.5796,0.5796,0.5796,0.5796,0.5796,0.5796,0.5854,0.5964,0.0,0.0,0.0,0.0,0.0,0.0,0.0,0.0,0.0,0.6803,0.6929,0.7112,0.6656,0.6437,0.6267,0.584,0.526,0.0,0.444,0.0,0.0,0.0,0.3192,0.0,0.0,0.0,0.2115,0.0,0.0,0.0,0.0,0.0,0.0,0.0,0.0,0.0,0.0,0.0,0.0,0.0,0.0,0.0,0.0,0.0,0.0,0.0,-0.0816,-0.0812,-0.0893,-0.0886,-0.0898,-0.0898,-0.0898,-0.0898,-0.0898,-0.0898,-0.0898,-0.0898,-0.0898,-0.0909,-0.09,-0.09,-0.0917,-0.0973,-0.0922,-0.0924,-0.094,-0.094,-0.0957,-0.1047,-0.1312,-0.1372,-0.1365,0.0,0.0,0.0,0.0,0.0,0.0,0.846,0.8019,0.7695,0.7695,0.7695,0.7695,0.0,0.0,0.0,0.7695,0.7656,0.0,0.7695,0.7622,0.7505,0.7348,0.7086,0.6513,0.5602,0.4739,0.3991,0.3356,0.2647,0.2986,0.429,0.406,0.4465,0.5399,0.5157,0.5102,0.5202,0.5202,0.5283,0.5406,0.5406,0.5465,0.5575,0.0,0.0,0.0,0.0,0.0,0.0,0.0,0.0,0.0,0.67,0.6709,0.6634,0.6219,0.5883,0.5497,0.4935,0.0,0.0,0.3858,0.3597,0.3369,0.3265,0.0,0.0,0.0,0.0,0.0,0.0,0.0,0.0,0.0,0.0,0.0,0.0,0.0,0.0,0.0,0.0,0.0,0.0,0.0,0.0,0.0,0.0,0.0,0.0,-0.0634,-0.0612,-0.0692,-0.0689,-0.0701,-0.0701,-0.0701,-0.0701,-0.0701,-0.0701,-0.0701,-0.0701,-0.0853,-0.089,-0.0897,-0.0908,-0.093,-0.0987,-0.0969,-0.0931,-0.0931,-0.0931,-0.0972,-0.0988,-0.0988,-0.0988,-0.0988,0.0,0.0,0.943,0.9188,0.0,0.0,0.8315,0.7942,0.771,0.7739,0.771,0.7695,0.0,0.0,0.0,0.7695,0.7695,0.7681,0.7652,0.7652,0.7637,0.7578,0.6963,0.6081,0.4923,0.4595,0.4576,0.4842,0.3628,0.3518,0.4429,0.3818,0.3965,0.4726,0.4181,0.405,0.4263,0.4315,0.4518,0.4798,0.4798,0.4944,0.5133,0.492,0.0,0.0,0.0,0.0,0.0,0.0,0.0,0.0,0.6684,0.6613,0.6225,0.5835,0.5211,0.4487,0.3704,0.0,0.0,0.3023,0.0,0.0,0.0,0.0,0.0,0.0,0.0,0.0,0.0,0.0,0.0,0.0,0.0,0.0,0.0,0.0,0.0,0.0,0.0,0.0,0.0,0.0,0.0,0.0,0.0,0.0,0.0,-0.0286,-0.0291,-0.0397,-0.0357,-0.0364,-0.0393,-0.0393,-0.0393,-0.0393,-0.0393,-0.0393,-0.0421,-0.0723,-0.0867,-0.0875,-0.0905,-0.0931,-0.0984,-0.0984,-0.0982,-0.098,-0.098,-0.098,-0.098,-0.098,-0.098,-0.098,0.0,0.0,0.9484,0.943,0.0,0.0,0.8875,0.823,0.7797,0.8058,0.7856,0.7695,0.7695,0.7695,0.0,0.7695,0.7695,0.7583,0.7324,0.7309,0.7101,0.6627,0.6206,0.5861,0.559,0.5508,0.5387,0.5197,0.4389,0.4502,0.5456,0.4802,0.4471,0.4401,0.4274,0.4102,0.3937,0.4465,0.4741,0.4798,0.4798,0.4828,0.4901,0.4993,0.5239,0.0,0.0,0.0,0.0,0.0,0.0,0.0,0.6021,0.6118,0.614,0.5383,0.5096,0.4865,0.4338,0.3792,0.0,0.0,0.0,0.0,0.0,0.0,0.0,0.0,0.0,0.0,0.0,0.0,0.0,0.0,0.0,0.0,0.0,0.0,0.0,0.0,0.0,0.0,0.0,0.0,0.0,0.0,0.0,0.0,-0.0072,0.0624,0.0586,-0.0383,0.0,0.0028,-0.0393,-0.0393,-0.0393,0.0,-0.0393,-0.0393,-0.0393,-0.048,-0.0601,-0.0759,-0.0905,-0.0969,-0.0923,-0.0923,-0.0909,-0.0917,-0.0917,-0.0917,-0.0917,-0.0917,-0.0917,-0.0917,0.0,0.0,0.0,0.0,0.0,0.0,0.0,0.0,0.7768,0.7942,0.7812,0.7695,0.7695,0.7695,0.0,0.0,0.7695,0.7554,0.7225,0.7196,0.6927,0.633,0.6129,0.5889,0.5561,0.5561,0.5404,0.5065,0.4705,0.4801,0.5298,0.4635,0.4231,0.4053,0.3725,0.3574,0.3583,0.394,0.4155,0.4274,0.4274,0.4274,0.4302,0.4489,0.4673,0.4884,0.5199,0.0,0.0,0.0,0.0,0.0,0.0,0.0,0.5685,0.5701,0.5265,0.4679,0.0,0.0,0.0,0.0,0.0,0.0,0.0,0.0,0.0,0.0,0.0,0.0,0.0,0.0,0.0,0.0,0.0,0.0,0.0,0.0,0.0,0.0,0.0,0.0,0.0,0.0,0.0,0.0,0.0,0.1022,0.0785,0.1278,0.129,0.0671,0.0926,0.0784,0.0224,0.0504,0.0504,0.0224,0.0224,0.0084,-0.0224,-0.0336,-0.0461,-0.0602,-0.0724,-0.0755,-0.0723,-0.0723,-0.071,-0.0718,-0.0718,-0.0683,-0.0673,-0.0757,-0.0813,-0.0813,0.0,0.0,0.0,0.0,0.0,0.0,0.0,0.0,0.0,0.7886,0.7857,0.7798,0.7705,0.7695,0.7695,0.0,0.0,0.0,0.7136,0.7017,0.6717,0.6153,0.6122,0.5842,0.523,0.5214,0.5049,0.4702,0.4702,0.4623,0.4497,0.4022,0.3763,0.3693,0.3133,0.3002,0.3218,0.3324,0.3491,0.3709,0.3742,0.3756,0.378,0.4019,0.4126,0.4177,0.4603,0.4762,0.4769,0.495,0.0,0.0,0.0,0.0,0.5366,0.6033,0.5475,0.4578,0.0,0.0,0.3486,0.0,0.0,0.0,0.0,0.0,0.0,0.0,0.0,0.0,0.0,0.0,0.0,0.0,0.0,0.0,0.0,0.0,0.0,0.0,0.0,0.0,0.0,0.0,0.0,0.0,0.0,0.1655,0.1684,0.1923,0.1992,0.1806,0.1895,0.1679,0.1065,0.154,0.154,0.1065,0.0953,0.0701,0.0308,-0.014,-0.0376,-0.0455,-0.0473,-0.0474,-0.0486,-0.0486,-0.0479,-0.0497,-0.0497,-0.0459,-0.0421,-0.0589,-0.0645,-0.0673,0.0,0.0,0.0,0.0,0.0,0.0,0.0,0.0,0.0,0.0,0.8453,0.8145,0.7744,0.7695,0.7695,0.7695,0.7436,0.7127,0.679,0.0,0.0,0.5451,0.5435,0.5255,0.4877,0.4861,0.467,0.4285,0.4285,0.3956,0.3334,0.3656,0.365,0.3362,0.3274,0.3101,0.2904,0.342,0.3669,0.3719,0.3892,0.3962,0.4005,0.4451,0.4603,0.4632,0.4879,0.4969,0.4969,0.4997,0.5011,0.0,0.0,0.0,0.5996,0.5388,0.5399,0.5427,0.0,0.0,0.0,0.0,0.0,0.0,0.0,0.0,0.0,0.0,0.0,0.0,0.0,0.0,0.0,0.0,0.0,0.0,0.0,0.0,0.0,0.0,0.0,0.0,0.0,0.0,0.0,0.0,0.2503,0.2501,0.2048,0.2754,0.2762,0.1833,0.2305,0.2291,0.1679,0.1762,0.1762,0.1679,0.1149,0.1121,0.1511,0.0448,-0.0113,-0.0256,-0.0368,-0.0424,-0.0426,-0.0426,-0.0425,-0.0423,-0.0423,-0.0394,-0.0393,-0.0421,-0.0449,-0.0477,0.0,0.0,0.0,0.0,0.0,0.0,0.0,0.0,0.0,0.0,0.0,0.8652,0.8451,0.8232,0.8009,0.7831,0.7438,0.7002,0.6504,0.6052,0.5655,0.5309,0.5293,0.5033,0.4478,0.4462,0.4291,0.3923,0.3923,0.3643,0.31,0.3304,0.325,0.2982,0.3355,0.3272,0.2881,0.33,0.3475,0.3476,0.3486,0.3592,0.3738,0.3985,0.4209,0.4413,0.4768,0.4946,0.5026,0.514,0.5102,0.505,0.5301,0.0,0.0,0.0,0.555,0.0,0.4583,0.0,0.0,0.0,0.0,0.0,0.0,0.0,0.0,0.0,0.0,0.0,0.0,0.0,0.0,0.0,0.0,0.0,0.0,0.0,0.0,0.0,0.0,0.0,0.0,0.0,0.0,0.0,0.3026,0.3089,0.2855,0.3276,0.3284,0.2818,0.3053,0.2907,0.2319,0.2629,0.2629,0.2291,0.204,0.1874,0.179,0.1259,0.098,0.0868,0.014,0.0028,0.0308,-0.0028,-0.0168,-0.0168,-0.0168,-0.0168,-0.0196,-0.0252,-0.028,-0.0308,0.0,0.0,0.0,0.0,0.0,0.0,0.0,0.0,0.0,0.0,0.0,0.9069,0.8877,0.0,0.0,0.0,0.7431,0.695,0.6222,0.5858,0.5529,0.5192,0.5065,0.473,0.4086,0.4064,0.3956,0.3705,0.3705,0.3438,0.2945,0.2995,0.2777,0.2371,0.3062,0.3183,0.2893,0.3091,0.3175,0.3176,0.3212,0.3346,0.3549,0.3671,0.3879,0.4153,0.4657,0.4894,0.5006,0.5292,0.0,0.0,0.0,0.0,0.0,0.0,0.0,0.0,0.0,0.0,0.0,0.0,0.0,0.0,0.0,0.0,0.0,0.0,0.0,0.0,0.0,0.0,0.0,0.0,0.0,0.0,0.0,0.0,0.0,0.0,0.0,0.0,0.0,0.0,0.0,0.0,0.3533,0.3551,0.3447,0.3534,0.3613,0.3613,0.3613,0.3385,0.2933,0.3385,0.3385,0.2933,0.2764,0.2543,0.2238,0.193,0.1958,0.2181,0.098,0.07,0.1092,0.0644,0.0364,0.0224,0.0224,0.0141,0.0,-0.0112,-0.0141,-0.017,0.0,0.0,0.0,0.0,0.0,0.0,0.0,0.0,0.0,0.0,0.0,0.9282,0.8516,0.8753,0.8505,0.7345,0.7327,0.6941,0.5896,0.5514,0.5176,0.4845,0.4468,0.0,0.3737,0.3721,0.3721,0.3705,0.3705,0.3293,0.2533,0.2728,0.2302,0.1406,0.2139,0.2596,0.2808,0.2827,0.2827,0.2866,0.3376,0.3583,0.3641,0.3961,0.4087,0.4179,0.4698,0.0,0.0,0.0,0.0,0.0,0.5381,0.5613,0.5823,0.0,0.0,0.0,0.0,0.0,0.0,0.0,0.0,0.0,0.0,0.0,0.0,0.0,0.0,0.0,0.0,0.0,0.0,0.0,0.0,0.0,0.0,0.0,0.0,0.0,0.0,0.0,0.0,0.0,0.0,0.0,0.4122,0.3978,0.3602,0.361,0.3613,0.3613,0.3613,0.3583,0.3555,0.3583,0.3583,0.3555,0.2961,0.2991,0.3471,0.2322,0.2434,0.3444,0.2238,0.1734,0.1762,0.1706,0.1372,0.0842,0.0842,0.0515,0.0,0.0,0.0,-0.0029,0.0,0.0,0.0,0.0,0.0,0.0,0.0,0.0,0.0,0.0,0.0,0.0,0.0,0.948,0.8931,0.7809,0.7088,0.6604,0.6395,0.6263,0.5848,0.5093,0.5086,0.4664,0.3726,0.3831,0.3831,0.3705,0.3705,0.3419,0.2874,0.2696,0.23,0.1766,0.2209,0.2362,0.2301,0.261,0.2781,0.2857,0.2694,0.2952,0.3394,0.3161,0.342,0.0,0.0,0.0,0.0,0.0,0.0,0.0,0.5353,0.5426,0.5474,0.5113,0.5219,0.0,0.0,0.0,0.0,0.0,0.0,0.0,0.0,0.0,0.0,0.0,0.0,0.0,0.0,0.0,0.0,0.0,0.0,0.0,0.0,0.0,0.0,0.0,0.0,0.0,0.0,0.0,0.0,0.0,0.0,0.4594,0.4432,0.4436,0.4294,0.399,0.399,0.3855,0.3613,0.3613,0.3613,0.3585,0.3385,0.3385,0.3583,0.3163,0.319,0.3583,0.3135,0.274,0.2347,0.1958,0.1679,0.1487,0.1576,0.1193,0.0588,0.0683,0.0651,0.0528,0.0,0.0,0.0,0.0,0.0,1.2077,1.1404,1.1311,1.1067,1.04,0.0,0.0,0.0,0.0,0.9171,0.8072,0.7033,0.6475,0.656,0.646,0.6005,0.5106,0.5103,0.4675,0.3726,0.3831,0.3841,0.3705,0.3705,0.3494,0.3095,0.2756,0.2386,0.2003,0.218,0.2113,0.1887,0.2254,0.251,0.2662,0.231,0.2576,0.3167,0.0,0.0,0.0,0.0,0.0,0.0,0.0,0.0,0.0,0.5155,0.5292,0.5398,0.5281,0.555,0.0,0.6229,0.0,0.0,0.0,0.0,0.0,0.0,0.0,0.0,0.0,0.0,0.0,0.0,0.0,0.0,0.0,0.0,0.0,0.0,0.0,0.0,0.0,0.0,0.0,0.0,0.0,0.0,0.0,0.0,0.0,0.4897,0.4897,0.4759,0.4457,0.4288,0.407,0.3802,0.3666,0.3613,0.3613,0.3613,0.3613,0.3613,0.3613,0.3613,0.3613,0.3613,0.3385,0.2961,0.2573,0.2308,0.2166,0.2272,0.1903,0.1303,0.1409,0.1367,0.1222,0.0,0.0,1.1957,1.1571,1.1497,1.1367,1.0954,1.0897,1.0755,1.0351,0.0,0.0,0.0,0.0,0.0,0.8024,0.7186,0.6611,0.6363,0.604,0.5557,0.4879,0.4469,0.4101,0.374,0.3724,0.3719,0.3714,0.3709,0.3499,0.3119,0.2905,0.2536,0.2035,0.2025,0.1886,0.1657,0.1777,0.2014,0.2328,0.0,0.2585,0.3052,0.0,0.0,0.0,0.4682,0.4869,0.0,0.4897,0.0,0.0,0.0,0.5292,0.5717,0.5739,0.6013,0.0,0.0,0.0,0.0,0.0,0.0,0.0,0.0,0.0,0.0,0.0,0.0,0.0,0.0,0.0,0.0,0.0,0.0,0.0,0.0,0.0,0.0,0.0,0.0,0.0,0.0,0.0,0.0,0.0,0.5622,0.5426,0.4956,0.4928,0.4928,0.4928,0.4453,0.4205,0.4205,0.3802,0.3613,0.3613,0.3613,0.3613,0.3613,0.3613,0.3613,0.3613,0.3613,0.3613,0.3613,0.3613,0.3339,0.2934,0.2939,0.2593,0.2113,0.2115,0.2093,0.2025,0.0,1.1877,1.1627,1.1516,1.1497,1.1367,1.0954,1.0897,1.0755,0.0,0.0,0.0,1.0118,0.9322,0.8781,0.8706,0.7683,0.7136,0.7302,0.7237,0.6872,0.6202,0.5878,0.5388,0.4663,0.4346,0.4115,0.392,0.3775,0.3644,0.3527,0.3184,0.2936,0.2782,0.2594,0.2599,0.2737,0.2443,0.2616,0.3058,0.2623,0.2892,0.0,0.0,0.0,0.0,0.0,0.4398,0.4453,0.0,0.5049,0.5276,0.0,0.0,0.6292,0.6404,0.6497,0.0,0.7512,0.0,0.0,0.0,0.0,0.0,0.6443,0.6207,0.0,0.0,0.0,0.0,0.0,0.0,0.0,0.0,0.0,0.0,0.0,0.0,0.0,0.0,0.0,0.0,0.0,0.0,0.0,0.0,0.6037,0.5982,0.5841,0.5563,0.5399,0.5399,0.4952,0.4539,0.4205,0.4098,0.3882,0.3613,0.3613,0.3613,0.3613,0.3613,0.3613,0.3613,0.3613,0.3613,0.3613,0.3613,0.3594,0.3558,0.361,0.3266,0.2763,0.2741,0.2695,0.2573,1.2131,1.1774,1.1442,1.1274,1.1105,1.0916,1.0697,1.0659,1.0563,0.0,0.0,0.0,0.9784,0.8968,0.8461,0.8451,0.782,0.7435,0.7486,0.7304,0.6914,0.6272,0.5913,0.5412,0.4769,0.4509,0.4276,0.4,0.3887,0.3784,0.37,0.3541,0.3422,0.3301,0.3253,0.3303,0.338,0.2961,0.0,0.0,0.274,0.0,0.0,0.325,0.3452,0.0,0.0,0.0,0.426,0.4673,0.526,0.0,0.0,0.0,0.0,0.0,0.0,0.0,0.0,0.0,0.0,0.0,0.0,0.0,0.6725,0.632,0.5851,0.0,0.0,0.0,0.0,0.0,0.0,0.0,0.0,0.0,0.0,0.0,0.0,0.0,0.0,0.0,0.0,0.6205,0.6205,0.6205,0.6205,0.6205,0.6205,0.5982,0.5845,0.5845,0.523,0.4759,0.4484,0.4128,0.3827,0.3613,0.3613,0.3613,0.3613,0.3613,0.3613,0.3613,0.3613,0.3613,0.3613,0.3613,0.3679,0.3788,0.3833,0.3656,0.338,0.338,0.3345,0.3218,0.0,1.1645,1.1255,1.0897,1.0544,1.0303,1.0303,1.0303,1.0283,0.0,1.0186,0.9816,0.8935,0.8537,0.816,0.7732,0.7607,0.7423,0.7117,0.6713,0.6239,0.5693,0.5244,0.4847,0.4548,0.4466,0.4309,0.4037,0.4037,0.3934,0.3742,0.3944,0.3921,0.3736,0.3975,0.3961,0.3767,0.3409,0.0,0.3289,0.2786,0.2857,0.0,0.0,0.3769,0.4153,0.4177,0.4233,0.4315,0.4752,0.5463,0.0,0.0,0.0,0.0,0.0,0.7497,0.0,0.0,0.0,0.0,0.0,0.0,0.0,0.6303,0.5952,0.5492,0.0,0.0,0.0,0.0,0.0,0.0,0.0,0.0,0.0,0.0,0.0,0.0,0.0,0.0,0.0,0.6186,0.6205,0.6205,0.6205,0.6205,0.6205,0.6205,0.6205,0.6205,0.6205,0.5454,0.5007,0.4897,0.4135,0.3694,0.3613,0.3613,0.3613,0.3613,0.3613,0.3613,0.3613,0.3613,0.3613,0.3613,0.3613,0.3679,0.3812,0.3812,0.3827,0.3903,0.3889,0.3846,0.3809,1.1161,1.0802,1.0505,1.0428,1.0341,1.0303,1.0303,1.0303,1.0157,0.9785,0.9459,0.8896,0.7973,0.7852,0.7793,0.771,0.7014,0.6546,0.6475,0.6385,0.6276,0.6166,0.5764,0.5518,0.5455,0.4912,0.4547,0.4319,0.4319,0.4191,0.3948,0.4201,0.439,0.4486,0.4543,0.4451,0.4245,0.3898,0.0,0.301,0.3041,0.0,0.3686,0.3594,0.3634,0.3747,0.407,0.437,0.4752,0.5733,0.636,0.6759,0.0,0.0,0.0,0.7872,0.0,0.0,0.0,0.0,0.0,0.0,0.0,0.0,0.8655,0.8128,0.7562,0.0,0.0,0.0,0.0,0.0,0.0,0.0,0.0,0.0,0.0,0.0,0.0,0.0,0.0,0.0,0.6186,0.6205,0.6205,0.6205,0.6205,0.6205,0.6205,0.6205,0.6205,0.6205,0.6037,0.5618,0.4897,0.4736,0.4298,0.3613,0.3613,0.3613,0.3613,0.3613,0.3613,0.3613,0.3613,0.3613,0.3613,0.3613,0.3679,0.3812,0.3812,0.3827,0.3892,0.3825,0.3802,0.3798,1.1199,1.0888,1.0602,1.0602,1.0428,1.0303,1.0303,1.0098,0.9873,0.9619,0.9079,0.8337,0.7365,0.7307,0.7349,0.7349,0.6713,0.6289,0.6289,0.6118,0.5996,0.5996,0.5572,0.5345,0.5345,0.5025,0.4746,0.4557,0.4557,0.4428,0.4205,0.4437,0.4423,0.4201,0.4453,0.433,0.3934,0.0,0.3551,0.3233,0.2966,0.0,0.3247,0.3254,0.3402,0.3666,0.4236,0.5027,0.5811,0.5842,0.6554,0.0,0.0,0.7267,0.7949,0.0,0.8349,0.8508,0.0,0.0,0.0,0.9837,0.0,0.0,0.0,0.8514,0.7992,0.0,0.0,0.0,0.0,0.0,0.0,0.0,0.0,0.0,0.0,0.0,0.0,0.0,0.0,0.0,0.6172,0.6205,0.6205,0.6205,0.6205,0.6205,0.6205,0.6205,0.6205,0.6205,0.6009,0.5704,0.5258,0.5011,0.4641,0.4088,0.421,0.4207,0.4088,0.3963,0.391,0.3882,0.3694,0.355,0.3498,0.3558,0.361,0.3613,0.3673,0.3736,0.3751,0.372,0.3698,0.369,1.1274,1.101,1.0783,1.0783,1.0525,1.0303,1.0303,0.9903,0.9477,0.9135,0.8523,0.7776,0.6836,0.677,0.6828,0.6857,0.6301,0.5997,0.6149,0.5727,0.546,0.546,0.5193,0.4971,0.4805,0.4923,0.4902,0.4704,0.4747,0.4661,0.4466,0.4714,0.4478,0.3894,0.4207,0.407,0.3559,0.0,0.0,0.3374,0.0,0.2674,0.2901,0.3072,0.3422,0.3885,0.4728,0.5869,0.6903,0.6068,0.6743,0.7751,0.6947,0.7236,0.0,0.0,0.0,0.0,0.0,0.0,0.0,0.0,0.0,1.0081,0.0,0.0,0.0,0.0,0.0,0.0,0.0,0.0,0.0,0.0,0.0,0.0,0.0,0.0,0.0,0.0,0.0,0.0,0.0,0.6445,0.6337,0.6205,0.6205,0.6205,0.6205,0.6205,0.6205,0.6205,0.5896,0.566,0.554,0.5179,0.4824,0.454,0.4751,0.4758,0.4591,0.4416,0.4343,0.4319,0.3993,0.3757,0.3649,0.3777,0.3754,0.3623,0.3619,0.3613,0.3613,0.3613,0.3613,0.3613,1.0438,1.039,1.038,1.038,1.0322,1.0303,1.0303,0.9903,0.9053,0.75,0.7221,0.6889,0.6189,0.6112,0.6195,0.6356,0.5292,0.0,0.563,0.0,0.4548,0.4548,0.5005,0.4905,0.4126,0.4697,0.4902,0.4704,0.4879,0.4864,0.4681,0.5054,0.497,0.4495,0.4301,0.0,0.0,0.0,0.2969,0.0,0.2701,0.2998,0.0,0.3901,0.4208,0.4543,0.5764,0.6745,0.745,0.0,0.7747,0.7877,0.0,0.7805,0.8008,0.8474,0.0,0.0,0.0,0.0,0.0,0.0,1.0224,0.0,0.0,0.0,0.9318,0.9431,0.0,0.0,0.0,0.0,0.0,0.0,0.0,0.0,0.0,0.0,0.0,0.0,0.0,0.0,0.0,0.7268,0.6766,0.6232,0.6205,0.6205,0.6205,0.6205,0.6205,0.6205,0.615,0.5864,0.5336,0.5283,0.4934,0.4339,0.4529,0.4628,0.4617,0.4745,0.4814,0.4814,0.4763,0.4646,0.4493,0.4671,0.4646,0.4414,0.3835,0.3613,0.3613,0.3613,0.3613,0.3613,1.0303,1.0069,0.9971,1.0264,0.9892,0.9626,0.9854,0.9465,0.8581,0.7024,0.751,0.7536,0.0,0.0,0.0,0.0,0.0,0.4741,0.0,0.0,0.4603,0.5065,0.5335,0.5311,0.4935,0.5212,0.524,0.5049,0.524,0.5235,0.5054,0.5335,0.5181,0.4643,0.4409,0.0,0.3607,0.0,0.3218,0.0,0.0,0.0,0.0,0.3896,0.4463,0.5449,0.6145,0.688,0.7456,0.0,0.7417,0.0,0.0,0.0,0.0,0.0,0.0,0.0,0.0,0.0,0.0,0.0,0.0,0.0,1.0405,0.0,1.009,0.0,0.0,0.0,0.0,0.0,0.0,0.0,0.8852,0.0,0.0,0.0,0.0,0.0,0.0,0.0,0.0,0.0,0.0,0.0,0.6212,0.6307,0.6043,0.6139,0.6149,0.6022,0.6017,0.584,0.548,0.548,0.5278,0.4892,0.5195,0.5281,0.5187,0.5157,0.5128,0.512,0.4707,0.447,0.4341,0.4602,0.4555,0.4295,0.4217,0.409,0.3935,0.3935,0.3799,0.3613,1.0262,0.9884,0.9771,1.0335,0.9722,0.9237,0.9479,0.9187,0.8467,0.7174,0.7734,0.0,0.6576,0.6649,0.0,0.0,0.5227,0.4912,0.0,0.0,0.4722,0.0,0.0,0.0,0.504,0.5401,0.5533,0.5377,0.5601,0.5596,0.5377,0.5766,0.5591,0.4969,0.0,0.4474,0.398,0.0,0.374,0.3779,0.4084,0.4346,0.4525,0.4245,0.4835,0.5887,0.6394,0.6912,0.7269,0.6919,0.7296,0.0,0.7049,0.0,0.0,0.0,0.0,0.0,0.9536,0.0,0.0,0.0,0.0,0.0,0.0,0.0,0.0,0.0,0.0,0.0,0.0,0.0,0.0,0.0,0.0,0.0,0.0,0.0,0.0,0.0,0.0,0.0,0.0,0.0,0.0,0.0,0.0,0.6329,0.5932,0.6031,0.6045,0.5916,0.5906,0.5783,0.5524,0.5519,0.5443,0.5315,0.5656,0.575,0.5593,0.5506,0.5431,0.5353,0.4865,0.4582,0.4463,0.4752,0.4696,0.4471,0.476,0.4688,0.4391,0.4324,0.413,0.3893,1.01,0.9783,0.9846,1.0642,1.0061,0.9433,0.9317,0.9289,0.8913,0.0,0.0,0.0,0.0,0.0,0.0,0.0,0.0,0.532,0.613,0.0,0.4641,0.0,0.0,0.5163,0.0,0.4902,0.5609,0.5599,0.5858,0.5858,0.5604,0.6395,0.6375,0.5677,0.5657,0.551,0.522,0.4764,0.4425,0.4171,0.4205,0.4205,0.4315,0.0,0.5546,0.5469,0.6647,0.0,0.0,0.7641,0.7871,0.0,0.0,0.0,0.0,0.0,0.0,0.0,0.0,0.0,0.0,0.971,0.0,0.0,0.0,0.0,1.0496,0.0,0.0,0.0,0.0,0.0,0.0,0.0,0.0,0.0,0.0,0.0,0.0,0.0,0.0,0.0,0.0,0.0,0.0,0.0,0.0,0.0,0.5923,0.5916,0.5916,0.5906,0.5906,0.5713,0.5301,0.532,0.5315,0.531,0.5514,0.5613,0.5618,0.5791,0.5777,0.5593,0.5564,0.5438,0.5283,0.548,0.5438,0.5288,0.5485,0.5294,0.4849,0.4662,0.4591,0.4587,1.0382,0.9866,0.9584,1.0159,0.9544,0.883,0.8386,0.8506,0.0,0.0,0.0,0.0,0.0,0.6775,0.6572,0.0,0.0,0.5339,0.6149,0.5448,0.0,0.0,0.0,0.5957,0.0,0.0,0.0,0.6061,0.6328,0.6323,0.6066,0.6702,0.686,0.6601,0.0,0.6017,0.0,0.0,0.0,0.0,0.0,0.4319,0.426,0.0,0.0,0.5171,0.6253,0.661,0.0,0.7595,0.7901,0.7901,0.7901,0.7901,0.7928,0.8082,0.8368,0.0,0.0,0.0,0.889,0.9309,0.0,0.0,0.0,0.0,0.0,0.0,0.0,0.0,0.0,0.0,0.0,0.0,0.0,0.0,0.0,0.0,0.0,0.0,0.0,0.0,0.0,0.0,0.0,0.0,0.0,0.0,0.0,0.5835,0.5906,0.5906,0.5906,0.5779,0.5505,0.55,0.55,0.55,0.5576,0.5609,0.5609,0.5528,0.5462,0.5387,0.5254,0.5155,0.5135,0.5467,0.5401,0.5127,0.5472,0.5343,0.4973,0.5048,0.4867,0.4632,1.0238,0.9785,0.9564,0.0,0.0,0.0,0.0,0.0,0.0,0.0,0.748,0.0,0.6842,0.0,0.663,0.0,0.5716,0.5656,0.6167,0.5702,0.0,0.5799,0.6072,0.0,0.0,0.0,0.0,0.0,0.0,0.6844,0.6597,0.7121,0.7327,0.7219,0.0,0.6723,0.6354,0.0,0.5277,0.0,0.0,0.4267,0.0,0.0,0.4842,0.5003,0.0,0.6686,0.6713,0.7595,0.7901,0.7901,0.7901,0.7901,0.7901,0.7901,0.8109,0.8342,0.8342,0.8342,0.0,0.9054,0.9211,0.0,0.9932,0.0,0.0,0.0,0.0,0.0,0.0,0.0,0.0,0.0,0.0,0.0,0.0,1.0496,0.0,0.0,0.0,0.0,0.0,0.0,0.0,0.0,0.0,0.0,0.0,0.0,0.5835,0.5906,0.5906,0.5812,0.5613,0.5609,0.5609,0.5609,0.5609,0.5571,0.549,0.5349,0.5268,0.5197,0.5068,0.5011,0.5035,0.5353,0.5335,0.514,0.5391,0.533,0.5128,0.5327,0.5297,0.5194,0.9692,0.9588,0.9769,0.0,0.9925,0.0,0.0,0.0,0.8355,0.0,0.7058,0.6847,0.626,0.6205,0.6205,0.6205,0.6205,0.6205,0.6205,0.6205,0.0,0.0,0.5828,0.588,0.5206,0.0,0.0,0.0,0.0,0.0,0.7139,0.7655,0.7762,0.7521,0.7794,0.0,0.7079,0.6605,0.5819,0.4842,0.4024,0.4132,0.4756,0.4807,0.4811,0.5054,0.6831,0.7214,0.6988,0.7681,0.7901,0.7901,0.7901,0.7901,0.7901,0.7901,0.7901,0.7901,0.7901,0.7901,0.8109,0.8949,0.0,0.0,0.0,0.0,1.0496,0.0,0.0,0.0,0.0,0.0,0.0,0.0,0.0,0.0,0.0,0.0,0.0,0.0,0.0,0.0,0.0,0.0,0.0,0.0,0.0,0.0,0.0,0.0,0.5742,0.592,0.5925,0.5835,0.5642,0.5637,0.5632,0.5623,0.5613,0.5495,0.531,0.5301,0.5192,0.5011,0.5011,0.5011,0.5026,0.5239,0.532,0.531,0.5334,0.5339,0.5339,0.5538,0.5848,0.6205,0.964,0.9588,0.964,0.0,0.9692,0.9268,0.0,0.0,0.0,0.0,0.6445,0.6364,0.6228,0.6205,0.6205,0.6205,0.6205,0.0,0.0,0.0,0.0,0.5916,0.6087,0.6311,0.657,0.6664,0.0,0.73,0.0,0.0,0.7408,0.7735,0.7875,0.7788,0.0,0.0,0.7079,0.6605,0.5928,0.5199,0.5226,0.5336,0.0,0.0,0.6335,0.6389,0.688,0.6993,0.6988,0.7681,0.7901,0.7901,0.7901,0.7901,0.7901,0.7901,0.7901,0.7901,0.7901,0.7901,0.8029,0.8606,0.8968,0.9342,0.0,0.0,0.0,0.0,0.0,0.0,0.0,0.0,0.0,0.0,0.0,0.0,0.0,0.0,0.0,1.0496,0.0,0.0,0.0,0.0,0.0,0.0,0.0,0.0,0.0,0.0,0.0,0.6143,0.612,0.6097,0.6045,0.6045,0.5965,0.5831,0.5679,0.5495,0.5306,0.5154,0.5059,0.5011,0.5011,0.5011,0.5035,0.5377,0.5429,0.5339,0.5628,0.575,0.5736,0.5646,0.5848,0.6205,0.9751,0.9536,0.0,0.9276,0.0,0.0,0.8004,0.7711,0.0,0.6309,0.6205,0.0,0.6205,0.6205,0.6205,0.6205,0.6205,0.0,0.6205,0.0,0.0,0.6205,0.6337,0.6576,0.6923,0.6549,0.0,0.7494,0.0,0.0,0.7681,0.7821,0.7901,0.7901,0.0,0.7601,0.7058,0.648,0.5959,0.5523,0.5719,0.5991,0.0,0.6745,0.7074,0.7348,0.7348,0.7348,0.7402,0.7762,0.7901,0.7901,0.7901,0.7901,0.7901,0.7901,0.7901,0.7901,0.7901,0.8055,0.8315,0.8765,0.9178,0.9562,1.001,1.03,1.0496,0.0,0.0,0.0,0.0,0.0,0.0,0.0,0.0,0.0,0.0,0.0,0.0,0.0,1.0275,0.0,0.0,0.0,0.0,0.0,0.0,0.0,0.0,0.0,0.0,0.7042,0.702,0.6843,0.6453,0.6453,0.6194,0.5637,0.5524,0.5358,0.5173,0.5064,0.5011,0.5011,0.5011,0.5011,0.504,0.5439,0.5538,0.5462,0.5783,0.5906,0.5897,0.5783,0.5923,0.6205,0.987,0.9406,0.0,0.0,0.0,0.0,0.0,0.7429,0.0,0.6337,0.0,0.6205,0.6205,0.6205,0.6205,0.6205,0.0,0.6232,0.6255,0.6255,0.6282,0.6309,0.6598,0.6756,0.681,0.6343,0.657,0.0,0.0,0.0,0.7848,0.7848,0.7875,0.0,0.0,0.0,0.0,0.6408,0.6077,0.5964,0.6046,0.6453,0.7042,0.7042,0.7402,0.7901,0.7901,0.7901,0.7901,0.7901,0.7901,0.7901,0.7901,0.7901,0.7901,0.7901,0.7901,0.7901,0.7981,0.8289,0.8705,0.9152,0.9536,0.9925,1.0385,1.0496,1.0496,1.0496,1.0456,1.0337,0.0,0.0,0.0,0.0,0.0,0.0,0.0,0.0,0.0,0.0,0.0,0.0,0.0,0.0,0.0,0.0,0.0,0.0,0.0,0.0,0.0,0.8119,0.8041,0.7599,0.6846,0.0,0.6291,0.531,0.5339,0.5258,0.5011,0.5046,0.5042,0.5011,0.5035,0.5049,0.5056,0.5448,0.5642,0.5683,0.5883,0.5949,0.5949,0.5949,0.6045,0.6205,0.9276,0.0,0.0,0.0,0.0,0.7568,0.7568,0.73,0.6977,0.6652,0.6359,0.6205,0.6205,0.6205,0.6205,0.6205,0.6205,0.0,0.0,0.0,0.0,0.6923,0.7004,0.7139,0.7359,0.7265,0.7317,0.0,0.0,0.0,0.7574,0.7574,0.0,0.0,0.0,0.0,0.6939,0.6918,0.0,0.6745,0.7295,0.7601,0.7735,0.7735,0.7788,0.7901,0.7901,0.7901,0.7901,0.7901,0.7901,0.7901,0.7901,0.7901,0.7901,0.7901,0.7901,0.7975,0.8368,0.8547,0.8784,0.951,0.9736,0.9925,1.0385,1.0496,1.0496,1.0496,1.0232,1.0089,1.0353,0.0,0.0,0.0,0.0,0.0,0.0,0.0,0.0,0.0,0.0,1.0061,0.0,0.0,0.0,0.0,0.0,0.0,0.0,0.0,0.0,0.0,0.7681,0.0,0.0,0.0,0.6248,0.5315,0.5637,0.5514,0.5021,0.5344,0.5311,0.5021,0.5182,0.5258,0.5277,0.5505,0.5786,0.6102,0.6134,0.6149,0.6149,0.6149,0.6172,0.6205,0.0,0.0,0.0,0.0,0.0,0.0,0.0,0.7489,0.0,0.6744,0.6571,0.6468,0.6468,0.6468,0.6522,0.6657,0.6657,0.6739,0.6891,0.6896,0.6972,0.7085,0.7219,0.0,0.7494,0.7137,0.7176,0.7708,0.0,0.0,0.7494,0.0,0.0,0.7494,0.0,0.7461,0.0,0.0,0.0,0.7456,0.7762,0.7901,0.7901,0.7901,0.7901,0.7901,0.7901,0.7901,0.7901,0.7901,0.7901,0.7901,0.7901,0.7901,0.7901,0.7901,0.7901,0.8008,0.8468,0.8758,0.9047,0.9666,0.9976,1.0223,1.0437,1.0496,1.0496,1.0496,1.0353,1.0264,1.0464,1.0496,0.0,0.0,0.0,0.0,0.0,0.0,0.0,0.0,0.0,0.0,0.0,0.0,0.0,0.0,0.0,0.0,0.0,0.0,0.0,0.0,0.0,0.0,0.0,0.0,0.0,0.645,0.6642,0.6406,0.5797,0.5966,0.5783,0.5316,0.5415,0.5453,0.5472,0.5679,0.5923,0.6205,0.6205,0.6205,0.6205,0.6205,0.6205,0.6205,0.0,0.8608,0.0,0.0,0.7563,0.0,0.7835,0.7728,0.7406,0.6944,0.681,0.6783,0.6783,0.6783,0.6869,0.7085,0.7112,0.7139,0.7192,0.7192,0.7219,0.7273,0.7467,0.7574,0.7574,0.7014,0.7068,0.0,0.0,0.0,0.0,0.0,0.0,0.0,0.0,0.0,0.0,0.0,0.7655,0.7901,0.7901,0.7901,0.7901,0.7901,0.7901,0.7901,0.7901,0.7901,0.7901,0.7901,0.7901,0.7901,0.7901,0.7901,0.7928,0.8029,0.8055,0.8162,0.8705,0.9099,0.9439,0.9847,1.0223,1.0496,1.0496,1.0496,1.0496,1.0496,1.0496,1.0496,1.0496,1.0496,0.0,0.0,0.0,0.0,0.0,0.0,0.0,0.0,0.0,0.0,0.9819,0.0,0.0,0.0,0.0,0.8982,0.9367,0.9326,0.9197,0.0,0.0,0.9143,0.8157,0.0,0.8423,0.7551,0.7485,0.7145,0.6544,0.6457,0.6131,0.5613,0.5656,0.5675,0.5689,0.5892,0.605,0.6205,0.6205,0.6205,0.6205,0.6205,0.6205,0.6205,0.0,0.0,0.0,0.0,0.0,0.0,0.7886,0.789,0.7764,0.7467,0.7219,0.7058,0.7058,0.7058,0.7085,0.7112,0.7112,0.7192,0.7434,0.7467,0.7574,0.7821,0.7848,0.7875,0.7875,0.7805,0.7694,0.0,0.0,0.7052,0.0,0.0,0.0,0.0,0.0,0.0,0.0,0.7601,0.7655,0.7901,0.7901,0.7901,0.7901,0.7901,0.7901,0.7901,0.7901,0.7901,0.7901,0.7901,0.7901,0.7901,0.7901,0.7901,0.7975,0.8421,0.8521,0.8705,0.9477,0.971,0.9847,1.0326,1.047,1.0496,1.0496,1.0496,1.0496,1.0496,1.0496,1.0496,1.0496,1.0496,1.0496,0.0,0.0,0.0,0.0,0.0,0.0,0.0,0.0,0.0,0.0,0.9175,0.0,0.0,0.8925,0.9036,0.9382,0.9112,0.9208,0.9778,0.0,0.923,0.8989,0.8866,0.8418,0.7669,0.7438,0.7092,0.667,0.6358,0.5994,0.5618,0.5802,0.5883,0.5897,0.6087,0.6186,0.6205,0.6205,0.6205,0.6205,0.6205,0.6205,0.6205,0.0,0.0,0.0,0.0,0.0,0.0,0.0,0.8277,0.8227,0.7803,0.7521,0.7327,0.7327,0.7327,0.7408,0.7574,0.7574,0.7628,0.7735,0.7735,0.7794,0.7901,0.7901,0.7901,0.7901,0.7901,0.7848,0.0,0.0,0.0,0.0,0.0,0.0,0.0,0.0,0.7655,0.7901,0.7794,0.7788,0.7901,0.7901,0.7901,0.7901,0.7901,0.7901,0.7901,0.7901,0.7901,0.7901,0.7901,0.7901,0.7901,0.7901,0.8082,0.8368,0.8547,0.8758,0.9073,0.9633,0.9788,0.9925,1.0385,1.0496,1.0496,1.0496,1.0496,1.0496,1.0496,1.0496,1.0496,1.0496,1.0496,1.0496,0.0,0.0,0.0,0.0,0.0,0.0,0.0,0.0,0.0,0.0,0.0,0.0,0.0,0.0,0.8738,0.908,0.877,0.881,0.9274,0.0,0.9326,0.9279,0.9639,0.9625,0.9258,0.8865,0.828,0.7534,0.7153,0.6802,0.6525,0.6917,0.7087,0.7098,0.7197,0.7214,0.7214,0.7214,0.7214,0.7187,0.6869,0.6739,0.6685,0.9245,0.0,0.886,0.0,0.8708,0.8691,0.8341,0.8475,0.8433,0.7961,0.7735,0.7628,0.7628,0.7628,0.7681,0.7875,0.7901,0.7901,0.7901,0.7901,0.7901,0.7901,0.7901,0.0,0.7901,0.7901,0.7901,0.7901,0.7628,0.0,0.0,0.0,0.0,0.0,0.7628,0.7735,0.7901,0.7901,0.7901,0.7901,0.7901,0.7901,0.7901,0.7901,0.7901,0.7901,0.7901,0.7901,0.7901,0.7901,0.7901,0.7901,0.7901,0.8135,0.8421,0.8547,0.8811,0.9126,0.9666,0.9788,0.9925,1.0385,1.0496,1.0496,1.0496,1.0496,1.0496,1.0496,1.0496,1.0496,1.0496,1.0496,1.0496,1.0496,0.0,0.0,0.0,0.0,0.0,0.0,1.0311,1.0168,0.9779,0.9541,0.0,0.0,0.0,0.0,0.9032,0.8913,0.896,0.0,0.0,0.0,0.9734,1.0234,1.0445,1.0342,0.9758,0.9112,0.8402,0.7857,0.7509,0.7348,0.7738,0.7898,0.7898,0.7898,0.7898,0.7898,0.7898,0.7898,0.7845,0.7295,0.7112,0.7004,1.0295,0.9849,0.942,0.9143,0.9095,0.8921,0.8369,0.8291,0.8201,0.7937,0.7901,0.7901,0.7901,0.7901,0.7901,0.7901,0.7901,0.7901,0.7901,0.7901,0.7901,0.0,0.0,0.7901,0.7901,0.7901,0.7901,0.7901,0.0,0.0,0.7494,0.0,0.7628,0.7901,0.7901,0.7901,0.7901,0.7901,0.7901,0.7901,0.7901,0.7901,0.7901,0.7901,0.7901,0.7901,0.7901,0.7901,0.7901,0.7901,0.7901,0.7901,0.7901,0.7901,0.8008,0.8474,0.86,0.8778,0.9581,0.9788,0.9925,1.0385,1.0496,1.0496,1.0496,1.0496,1.0496,1.0496,1.0496,1.0496,1.0496,1.0496,1.0496,1.0496,0.0,0.0,0.0,0.0,0.0,0.9953,0.9906,0.9771,0.9438,0.9398,0.0,0.0,0.0,0.0,0.0,0.0,0.0,0.989,1.0272,0.0,1.0488,1.0496,1.0496,1.0496,0.9629,0.9211,0.9159,0.8302,0.7898,0.7898,0.7898,0.7898,0.7898,0.7898,0.7898,0.7898,0.7898,0.7898,0.7845,0.7295,0.7112,0.7004,0.9766,0.9612,0.9426,0.9143,0.9095,0.8921,0.8369,0.8291,0.8195,0.7937,0.7901,0.7901,0.7901,0.7901,0.7901,0.0,0.7901,0.7901,0.0,0.7901,0.7901,0.7901,0.7901,0.7901,0.7901,0.7901,0.7901,0.7901,0.0,0.0,0.0,0.7762,0.7821,0.7901,0.7901,0.7901,0.7901,0.7901,0.7901,0.7901,0.7901,0.7901,0.7901,0.7901,0.7901,0.7901,0.7901,0.7901,0.7901,0.7901,0.7901,0.7901,0.7901,0.8109,0.8421,0.8547,0.8784,0.9073,0.9335,0.9387,0.9439,0.9577,0.9829,1.0035,1.0035,1.0275,1.0496,1.0496,1.0496,1.0496,1.0496,1.0496,1.0496,1.0496,1.0496,0.0,0.0,0.0,0.0,1.0311,1.0321,1.0281,1.0161,0.9898,0.0,0.0,0.0,0.0,0.0,0.0,0.0,0.0,1.0168,0.0,1.0488,1.0496,1.0496,1.0496,0.9906,0.938,0.8909,0.8837,0.8725,0.8659,0.904,0.9145,0.9059,0.9059,0.9059,0.9033,0.8666,0.8508,0.8402,0.7456,0.7112,0.7004,0.9516,0.9516,0.9426,0.9143,0.9095,0.8921,0.8369,0.8291,0.8195,0.7937,0.7901,0.7901,0.7901,0.7901,0.0,0.7901,0.7901,0.7901,0.7901,0.7901,0.7901,0.7901,0.7901,0.7901,0.7901,0.7901,0.0,0.7901,0.7901,0.7901,0.7901,0.7901,0.7901,0.7901,0.7901,0.7901,0.7901,0.7901,0.7901,0.7901,0.7901,0.7901,0.7901,0.7901,0.7901,0.7901,0.7901,0.7901,0.7901,0.7901,0.7901,0.7901,0.7901,0.8109,0.8342,0.8342,0.8527,0.8738,0.8923,0.8975,0.9021,0.9159,0.951,0.9847,1.0035,1.0275,1.0496,1.0496,1.0496,1.0496,1.0496,1.0496,1.0496,1.0496,1.0496,1.0496,1.0496,0.0,0.0,0.0,0.0,0.0,0.0,1.0264,1.0224,0.0,0.0,0.0,0.0,0.0,0.0,1.048,1.0273,0.0,1.0496,1.0496,1.0496,1.0496,1.0146,0.9725,0.9256,0.942,0.9439,0.938,0.9688,0.9766,0.9673,0.9614,0.9588,0.9562,0.9223,0.9093,0.8988,0.8084,0.7744,0.7664,0.9516,0.9516,0.9432,0.0,0.9107,0.0,0.8393,0.8303,0.8195,0.7937,0.7901,0.7901,0.7901,0.7901,0.7901,0.7901,0.0,0.0,0.0,0.7901,0.7901,0.7901,0.7901,0.7901,0.7901,0.7901,0.7901,0.7901,0.7901,0.7901,0.7901,0.7901,0.7901,0.7901,0.7901,0.7901,0.7901,0.7901,0.7901,0.7901,0.7901,0.7901,0.7901,0.7901,0.7901,0.7901,0.7901,0.7901,0.7901,0.7901,0.7901,0.7901,0.7901,0.7901,0.7901,0.7901,0.7901,0.8008,0.8441,0.8547,0.8653,0.9054,0.9491,0.9925,1.0385,1.0496,1.0496,1.0496,1.0496,1.0496,1.0496,1.0496,1.0496,1.0496,1.0496,1.0496,1.0496,0.0,1.0496,0.0,0.0,0.0,1.0496,1.0496,1.0496,0.0,0.0,0.0,0.0,0.0,1.0496,1.0496,1.0496,1.0496,1.0496,1.0496,1.0496,1.0496,1.0368,1.0213,1.0025,1.0025,1.0025,0.9999,0.9903,0.9825,0.9792,0.9673,0.9614,0.9614,0.9562,0.9536,0.9484,0.8935,0.8745,0.8672,0.0,0.0,0.9492,0.9426,0.9239,0.8987,0.8662,0.8445,0.8195,0.7937,0.7901,0.7901,0.7901,0.7901,0.7901,0.7901,0.7901,0.7901,0.7901,0.7901,0.7901,0.7901,0.7901,0.7901,0.7901,0.7901,0.7901,0.7901,0.7901,0.7901,0.7901,0.7901,0.7901,0.7901,0.7901,0.7901,0.7901,0.7901,0.7901,0.7901,0.7901,0.7901,0.7901,0.7901,0.7901,0.7901,0.7901,0.7901,0.7901,0.7901,0.7901,0.7901,0.7901,0.7901,0.7901,0.7901,0.7901,0.7928,0.8029,0.8055,0.8189,0.8626,0.9276,0.9925,1.0385,1.0496,1.0496,1.0496,1.0496,1.0496,1.0496,1.0496,1.0496,1.0496,1.0496,1.0496,1.0496,1.0496,1.0496,0.0,1.0496,1.0496,1.0496,1.0496,1.0496,0.0,0.0,0.0,0.0,1.0496,1.0496,1.0496,1.0496,1.0496,1.0496,1.0496,1.0496,1.0496,1.047,1.0419,1.0393,1.0393,1.0342,1.0239,1.0187,1.0084,0.9947,0.9818,0.9766,0.9714,0.9197,0.8988,0.8928,0.8323,0.8111,0.8084,0.9516,0.9516,0.9516,0.9516,0.9281,0.9011,0.8746,0.8487,0.8195,0.7937,0.7901,0.7901,0.7901,0.7901,0.7901,0.7901,0.7901,0.7901,0.7901,0.7901,0.7901,0.7901,0.7901,0.7901,0.7901,0.7901,0.7901,0.7901,0.7901,0.7901,0.7901,0.7901,0.7901,0.7901,0.7901,0.7901,0.7901,0.7901,0.7901,0.7901,0.7901,0.7901,0.7901,0.7901,0.7901,0.7901,0.7901,0.7901,0.7901,0.7901,0.7901,0.7901,0.7901,0.7901,0.7955,0.8162,0.8055,0.7955,0.8162,0.8209,0.8368,0.8988,0.9477,0.9925,1.0385,1.0496,1.0496,1.0496,1.0496,1.0496,1.0496,1.0496,1.0496,1.0496,1.0496,1.0496,1.0496,1.0496,0.0,1.0496,1.0496,1.0496,1.0496,1.0496,1.0496,1.0496,1.0496,0.0,1.0496,1.0496,1.0496,1.0496,1.0496,1.0496,1.0496,1.0496,1.0496,1.0496,1.0496,1.0496,1.0496,1.0496,1.047,1.0393,1.0324,1.0239,1.0136,0.9955,0.9895,0.9844,0.942,0.9256,0.9204,0.8823,0.8666,0.8666,0.9462,0.9486,0.9504,0.9462,0.9257,0.8999,0.8692,0.8429,0.8195,0.7937,0.7901,0.7901,0.7901,0.7901,0.7901,0.7901,0.7901,0.7901,0.7901,0.7901,0.7901,0.7901,0.7901,0.7901,0.7901,0.7901,0.7901,0.7901,0.7901,0.7901,0.7901,0.7901,0.7901,0.7901,0.7901,0.7901,0.7901,0.7901,0.7901,0.7901,0.7901,0.7901,0.7901,0.7901,0.7901,0.7901,0.7901,0.7901,0.7901,0.7901,0.7901,0.7901,0.7975,0.8002,0.8082,0.8553,0.8395,0.8189,0.858,0.8732,0.8935,0.9633,0.984,1.0002,1.0411,1.0496,1.0496,1.0496,1.0496,1.0496,1.0496,1.0496,1.0496,1.0496,1.0496,1.0496,1.0496,0.0,1.0496,1.0496,1.0496,1.0496,1.0496,1.0496,1.0496,1.0496,1.0496,1.0496,1.0496,1.0496,1.0496,1.0496,1.0496,1.0496,1.0496,1.0496,1.0496,1.0496,1.0496,1.0496,1.0496,1.0496,1.0496,1.0496,1.0368,1.0342,1.0316,1.0136,1.0051,1.0025,0.9877,0.9818,0.9825,0.9673,0.964,0.9647,0.9209,0.9354,0.9444,0.9203,0.9125,0.8933,0.8451,0.8315,0.8195,0.7937,0.7901,0.7901,0.7901,0.7901,0.7901,0.7901,0.7901,0.7901,0.7901,0.7901,0.7901,0.7901,0.7901,0.7901,0.7901,0.7901,0.7901,0.7901,0.7901,0.7901,0.7901,0.7901,0.7901,0.7901,0.7901,0.7901,0.7901,0.7901,0.7901,0.7901,0.7901,0.7901,0.7901,0.7901,0.7901,0.7901,0.7901,0.7901,0.7901,0.7901,0.7901,0.7981,0.8368,0.8501,0.8573,0.8995,0.9054,0.9001,0.908,0.9361,0.9633,0.9762,1.0113,1.0411,1.0488,1.0496,1.0496,1.0496,1.0496,1.0496,1.0496,1.0496,1.0496,1.0496,1.0496,1.0496,1.0496,0.0,1.0496,1.0496,1.0496,1.0496,1.0496,1.0496,1.0496,1.0496,1.0496,1.0496,1.0496,1.0496,1.0496,1.0496,1.0496,1.0496,1.0496,1.0496,1.0496,1.0496,1.0496,1.0496,1.0496,1.0496,1.0496,1.0496,1.047,1.047,1.047,1.0316,1.0239,1.0239,1.0025,0.9973,0.9947,0.9818,0.9844,0.9914,0.8939,0.8993,0.9041,0.8909,0.8884,0.8758,0.8345,0.8291,0.8195,0.7937,0.7901,0.7901,0.7901,0.7901,0.7901,0.7901,0.7901,0.7901,0.7901,0.7901,0.7901,0.7901,0.7901,0.7901,0.7901,0.7901,0.7901,0.7901,0.7901,0.7901,0.7901,0.7901,0.7901,0.7901,0.7901,0.7901,0.7901,0.7901,0.7901,0.7901,0.7901,0.7901,0.7901,0.7901,0.7901,0.7901,0.7901,0.7901,0.7901,0.7901,0.7901,0.7975,0.8441,0.86,0.8732,0.9328,0.951,0.951,0.951,0.9855,1.0164,1.0164,1.0334,1.0496,1.0496,1.0496,1.0496,1.0496,1.0496,1.0496,1.0496,1.0496,1.0496,1.0496,1.0496,0.0,0.0,1.0496,1.0496,1.0496,1.0496,1.0496,1.0496,1.0496,1.0496,1.0496,1.0496,1.0496,1.0496,1.0496,1.0496,1.0496,1.0496,1.0496,1.0496,1.0496,1.0496,1.0496,1.0496,1.0496,1.0496,1.0496,1.0496,1.0496,1.0496,1.0496,1.0496,1.0419,1.0419,1.0393,1.0239,1.0162,1.0128,0.9973,0.9947,0.9999,0.8758,0.871,0.8686,0.8626,0.8614,0.853,0.8237,0.8201,0.8153,0.8009,0.7937,0.7925,0.7985,0.7937,0.7901,0.7901,0.7901,0.7901,0.7901,0.7901,0.7901,0.7901,0.7901,0.7901,0.7901,0.7901,0.7901,0.7901,0.7901,0.7901,0.7901,0.7901,0.7901,0.7901,0.7901,0.7901,0.7901,0.7901,0.7901,0.7901,0.7901,0.7901,0.7901,0.7901,0.7901,0.7901,0.7901,0.7901,0.7901,0.7901,0.7901,0.8008,0.8553,0.8732,0.889,0.9718,0.9976,0.995,0.984,1.0138,1.0496,1.0496,1.0496,1.0496,1.0496,1.0496,1.0496,1.0496,1.0496,1.0496,1.0496,1.0496,1.0496,1.0496,0.0,0.0,0.0,1.0496,1.0496,1.0496,1.0496,1.0496,1.0496,1.0496,1.0496,1.0496,1.0496,1.0496,1.0496,1.0496,1.0496,1.0496,1.0496,1.0496,1.0496,1.0496,1.0496,1.0496,1.0496,1.0496,1.0496,1.0496,1.0496,1.0496,1.0496,1.0496,1.0496,1.0496,1.0496,1.0496,1.0393,1.0342,1.0316,1.0128,1.0076,1.0102,0.8758,0.871,0.8632,0.8363,0.8321,0.8231,0.7967,0.7931,0.8009,0.8231,0.8051,0.7991,0.8237,0.8045,0.7901,0.7901,0.7901,0.7901,0.7901,0.7901,0.7901,0.7901,0.7901,0.7901,0.7901,0.7901,0.7901,0.7901,0.7901,0.7901,0.7901,0.7901,0.7901,0.7901,0.7901,0.7901,0.7901,0.7901,0.7901,0.7901,0.7901,0.7901,0.7901,0.7901,0.7901,0.7901,0.7901,0.7901,0.7901,0.7901,0.7901,0.8055,0.8896,0.9159,0.9316,1.0205,1.0437,1.036,0.9925,1.0138,1.0496,1.0496,1.0496,1.0496,1.0496,1.0496,1.0496,1.0496,1.0496,1.0496,1.0496,1.0496,1.0496,1.0496,0.0,0.0,1.0496,1.0496,1.0496,1.0496,1.0496,1.0496,1.0496,1.0496,1.0496,1.0496,1.0496,1.0496,1.0496,1.0496,1.0496,1.0496,1.0496,1.0496,1.0496,1.0496,1.0496,1.0496,1.0496,1.0496,1.0496,1.0496,1.0496,1.0496,1.0496,1.0496,1.0496,1.0496,1.0496,1.0496,1.0496,1.0496,1.047,1.0342,1.0368,1.0445,0.8518,0.8303,0.8213,0.8279,0.8291,0.8255,0.8159,0.8279,0.8417,0.8548,0.8303,0.8243,0.853,0.8153,0.7967,0.8129,0.7997,0.7901,0.7901,0.7901,0.7901,0.7901,0.7901,0.7901,0.7901,0.7901,0.7901,0.7901,0.7901,0.7901,0.7901,0.7901,0.7901,0.7901,0.7901,0.7901,0.7901,0.7901,0.7901,0.7901,0.7901,0.7901,0.7901,0.7901,0.7901,0.7901,0.7901,0.7901,0.7901,0.7901,0.7901,0.8008,0.8633,0.8837,0.8942,0.9524,0.9681,0.9655,0.9465,0.994,1.0496,1.0496,1.0275,1.0138,1.0437,1.0275,1.0138,1.0445,1.0496,1.0496,1.0496,1.0496,1.0496,1.0496,0.0,1.0496,1.0496,1.0496,1.0496,1.0496,1.0496,1.0496,1.0496,1.0496,1.0496,1.0496,1.0496,1.0496,1.0496,1.0496,1.0496,1.0496,1.0496,1.0496,1.0496,1.0496,1.0496,1.0496,1.0496,1.0496,1.0496,1.0496,1.0496,1.0496,1.0496,1.0496,1.0496,1.0496,1.0496,1.0496,1.0496,1.0496,1.0496,1.0445,1.047,1.0528,0.8487,0.8267,0.8177,0.8273,0.8357,0.8411,0.8411,0.8596,0.8734,0.8818,0.8602,0.8512,0.8686,0.8385,0.8183,0.8279,0.8201,0.8141,0.8141,0.8141,0.8075,0.7907,0.7979,0.7985,0.7907,0.7979,0.7985,0.7901,0.7901,0.7901,0.7901,0.7901,0.7901,0.7901,0.7901,0.7901,0.7901,0.7901,0.7901,0.7901,0.7901,0.7901,0.7901,0.7901,0.7901,0.7901,0.7901,0.7901,0.7901,0.7901,0.7901,0.7975,0.8441,0.8679,0.8837,0.9106,0.9211,0.9211,0.9211,0.9732,1.0249,1.0128,0.9932,0.9873,1.0223,1.0138,1.0113,1.0437,1.0496,1.0496,1.0496,1.0496,1.0496,1.0496,1.0496,1.0496,1.0496,1.0496,1.0496,1.0496,1.0496,1.0496,1.0496,1.0496,1.0496,1.0496,1.0496,1.0496,1.0496,1.0496,1.0496,1.0496,1.0496,1.0496,1.0496,1.0496,1.0496,1.0496,1.0496,1.0496,1.0496,1.0496,1.0496,1.0496,1.0496,1.0496,1.0496,1.0496,1.0496,1.0496,1.0496,1.0496,1.0496,1.0496,1.0568,1.0679,0.8758,0.871,0.8626,0.8333,0.8536,0.871,0.871,0.871,0.8806,0.9065,0.8872,0.871,0.8716,0.871,0.8602,0.8321,0.856,0.8704,0.871,0.871,0.8475,0.7931,0.8153,0.8171,0.7913,0.8159,0.8165,0.7907,0.7901,0.7901,0.7901,0.7901,0.7901,0.7901,0.7901,0.7901,0.7901,0.7901,0.7901,0.7901,0.7901,0.7901,0.7901,0.7901,0.7901,0.7901,0.7901,0.7901,0.7901,0.7901,0.7901,0.7981,0.8448,0.8863,0.9185,0.9185,0.9185,0.9185,0.9185,0.9491,0.9684,0.9309,0.9517,0.9788,0.9814,1.0172,1.0496,1.0496,1.0496,1.0496,1.0496,1.0496,1.0496,1.0496,1.0496,1.0496,1.0496,1.0496,1.0496,1.0496,1.0496,1.0496,1.0496,1.0496,1.0496,1.0496,1.0496,1.0496,1.0496,1.0496,1.0496,1.0496,1.0496,1.0496,1.0496,1.0496,1.0496,1.0496,1.0496,1.0496,1.0496,1.0496,1.0496,1.0496,1.0496,1.0496,1.0496,1.0496,1.0496,1.0496,1.0496,1.0496,1.0496,1.0496,1.0727,1.0955,0.8758,0.871,0.8626,0.8333,0.8686,0.8921,0.8734,0.9029,0.93,0.9378,0.9149,0.9053,0.9251,0.877,0.8554,0.8842,0.8602,0.8512,0.8692,0.871,0.8638,0.8481,0.8548,0.8554,0.8475,0.8345,0.8249,0.8171,0.7991,0.7901,0.7901,0.7901,0.7901,0.7901,0.7901,0.7901,0.7901,0.7901,0.7901,0.7901,0.7901,0.7901,0.7901,0.7901,0.7901,0.7901,0.7901,0.7901,0.7901,0.7901,0.7901,0.7928,0.8055,0.8189,0.8295,0.8295,0.8295,0.8295,0.8295,0.8626,0.9066,0.951,0.971,0.9899,1.0223,1.0138,1.0113,1.0437,1.0496,1.0496,1.0496,1.0496,1.0496,1.0496,1.0496,1.0584,1.083,1.0655,1.0591,1.0812,1.0647,1.0496,1.0496,1.0496,1.0496,1.0496,1.0496,1.0496,1.0496,1.0496,1.0496,1.0496,1.0496,1.0496,1.0496,1.0496,1.0496,1.0496,1.0496,1.0496,1.0496,1.0496,1.0496,1.0496,1.0496,1.0496,1.0496,1.0496,1.0496,1.0496,1.0496,1.0647,1.0836,1.0836,1.105,1.136,0.8915,0.8951,0.8945,0.8674,0.8884,0.9083,0.9035,0.9209,0.939,0.9498,0.9366,0.9281,0.9348,0.9017,0.8872,0.9083,0.8806,0.874,0.9011,0.8927,0.8909,0.9023,0.9029,0.8927,0.871,0.8656,0.8572,0.8469,0.8285,0.8207,0.8207,0.8207,0.8207,0.8207,0.8207,0.8153,0.8051,0.8051,0.7997,0.7901,0.7901,0.7901,0.7913,0.8015,0.7991,0.7913,0.8015,0.7991,0.7901,0.7901,0.7901,0.7901,0.7901,0.7901,0.7901,0.7901,0.7901,0.7979,0.8292,0.8611,0.9022,0.9828,0.9918,0.9873,1.0172,1.0138,1.0172,1.0445,1.0607,1.0703,1.0703,1.0814,1.0902,1.0902,1.0902,1.0926,1.0987,1.095,1.0926,1.0987,1.095,1.0846,1.0719,1.0822,1.0846,1.0719,1.0576,1.056,1.0695,1.0703,1.0703,1.0703,1.0703,1.0639,1.0496,1.0496,1.0496,1.0496,1.0496,1.0496,1.0496,1.0496,1.0496,1.0504,1.0647,1.0623,1.0504,1.0647,1.0623,1.0504,1.0647,1.0812,1.1018,1.1146,1.1408,1.171,0.9149,0.9324,0.942,0.9113,0.9077,0.9173,0.9438,0.9263,0.9197,0.948,0.9516,0.942,0.9161,0.9318,0.936,0.9149,0.9137,0.9239,0.9498,0.9275,0.9245,0.9472,0.9516,0.9287,0.8788,0.8987,0.8981,0.874,0.8722,0.871,0.871,0.871,0.871,0.871,0.871,0.8572,0.8321,0.8297,0.8153,0.7931,0.7913,0.7913,0.7961,0.8171,0.8123,0.7967,0.8207,0.8123,0.7901,0.7901,0.7901,0.7901,0.7901,0.7901,0.7901,0.7955,0.7955,0.8143,0.8932,0.9221,0.9482,1.0258,1.0188,0.9948,0.9918,1.0236,1.0552,1.0576,1.082,1.1042,1.1042,1.1289,1.1487,1.1487,1.1487,1.1392,1.113,1.132,1.1392,1.1122,1.132,1.1376,1.1066,1.1312,1.136,1.1066,1.0767,1.0727,1.1026,1.1042,1.1042,1.1042,1.1042,1.0891,1.0591,1.0591,1.056,1.0496,1.0528,1.0544,1.0544,1.0576,1.0591,1.0599,1.0867,1.0828,1.0607,1.0875,1.0854,1.0615,1.0942,1.1058,1.113,1.1424,1.1765,1.2019,0.9149,0.9324,0.9366,0.8878,0.8909,0.9071,0.9167,0.9137,0.9197,0.948,0.9516,0.9492,0.9432,0.9101,0.9029,0.9396,0.9426,0.945,0.9478,0.9456,0.945,0.951,0.9516,0.9462,0.9342,0.9179,0.9065,0.9011,0.8806,0.871,0.871,0.871,0.871,0.871,0.871,0.8674,0.8608,0.8375,0.8255,0.8189,0.7985,0.8021,0.8189,0.8039,0.8075,0.8213,0.8273,0.8123,0.7901,0.7901,0.7901,0.7901,0.7901,0.7901,0.7981,0.8342,0.8448,0.8612,0.9371,0.9843,1.0245,1.0692,1.0959,1.1056,1.0797,1.0822,1.0982,1.1244,1.1328,1.1384,1.1384,1.1439,1.1487,1.1487,1.1487,1.1559,1.1773,1.1622,1.1567,1.1773,1.1614,1.1463,1.1392,1.1447,1.1455,1.1384,1.1312,1.1304,1.1376,1.1384,1.1384,1.1384,1.1384,1.1344,1.1265,1.1265,1.1029,1.0496,1.0775,1.0883,1.0891,1.1153,1.1265,1.1257,1.1074,1.1098,1.1284,1.1074,1.1106,1.13,1.1352,1.1551,1.1776,1.1847,1.2131,1.2463,0.9324,0.9414,0.9426,0.9143,0.9059,0.9089,0.9269,0.9077,0.9059,0.9462,0.9402,0.9366,0.9498,0.9263,0.9209,0.9492,0.9396,0.9372,0.9504,0.9275,0.9245,0.9472,0.9384,0.9318,0.9318,0.9306,0.9293,0.9293,0.9161,0.9095,0.9095,0.9095,0.9095,0.9095,0.9095,0.9017,0.8884,0.8746,0.8614,0.8493,0.8327,0.8357,0.8506,0.8487,0.8493,0.8506,0.8506,0.8225,0.7901,0.7901,0.7901,0.7901,0.7901,0.7985,0.8166,0.8506,0.8796,0.9211,1.0044,1.045,1.0783,1.1289,1.1472,1.1447,1.1273,1.1233,1.1281,1.1455,1.1622,1.1741,1.1741,1.1884,1.2025,1.2025,1.2025,1.2003,1.2011,1.2011,1.2092,1.2225,1.2209,1.223,1.223,1.1932,1.1741,1.1741,1.1741,1.1741,1.1741,1.1741,1.1741,1.1741,1.1741,1.1662,1.1487,1.1487,1.1312,1.0982,1.1138,1.1233,1.1241,1.1408,1.1487,1.1487,1.1487,1.1487,1.1487,1.1487,1.1487,1.1511,1.1678,1.1853,1.2014,1.221,1.2431,1.259,0.9516,0.9516,0.9516,0.9516,0.9269,0.9173,0.9468,0.9095,0.8933,0.9384,0.9281,0.9239,0.9426,0.9486,0.9498,0.945,0.9275,0.9269,0.9498,0.9095,0.9047,0.9498,0.9293,0.9167,0.9167,0.9396,0.9492,0.9444,0.9492,0.9516,0.9516,0.9516,0.9516,0.9516,0.9516,0.9384,0.9167,0.9119,0.8969,0.877,0.8728,0.8734,0.8794,0.8963,0.8927,0.877,0.8722,0.8397,0.7967,0.7967,0.7967,0.7967,0.7967,0.823,0.8515,0.8571,0.9143,0.9919,1.068,1.0917,1.1161,1.1901,1.1826,1.1584,1.167,1.1622,1.157,1.1576,1.1842,1.2115,1.2115,1.2391,1.2614,1.267,1.263,1.2503,1.2294,1.2469,1.2625,1.2682,1.289,1.3018,1.3018,1.2498,1.2226,1.2282,1.2251,1.2251,1.2251,1.2251,1.2258,1.2202,1.2202,1.2027,1.1678,1.1698,1.1698,1.1698,1.1762,1.1702,1.1582,1.1675,1.1698,1.1714,1.1916,1.1884,1.1686,1.1924,1.1884,1.173,1.1996,1.2115,1.2146,1.2479,1.259,1.259,0.9516,0.9516,0.9516,0.9516,0.9221,0.9107,0.9462,0.9245,0.9071,0.9143,0.933,0.9378,0.9179,0.9372,0.942,0.9173,0.9342,0.9474,0.951,0.945,0.9438,0.951,0.948,0.9456,0.9456,0.9498,0.9396,0.9155,0.9396,0.9516,0.9516,0.9516,0.9516,0.9516,0.9516,0.9492,0.9444,0.9197,0.9077,0.9023,0.88,0.8842,0.9023,0.8836,0.8878,0.9017,0.8788,0.8518,0.8237,0.8237,0.8237,0.8237,0.8237,0.8752,0.9236,0.8757,0.9611,1.0737,1.088,1.1061,1.1443,1.2309,1.2143,1.189,1.2356,1.217,1.1909,1.1791,1.2173,1.2519,1.2519,1.2558,1.2694,1.3004,1.2789,1.2771,1.3303,1.2928,1.281,1.3365,1.3235,1.3084,1.3084,1.3004,1.3068,1.3346,1.337,1.337,1.337,1.337,1.3243,1.2957,1.2949,1.2774,1.2447,1.2447,1.2447,1.2447,1.2758,1.2544,1.1927,1.2304,1.2447,1.2431,1.2131,1.217,1.2431,1.2131,1.2178,1.2455,1.2503,1.2519,1.2527,1.2574,1.259,1.259,0.9516,0.9516,0.9516,0.9516,0.9384,0.933,0.9492,0.9275,0.9149,0.9312,0.9306,0.9293,0.933,0.9444,0.9468,0.9342,0.9444,0.9516,0.9516,0.9366,0.9354,0.9478,0.9366,0.9209,0.9065,0.936,0.9306,0.8878,0.9306,0.9516,0.9516,0.9516,0.9516,0.9478,0.9354,0.9281,0.9275,0.9149,0.9011,0.8896,0.9083,0.9137,0.9083,0.8969,0.8999,0.9047,0.8638,0.8387,0.8291,0.8291,0.8387,0.8536,0.8536,0.9091,0.9643,0.918,0.9961,1.0905,1.0725,1.1122,1.1684,1.205,1.2212,1.2212,1.2182,1.2249,1.2308,1.2243,1.2436,1.259,1.259,1.2909,1.3156,1.31,1.3282,1.3541,1.39,1.3695,1.3646,1.4109,1.3851,1.3664,1.3664,1.3644,1.364,1.3584,1.3767,1.3791,1.3626,1.3618,1.3466,1.31,1.3267,1.3203,1.2893,1.3076,1.3164,1.3164,1.3323,1.2996,1.2337,1.2726,1.2781,1.2582,1.2423,1.2447,1.2582,1.2423,1.2447,1.259,1.259,1.259,1.259,1.259,1.259,1.259]}]]